     2              OBSERVATION DATA    GPS                 RINEX VERSION / TYPE
teqc 2000Feb29 Duncan Agnew 20030616 21:14:58UTC            PGM / RUN BY / DATE
                                                            COMMENT
L2: 1 -> 1; 150 -> 5; 250 -> 9                              COMMENT
L2: 1 -> 1; 150 -> 5; 250 -> 9                              COMMENT
L2: 1 -> 1; 150 -> 5; 250 -> 9                              COMMENT
L2: 1 -> 1; 150 -> 5; 250 -> 9                              COMMENT
L2: 1 -> 1; 150 -> 5; 250 -> 9                              COMMENT
Original Marker Name: 05NE                                  COMMENT
Campaign Name: Imperial Valley 2003                         COMMENT
4-Character Station Name: 05NE                              COMMENT
6-Character Antenna Code: DMRCHT                            COMMENT
Vertical Measurement Point: BCR                             COMMENT
Vertical Offset to Rinex Ref. Point: 0.0348                 COMMENT
Radial Measurement Point: ECF                               COMMENT
Radial Offset to Rinex Ref. Point: 0.1897                   COMMENT
Antenna Height from Field Measurement: 0.7860 m             COMMENT
Additional Antenna Identification Info.:                    COMMENT
Turborogue and Ashtech Choke Ring                           COMMENT
Original XYZ: 0.0000 0.0000 0.0000                          COMMENT
New XYZ position is based on association with SCEC monument COMMENT
E1D0L3G7+0011. Position of that monument is believed to be  COMMENT
valid to within 1 m horizontally; vertical accuracy         COMMENT
should be no worse than 3-times this value.                 COMMENT
                                                            COMMENT
Revised Rinex header created by UCSD GPS archive for        COMMENT
GSAC on 11-Jul-2003 (2003:192) 16:11:12 GMT                 COMMENT
For assistance contact dagnew@ucsd.edu                      COMMENT
or anderson@python.ucsd.edu                                 COMMENT
                                                            COMMENT
T8S R12E S5 S4 T9S R12E                                     MARKER NAME
SJB SCRIPPS INSTITUTION OF OCEANOGRAPHY                     OBSERVER / AGENCY
317 ASHTECH Z-XII3 CC00                                     REC # / TYPE / VERS
408 DORNE-MARGOL. TYPE T                                    ANT # / TYPE
 -2313652.1248 -4799971.0011  3493553.9057                  APPROX POSITION XYZ
        0.7280        0.0000        0.0000                  ANTENNA: DELTA H/E/N
     1     1     0                                          WAVELENGTH FACT L1/2
     7    C1    L1    L2    P1    P2    S1    S2            # / TYPES OF OBSERV
     0                                                      INTERVAL
  2003     6     3    21    39    0.000000                  TIME OF FIRST OBS
  2003     6     3    23    59   30.000000                  TIME OF LAST OBS
                                                            END OF HEADER
 03  6  3 21 39  0.0000000  0  6G 3G18G15G31G14G 9
  23038133.390      160218.81249    118537.61246  23038133.452    23038142.303
       223.000         169.000
  22793491.234      150655.51449    108285.54346  22793491.294    22793498.088
       225.000         172.000
                    182128.17549    133106.23143
       236.000          74.000
  23036804.083       44067.56149     31922.28446  23036803.543    23036812.530
       222.000         169.000
  20388942.784      -10818.07549     -7717.09648  20388942.479    20388948.461
       240.000         213.000
                    194087.98449    138595.62144                  24263650.534
       210.000         131.000
 03  6  3 21 39 30.0000000  0  8G23G 3G18G15G31G14G21G 9
                   -759402.22349   -600391.49343
       235.000          74.000
  22893108.610     -601892.11549   -475315.15146  22893108.431    22893118.113
       221.000         169.000
  22648118.522     -613282.24549   -486990.67746  22648118.214    22648125.305
       225.000         172.000
                   -569882.09849   -595000.42846                  21172874.942
       237.000         186.000
  22885091.976     -753184.75449   -589313.32546  22885091.531    22885099.929
       223.000         170.000
  20233853.036     -825819.55349   -642783.17548  20233852.825    20233858.654
       240.000         214.000
  24440462.580     -432724.43749   -415531.38245  24440461.451    24440473.662
       208.000         139.000
  24120979.271     -555610.16249   -445584.78345  24120979.343    24120988.102
       207.000         141.000
 03  6  3 21 40  0.0000000  0  8G23G 3G18G15G31G14G21G 9
                   -735593.90349   -617131.24346                  21642758.204
       236.000         186.000
  22904514.214     -541954.95749   -428610.96746  22904513.855    22904523.424
       221.000         169.000
  22659136.001     -555385.14749   -441876.09446  22659136.126    22659142.726
       225.000         171.000
  21186215.737     -499736.07149   -540341.22647  21186215.069    21186223.510
       236.000         195.000
  22889844.185     -728212.39249   -569854.38446  22889843.541    22889852.548
       222.000         171.000
  20235221.761     -818626.91449   -637178.51748  20235221.648    20235227.456
       240.000         214.000
  24460739.214     -326169.52249   -332501.90145  24460738.423    24460750.378
       211.000         142.000
  24134775.116     -483110.55049   -389091.60845  24134774.443    24134784.973
       204.000         141.000
 03  6  3 21 40 30.0000000  0  8G23G 3G18G15G31G14G21G 9
  21647297.856     -711701.28949   -598513.63347  21647297.638    21647305.240
       236.000         194.000
  22915978.731     -481708.33849   -381665.63846  22915979.088    22915988.100
       221.000         169.000
  22670172.363     -497389.01949   -396684.35246  22670172.296    22670178.749
       222.000         171.000
  21199643.855     -429170.72149   -485355.28547  21199643.462    21199651.508
       236.000         196.000
  22894688.770     -702753.63349   -550016.43146  22894688.247    22894696.851
       221.000         171.000
  20236677.306     -810978.27149   -631218.53548  20236677.170    20236682.898
       240.000         214.000
  24481045.011     -219463.41749   -249354.60445  24481044.955    24481056.153
       209.000         143.000
  24148658.731     -410151.18949   -332240.19645  24148659.121    24148667.701
       211.000         142.000
 03  6  3 21 41  0.0000000  0  8G23G 3G18G15G31G14G21G 9
  21651861.606     -687719.01549   -579826.15547  21651861.168    21651868.934
       236.000         196.000
  22927502.693     -421149.87749   -334477.31246  22927502.690    22927512.197
       222.000         169.000
  22681228.455     -439289.09049   -351411.70246  22681228.672    22681235.395
       224.000         170.000
  21213152.616     -358182.10449   -430039.51747  21213152.170    21213160.565
       235.000         196.000
  22899626.595     -676805.17749   -529796.90446  22899627.088    22899635.125
       223.000         171.000
  20238220.360     -802869.98549   -624900.38448  20238220.352    20238225.982
       240.000         214.000
  24501380.012     -112602.58649   -166086.75245  24501379.908    24501391.964
       207.000         144.000
  24162630.796     -336729.59449   -275028.60845  24162631.398    24162640.582
       208.000         145.000
 03  6  3 21 41 30.0000000  0  8G23G 3G18G15G31G14G21G 9
  21656442.402     -663647.00149   -561068.75147  21656441.757    21656449.211
       236.000         196.000
  22939085.452     -360282.57449   -287048.34846  22939085.591    22939094.721
       222.000         169.000
  22692304.373     -381085.35749   -306058.19246  22692304.205    22692311.552
       223.000         170.000
  21226741.611     -286771.67049   -374395.06647  21226741.283    21226749.254
       236.000         196.000
  22904657.303     -650368.98049   -509197.31746  22904656.736    22904665.888
       222.000         171.000
  20239850.493     -794303.83249   -618225.45848  20239850.203    20239856.102
       240.000         214.000
  24521744.126       -5589.10549    -82699.97545  24521744.629    24521755.051
       206.000         143.000
  24176690.169     -262848.23349   -217458.76245  24176691.515    24176700.554
       208.000         145.000
 03  6  3 21 42  0.0000000  0  8G23G 3G18G15G31G14G21G 9
  21661040.149     -639485.64949   -542241.73147  21661039.584    21661047.491
       235.000         195.000
  22950726.348     -299109.83249   -239381.36646  22950726.802    22950735.617
       222.000         169.000
  22703399.959     -322778.08049   -260623.98246  22703400.063    22703406.771
       223.000         170.000
  21240410.545     -214941.16149   -318423.28247  21240410.170    21240418.224
       236.000         196.000
  22909780.360     -623447.40549   -488219.51346  22909779.889    22909788.615
       222.000         171.000
  20241567.353     -785281.60049   -611195.14548  20241567.235    20241572.839
       240.000         214.000
  24542136.977      101574.57249       803.83345  24542136.063    24542149.460
       199.000         140.000
  24190836.302     -188510.00349   -159532.90345  24190837.102    24190845.323
       206.000         142.000
 03  6  3 21 42 30.0000000  0  7G23G 3G18G15G31G14G 9
  21665655.584     -615231.41549   -523342.34247  21665654.979    21665662.671
       235.000         195.000
  22962425.439     -237631.19149   -191476.02746  22962425.574    22962435.311
       222.000         168.000
  22714515.844     -264363.82449   -215106.41146  22714515.588    22714523.068
       223.000         169.000
  21254159.792     -142688.58049   -262122.61247  21254159.522    21254167.739
       235.000         196.000
  22914996.108     -596038.83049   -466862.22346  22914995.918    22915004.760
       223.000         171.000
  20243371.423     -775801.26849   -603807.87648  20243371.326    20243377.055
       240.000         214.000
  24205069.617     -113713.92749   -101250.31345  24205070.588    24205078.107
       206.000         141.000
 03  6  3 21 43  0.0000000  0  7G23G 3G18G15G31G14G 9
  21670288.573     -590884.97149   -504371.10047  21670288.481    21670295.816
       235.000         195.000
  22974181.994     -175850.32249   -143335.17946  22974181.905    22974191.558
       222.000         168.000
  22725651.901     -205843.47049   -169506.18046  22725651.349    22725658.615
       223.000         169.000
  21267988.951      -70016.10249   -205494.75147  21267988.648    21267997.009
       236.000         195.000
  22920303.964     -568146.14849   -445127.71246  22920304.254    22920312.199
       223.000         171.000
  20245262.282     -765865.08249   -596065.38948  20245262.327    20245267.777
       240.000         214.000
  24219389.500      -38463.26449    -42613.48245  24219388.676    24219399.246
       205.000         140.000
 03  6  3 21 43 30.0000000  0  7G23G 3G18G15G31G14G 9
  21674938.585     -566449.11849   -485330.18847  21674938.233    21674945.797
       235.000         195.000
  22985994.904     -113773.25249    -94963.52646  22985994.987    22986004.616
       222.000         168.000
  22736807.620     -147220.22349   -123825.76946  22736807.406    22736814.127
       223.000         169.000
  21281897.228        3072.06349   -148542.97747  21281896.709    21281904.941
       235.000         195.000
  22925702.991     -539774.30049   -423019.81246  22925703.156    22925712.317
       222.000         170.000
  20247238.979     -755477.66249   -587971.29448  20247238.888    20247244.536
       240.000         214.000
  24233794.688       37236.40749     16373.20745  24233794.063    24233804.413
       205.000         140.000
 03  6  3 21 44  0.0000000  0  7G23G 3G18G15G31G14G 9
  21679605.833     -541922.69949   -466218.69747  21679605.282    21679612.960
       235.000         195.000
  22997863.939      -51401.68749    -46362.40346  22997863.830    22997873.990
       222.000         168.000
  22747983.078      -88492.90649    -78064.26546  22747983.159    22747989.923
       222.000         169.000
  21295884.498       76575.43249    -91267.66947  21295884.336    21295892.304
       235.000         195.000
  22931193.031     -510924.26649   -400539.31146  22931192.626    22931200.967
       222.000         170.000
  20249301.469     -744639.54849   -579526.00748  20249301.280    20249307.043
       240.000         214.000
  24248285.103      113383.82849     75708.80345  24248286.121    24248293.788
       207.000         141.000
 03  6  3 21 44 30.0000000  0  8G11G23G 3G18G15G31G14G 9
  24625026.881    -1055433.42349   -798579.12345  24625024.330    24625034.434
       210.000         132.000
  21684290.408     -517305.00449   -447036.07947  21684290.348    21684297.732
       236.000         194.000
  23009788.619       11262.04549      2466.38646  23009788.855    23009798.150
       221.000         167.000
  22759178.454      -29661.10549    -32221.33546  22759178.908    22759185.661
       222.000         169.000
  21309950.671      150493.24249    -33669.41647  21309950.268    21309958.361
       235.000         194.000
  22936773.779     -481597.50149   -377687.31646  22936774.461    22936781.776
       222.000         170.000
  20251449.517     -733351.66349   -570730.24748  20251449.383    20251455.052
       240.000         214.000
  24262860.391      189976.89049    135391.64445  24262860.861    24262868.745
       207.000         140.000
 03  6  3 21 45  0.0000000  0  8G11G23G 3G18G15G31G14G 9
  24606025.863    -1155286.81249   -876386.88545  24606024.863    24606032.109
       211.000         136.000
  21688992.418     -492596.02249   -427782.33647  21688991.993    21688999.822
       235.000         194.000
  23021768.158       74214.40349     51520.07346  23021768.801    23021777.873
       222.000         167.000
  22770393.704       29274.96049     13702.83246  22770393.455    22770400.892
       222.000         169.000
  21324095.344      224823.63349     24250.33147  21324094.596    21324103.348
       234.000         194.000
  22942444.820     -451796.27749   -354465.62946  22942445.276    22942453.062
       221.000         170.000
  20253682.822     -721615.76249   -561585.38448  20253682.477    20253688.393
       240.000         214.000
  24277519.895      267012.63549    195419.46545  24277519.543    24277529.652
       208.000         141.000
 03  6  3 21 45 30.0000000  0  8G11G23G 3G15G31G14G 9G18
  24587040.549    -1255053.08149   -954126.80045  24587039.337    24587047.882
       211.000         138.000
  21693710.525     -467802.43449   -408462.66747  21693710.037    21693717.561
       235.000         194.000
  23033800.875      137445.88949    100791.26746  23033801.031    23033810.371
       221.000         168.000
  21338316.917      299558.28549     82485.08147  21338316.481    21338324.594
       234.000         194.000
  22948204.506     -421529.39249   -330881.08546  22948203.809    22948212.279
       221.000         169.000
  20255999.714     -709440.45449   -552098.12648  20255999.483    20256005.187
       240.000         214.000
  24292261.885      344481.65849    255784.86745  24292261.747    24292271.591
       207.000         142.000
                   -694974.69349   -549582.91543
       221.000          74.000
 03  6  3 21 46  0.0000000  0  8G11G23G 3G15G31G14G 9G18
  24568074.442    -1354719.54349  -1031788.91145  24568073.417    24568082.090
       210.000         139.000
  21698446.729     -442913.52049   -389068.71247  21698446.338    21698453.828
       235.000         194.000
  23045888.111      200964.18649    150285.94146  23045887.734    23045897.868
       220.000         167.000
  21352617.230      374706.67449    141042.22047  21352617.031    21352624.833
       234.000         193.000
  22954054.402     -390788.32949   -306927.05546  22954054.229    22954062.875
       221.000         170.000
  20258401.982     -696816.58349   -542261.33948  20258401.540    20258407.507
       240.000         214.000
  24307087.837      422391.95849    316494.11245  24307087.324    24307097.399
       208.000         141.000
                   -635833.32649   -503499.03145                  22792888.042
       222.000         157.000
 03  6  3 21 46 30.0000000  0  8G11G23G 3G15G31G14G 9G18
  24549127.740    -1454284.60549  -1109372.01245  24549128.002    24549135.045
       211.000         138.000
  21703201.110     -417929.17849   -369600.39747  21703200.477    21703208.103
       234.000         194.000
  23058029.302      264766.30849    200001.78646  23058029.928    23058038.565
       220.000         166.000
  21366996.043      450267.43149    199920.69447  21366995.647    21367003.629
       234.000         193.000
  22959994.081     -359575.34449   -282605.28846  22959993.867    22960001.947
       220.000         169.000
  20260889.294     -683745.67749   -532076.20948  20260889.098    20260894.905
       240.000         214.000
  24321997.154      500740.89249    377545.18145  24321997.651    24322006.583
       208.000         141.000
  22804157.136     -576583.82149   -457330.61746  22804155.931    22804163.564
       222.000         166.000
 03  6  3 21 47  0.0000000  0  8G11G23G 3G15G31G14G 9G18
  24530200.802    -1553746.37549  -1186874.65045  24530200.546    24530207.205
       212.000         138.000
  21707973.684     -392849.36249   -350057.69147  21707973.293    21707980.999
       235.000         194.000
  23070223.848      328848.68149    249935.99546  23070224.436    23070232.953
       219.000         165.000
  21381452.908      526238.60949    259118.97447  21381452.508    21381460.944
       234.000         193.000
  22966023.097     -327892.73649   -257917.59146  22966023.323    22966031.597
       221.000         169.000
  20263461.283     -670229.88649   -521544.42048  20263461.048    20263466.896
       240.000         213.000
  24336989.470      579525.86549    438936.00245  24336989.793    24337000.027
       208.000         141.000
  22815451.652     -517226.72049   -411078.36146  22815451.961    22815458.344
       223.000         167.000
 03  6  3 21 47 30.0000000  0  8G11G23G 3G15G31G14G 9G18
  24511294.287    -1653101.10849  -1264293.86945  24511293.355    24511301.673
       210.000         139.000
  21712764.725     -367672.46749   -330439.33447  21712764.696    21712771.851
       235.000         194.000
  23082471.528      393210.18749    300087.72346  23082471.857    23082480.908
       219.000         165.000
  21395987.964      602620.23549    318637.08647  21395987.856    21395995.579
       234.000         193.000
  22972141.456     -295741.04749   -232864.37146  22972141.967    22972149.549
       222.000         169.000
  20266117.879     -656269.32749   -510666.05448  20266117.659    20266123.490
       240.000         213.000
  24352064.623      658745.54649    500665.55445  24352063.987    24352074.428
       206.000         141.000
  22826768.045     -457760.33849   -364740.94546  22826767.478    22826774.534
       221.000         167.000
 03  6  3 21 48  0.0000000  0  7G11G23G 3G15G31G14G18
  24492408.421    -1752346.80449  -1341628.13145  24492407.479    24492416.191
       207.000         140.000
  21717574.309     -342398.11949   -310745.03947  21717573.876    21717581.218
       234.000         194.000
  23094771.801      457848.05249    350454.78746  23094771.742    23094782.290
       219.000         165.000
  21410600.765      679410.76649    378473.81847  21410600.700    21410608.579
       234.000         192.000
  22978348.652     -263122.28649   -207447.19146  22978348.780    22978357.414
       221.000         169.000
  20268858.923     -641865.15049   -499442.01648  20268858.811    20268864.506
       240.000         213.000
  22838105.055     -398184.38749   -318318.16346  22838104.879    22838111.917
       221.000         167.000
 03  6  3 21 48 30.0000000  0  7G11G23G 3G15G31G14G18
  24473543.308    -1851482.83149  -1418876.91945  24473543.398    24473550.880
       206.000         136.000
  21722402.163     -317027.64749   -290975.84347  21722402.184    21722409.502
       235.000         194.000
  23107123.797      522757.64249    401033.57546  23107123.491    23107133.110
       219.000         165.000
  21425290.761      756607.07349    438626.73347  21425290.350    21425298.404
       234.000         192.000
  22984644.001     -230040.27349   -181669.05946  22984644.152    22984651.902
       221.000         168.000
  20271683.763     -627020.71649   -487874.91748  20271683.546    20271689.250
       240.000         213.000
  22849462.595     -338500.56449   -271811.31046  22849462.936    22849469.876
       222.000         167.000
 03  6  3 21 49  0.0000000  0  7G11G23G 3G15G31G14G18
  24454698.790    -1950510.85549  -1496041.54745  24454699.224    24454705.900
       203.000         136.000
  21727247.757     -291564.18849   -271134.19247  21727247.400    21727254.987
       235.000         194.000
  23119526.244      587932.55049    451819.10246  23119527.254    23119536.909
       220.000         166.000
  21440057.132      834204.39449    499092.13947  21440056.628    21440065.016
       234.000         192.000
  22991026.503     -196500.45449   -155534.18746  22991026.464    22991035.164
       221.000         169.000
  20274591.396     -611741.03449   -475968.66748  20274591.203    20274596.872
       240.000         213.000
  22860839.949     -278712.43949   -225223.18146  22860839.550    22860846.658
       221.000         166.000
 03  6  3 21 49 30.0000000  0  7G11G23G 3G15G31G14G18
  24435875.420    -2049427.93749  -1573119.72945  24435874.866    24435883.315
       206.000         139.000
  21732111.112     -266007.01749   -251219.51547  21732110.603    21732118.196
       234.000         194.000
  23131978.854      653370.43149    502809.55346  23131979.044    23131988.363
       220.000         166.000
  21454899.557      912201.80949    559869.30647  21454898.723    21454907.014
       233.000         192.000
  22997495.797     -162504.52549   -129043.90646  22997495.685    22997504.976
       221.000         168.000
  20277581.619     -596027.51049   -463724.35848  20277581.363    20277587.056
       240.000         213.000
  22872237.226     -218819.24649   -178553.18746  22872237.000    22872244.452
       221.000         165.000
 03  6  3 21 50  0.0000000  0  8G11G23G 3G25G15G31G14G18
  24417073.539    -2148231.81149  -1650109.67745  24417072.962    24417080.931
       202.000         138.000
  21736992.467     -240355.37849   -231231.23347  21736992.393    21736999.645
       234.000         194.000
  23144480.923      719068.67449    554002.89046  23144480.689    23144490.746
       219.000         166.000
  23157720.955     -984988.10149   -754940.74345  23157721.353    23157731.435
       218.000         161.000
  21469818.005      990598.31149    620957.44347  21469817.685    21469825.743
       234.000         192.000
  23004051.578     -128054.12649   -102199.50246  23004051.397    23004059.898
       221.000         168.000
  20280654.203     -579881.09449   -451142.73048  20280653.995    20280659.659
       240.000         213.000
  22883654.592     -158820.56049   -131801.00246  22883654.835    22883661.195
       221.000         165.000
 03  6  3 21 50 30.0000000  0  8G11G23G 3G25G15G31G14G18
  24398293.746    -2246919.81949  -1727009.34945  24398292.733    24398301.234
       205.000         138.000
  21741891.924     -214608.80449   -211168.97747  21741891.572    21741899.101
       234.000         194.000
  23157031.978      785024.65749    605397.04946  23157031.950    23157042.125
       218.000         165.000
  23139284.963    -1081876.11549   -830437.73646  23139283.847    23139293.966
       220.000         164.000
  21484812.160     1069392.83649    682355.72847  21484811.564    21484819.917
       233.000         192.000
  23010693.406      -93151.05949    -75002.36446  23010692.279    23010700.943
       220.000         167.000
  20283808.961     -563302.89049   -438224.63948  20283808.711    20283814.259
       240.000         213.000
  22895092.176      -98715.80249    -84966.14446  22895092.158    22895099.077
       221.000         164.000
 03  6  3 21 51  0.0000000  0  8G11G23G 3G25G15G31G14G18
  24379536.240    -2345490.87349  -1803817.90345  24379536.728    24379543.258
       206.000         139.000
  21746809.301     -188767.95249   -191033.25447  21746808.947    21746816.399
       234.000         193.000
  23169631.345      851234.56849    656989.06146  23169631.388    23169641.609
       217.000         164.000
  23120872.712    -1178632.57549   -905832.21446  23120871.404    23120881.605
       220.000         165.000
  21499881.527     1148582.53749    744061.94147  21499880.662    21499889.203
       233.000         191.000
  23017420.857      -57798.62549    -47455.06246  23017420.731    23017429.581
       219.000         167.000
  20287045.310     -546295.88849   -424972.41748  20287045.061    20287050.767
       240.000         213.000
  22906549.787      -38506.14549    -38049.54646  22906549.296    22906556.673
       221.000         164.000
 03  6  3 21 51 30.0000000  0  8G11G23G 3G25G15G31G14G18
  24360801.610    -2443941.81449  -1880532.85245  24360802.068    24360809.702
       207.000         142.000
  21751744.954     -162831.19749   -170822.80247  21751744.641    21751752.165
       235.000         193.000
  23182278.765      917696.60249    708777.54746  23182279.182    23182289.297
       218.000         164.000
  23102486.125    -1275253.32249   -981120.94546  23102485.582    23102495.733
       219.000         166.000
  21515025.941     1228166.94749    806075.71947  21515025.458    21515034.005
       233.000         191.000
  23024233.474      -21997.77849    -19558.36246  23024233.545    23024241.813
       220.000         166.000
  20290363.188     -528860.41049   -411386.32748  20290362.894    20290368.590
       240.000         213.000
  22918027.623       21809.87149      8949.91146  22918028.079    22918034.699
       221.000         163.000
 03  6  3 21 52  0.0000000  0  8G11G23G 3G25G15G31G14G18
  24342090.471    -2542269.03249  -1957151.41745  24342090.371    24342097.830
       207.000         143.000
  21756699.162     -136796.71549   -150536.19847  21756698.441    21756706.615
       236.000         193.000
  23194973.902      984409.20549    760761.28246  23194974.044    23194984.440
       219.000         164.000
  23084126.230    -1371734.32549  -1056300.78046  23084125.722    23084135.502
       219.000         166.000
  21530245.606     1308146.20649    868397.17247  21530245.381    21530253.386
       233.000         191.000
  23031131.383       14250.76349      8687.19746  23031130.930    23031140.136
       217.000         166.000
  20293762.570     -510996.58149   -397466.45148  20293762.241    20293768.019
       240.000         213.000
  22929525.943       82233.49649     56033.23346  22929525.480    22929531.983
       219.000         163.000
 03  6  3 21 52 30.0000000  0  8G11G23G 3G25G15G31G14G18
  24323403.552    -2640469.47349  -2033671.16645  24323403.108    24323410.556
       206.000         143.000
  21761672.178     -110663.59849   -130172.73947  21761671.878    21761678.915
       235.000         193.000
  23207716.311     1051370.31049    812938.65646  23207716.482    23207726.293
       218.000         163.000
  23065793.553    -1468072.25049  -1131369.12546  23065793.473    23065803.034
       220.000         166.000
  21545540.209     1388519.44249    931025.61747  21545539.863    21545548.038
       233.000         190.000
  23038114.242       50945.63549     37280.54446  23038114.026    23038123.490
       218.000         165.000
  20297243.266     -492705.40049   -383213.57348  20297243.071    20297248.780
       240.000         213.000
  22941044.939      142765.94149    103201.34245  22941044.465    22941052.724
       218.000         161.000
 03  6  3 21 53  0.0000000  0  8G11G23G 3G25G15G31G14G18
  24304741.090    -2738541.00549  -2110090.46445  24304741.298    24304748.013
       208.000         144.000
  21766663.968      -84431.79749   -109732.37547  21766663.572    21766670.737
       235.000         193.000
  23220505.386     1118576.75449    865307.20445  23220505.089    23220515.484
       218.000         162.000
  23047488.640    -1564264.53249  -1206323.98446  23047488.086    23047497.993
       220.000         166.000
  21560909.416     1469284.82049    993959.63547  21560909.293    21560917.217
       233.000         190.000
  23045181.407       88084.17449     66219.60846  23045181.453    23045190.323
       219.000         165.000
  20300804.948     -473988.68349   -368629.11148  20300804.815    20300810.289
       241.000         213.000
  22952584.522      203406.93349    150454.03645  22952583.747    22952591.162
       218.000         160.000
 03  6  3 21 53 30.0000000  0  8G11G23G 3G25G15G31G14G18
  24286103.687    -2836481.83649  -2186407.93145  24286103.021    24286112.086
       212.000         147.000
  21771674.572      -58100.97049    -89214.85847  21771674.154    21771681.542
       235.000         193.000
  23233340.497     1186025.22249    917864.35046  23233340.883    23233350.589
       219.000         163.000
  23029212.060    -1660308.70249  -1281163.42746  23029212.168    23029220.909
       222.000         166.000
  21576352.969     1550440.88049   1057198.06547  21576352.412    21576360.650
       232.000         190.000
  23052332.744      125663.97549     95502.50946  23052332.432    23052341.504
       220.000         165.000
  20304447.207     -454848.55949   -353714.72448  20304446.964    20304452.636
       240.000         213.000
  22964144.811      264156.50549    197791.33445  22964145.873    22964151.466
       220.000         160.000
 03  6  3 21 54  0.0000000  0  8G11G23G 3G25G15G31G14G18
  24267491.427    -2934290.24449  -2262622.21245  24267491.335    24267498.753
       213.000         146.000
  21776704.015      -31671.24849    -68620.27447  21776703.832    21776711.068
       236.000         193.000
  23246221.087     1253712.51349    970607.58546  23246220.986    23246230.870
       220.000         164.000
  23010964.022    -1756202.37749  -1355885.60046  23010963.771    23010972.554
       221.000         167.000
  21591870.404     1631985.34349   1120739.16247  21591869.820    21591878.551
       232.000         190.000
  23059567.479      163682.38349    125127.18946  23059567.204    23059576.472
       219.000         165.000
  20308169.691     -435287.01149   -338471.95348  20308169.487    20308175.142
       240.000         213.000
  22975725.643      325014.09749    245212.81345  22975726.346    22975732.493
       219.000         161.000
 03  6  3 21 54 30.0000000  0  8G11G23G 3G25G15G31G14G18
  24248904.796    -3031964.43849  -2338731.93345  24248904.713    24248912.528
       215.000         147.000
  21781752.280       -5142.56449    -47948.57947  21781752.007    21781759.224
       235.000         192.000
  23259146.503     1321635.28749   1023534.30646  23259146.958    23259156.374
       219.000         163.000
  22992745.101    -1851943.03249  -1430488.54246  22992744.994    22992753.759
       222.000         167.000
  21607461.360     1713916.37449   1184581.47347  21607461.066    21607468.876
       233.000         189.000
  23066885.229      202136.92249    155091.70446  23066885.527    23066893.410
       219.000         164.000
  20311971.995     -415305.87449   -322902.22948  20311971.695    20311977.483
       240.000         213.000
  22987327.082      385979.72449    292718.46445  22987326.875    22987333.542
       219.000         161.000
 03  6  3 21 55  0.0000000  0  8G11G23G 3G25G15G31G14G18
  24230344.101    -3129501.71349  -2414734.95945  24230343.932    24230350.736
       213.000         145.000
  21786819.555       21485.92749    -27199.10747  21786819.189    21786826.458
       235.000         192.000
  23272116.167     1389791.01249   1076642.55546  23272115.350    23272125.900
       219.000         163.000
  22974555.759    -1947527.73249  -1504969.96046  22974554.877    22974564.677
       222.000         167.000
  21623125.738     1796232.67449   1248723.99847  21623125.252    21623133.590
       232.000         189.000
  23074285.613      241025.67849    185394.57746  23074285.425    23074294.280
       219.000         164.000
  20315853.872     -394906.39849   -307006.52748  20315853.737    20315859.388
       240.000         213.000
  22998949.248      447053.96549    340308.75045  22998949.798    22998954.965
       219.000         161.000
 03  6  3 21 55 30.0000000  0  8G11G23G 3G25G15G31G14G18
  24211809.961    -3226899.48749  -2490629.28445  24211809.683    24211816.884
       214.000         144.000
  21791905.920       48214.78449     -6371.43047  21791905.768    21791912.887
       235.000         192.000
  23285129.764     1458177.34249   1129930.48346  23285129.280    23285139.926
       218.000         163.000
  22956396.663    -2042953.41849  -1579327.46246  22956396.627    22956405.703
       222.000         168.000
  21638863.182     1878932.94349   1313165.71647  21638862.527    21638871.233
       232.000         189.000
  23081768.183      280346.64049    216034.22846  23081768.005    23081776.322
       219.000         163.000
  20319815.065     -374090.11749   -290786.03848  20319814.745    20319820.543
       240.000         213.000
  23010592.065      508237.07349    387983.86045  23010591.519    23010598.659
       220.000         162.000
 03  6  3 21 56  0.0000000  0  8G11G23G 3G25G15G31G14G18
  24193302.603    -3324156.33849  -2566413.79245  24193302.745    24193309.830
       214.000         144.000
  21797011.333       75043.68749     14534.20747  21797010.693    21797018.152
       235.000         192.000
  23298186.474     1526790.24849   1183394.95945  23298186.711    23298196.438
       219.000         162.000
  22938268.388    -2138217.77149  -1653559.25846  22938268.207    22938277.024
       222.000         168.000
  21654673.139     1962014.85049   1377904.81747  21654672.622    21654681.062
       232.000         188.000
  23089332.436      320096.85449    247008.36946  23089332.907    23089341.206
       218.000         163.000
  20323855.154     -352859.35849   -274242.58248  20323854.898    20323860.627
       241.000         213.000
  23022255.502      569528.56349    435743.43645  23022255.304    23022262.289
       219.000         162.000
 03  6  3 21 56 30.0000000  0  8G11G23G 3G25G15G31G14G18
  24174822.622    -3421269.44449  -2642086.29045  24174821.979    24174830.168
       212.000         144.000
  21802136.037      101974.00449     35518.86047  21802135.496    21802142.868
       235.000         192.000
  23311285.905     1595627.71649   1237034.42445  23311285.993    23311296.179
       219.000         162.000
  22920171.410    -2233317.65749  -1727662.90946  22920169.977    22920179.942
       222.000         167.000
  21670555.670     2045477.64549   1442940.70747  21670554.937    21670563.728
       232.000         188.000
  23096978.109      360274.85549    278315.85045  23096977.915    23096986.999
       217.000         162.000
  20327973.915     -331215.15449   -257376.96048  20327973.597    20327979.357
       241.000         213.000
  23033939.744      630929.33149    483588.15046  23033939.146    23033946.835
       219.000         163.000
 03  6  3 21 57  0.0000000  0  8G11G23G 3G25G15G31G14G18
  24156370.400    -3518236.16549  -2717644.71645  24156370.623    24156377.435
       212.000         144.000
  21807280.060      129005.88149     56582.65447  21807279.425    21807287.377
       235.000         192.000
  23324427.437     1664686.39449   1290846.27145  23324427.995    23324437.351
       219.000         162.000
  22902106.218    -2328250.44849  -1801636.35146  22902105.802    22902115.031
       221.000         168.000
  21686510.288     2129319.69949   1508272.13047  21686509.652    21686518.268
       231.000         188.000
  23104704.660      400878.01249    309954.60945  23104704.766    23104713.271
       218.000         162.000
  20332171.032     -309159.33449   -240190.59748  20332170.901    20332176.480
       241.000         213.000
  23045644.684      692439.38649    531518.02845  23045645.052    23045652.531
       220.000         162.000
 03  6  3 21 57 30.0000000  0  8G11G23G 3G25G15G31G14G18
  24137946.403    -3615054.80049  -2793087.75945  24137946.817    24137953.131
       209.000         142.000
  21812443.478      156139.86449     77726.01147  21812442.930    21812450.465
       235.000         192.000
  23337610.588     1733963.79249   1344828.53945  23337610.438    23337621.165
       219.000         162.000
  22884073.281    -2423013.49549  -1875477.53646  22884073.076    22884082.229
       223.000         168.000
  21702536.805     2213539.25149   1573897.69946  21702536.467    21702544.998
       232.000         187.000
  23112511.744      441903.94849    341922.82245  23112511.541    23112520.142
       217.000         162.000
  20336446.142     -286693.43549   -222684.69348  20336445.941    20336451.673
       241.000         213.000
  23057370.569      754058.94649    579533.23745  23057370.175    23057376.888
       220.000         162.000
 03  6  3 21 58  0.0000000  0  8G11G23G 3G25G15G31G14G18
  24119551.081    -3711722.69749  -2868413.32945  24119550.653    24119559.919
       207.000         140.000
  21817626.420      183376.35149     98949.24547  21817625.982    21817633.267
       235.000         192.000
  23350834.820     1803456.98949   1398978.96245  23350835.333    23350844.265
       220.000         162.000
  22866073.120    -2517603.98549  -1949184.25446  22866072.367    22866081.901
       222.000         168.000
  21718634.888     2298134.66949   1639816.16146  21718634.692    21718642.838
       231.000         187.000
  23120398.753      483350.51849    374218.79045  23120398.811    23120407.348
       216.000         161.000
  20340798.981     -263819.33949   -204860.71348  20340798.838    20340804.360
       241.000         213.000
  23069117.294      815788.39749    627634.07446  23069117.332    23069124.247
       220.000         163.000
 03  6  3 21 58 30.0000000  0  8G11G23G 3G25G15G31G14G18
  24101184.780    -3808238.05549  -2943620.04045  24101184.617    24101190.745
       208.000         139.000
  21822828.957      210715.59049    120252.54647  21822828.700    21822836.000
       234.000         192.000
  23364099.536     1873162.77349   1453295.04545  23364100.490    23364109.423
       221.000         161.000
  22848106.459    -2612018.99049  -2022754.24246  22848105.985    22848115.745
       223.000         169.000
  21734804.106     2383103.93749   1706025.93546  21734803.519    21734812.174
       231.000         187.000
  23128365.330      525215.12149    406840.49845  23128365.376    23128374.685
       215.000         160.000
  20345229.132     -240539.03949   -186720.21048  20345228.931    20345234.430
       241.000         213.000
  23080884.867      877627.23649    675820.13746  23080884.966    23080892.774
       220.000         163.000
 03  6  3 21 59  0.0000000  0  8G11G23G 3G25G15G31G14G18
  24082847.826    -3904598.85649  -3018706.32745  24082847.182    24082855.936
       210.000         141.000
  21828050.985      238157.55349    141635.88447  21828050.455    21828057.787
       235.000         192.000
  23377404.088     1943077.72549   1507774.11945  23377404.590    23377414.791
       220.000         162.000
  22830173.574    -2706256.48249  -2096185.91946  22830172.850    22830182.691
       221.000         169.000
  21751043.981     2468444.97249   1772525.39646  21751043.696    21751051.590
       232.000         187.000
  23136410.984      567494.89049    439785.72045  23136410.306    23136419.919
       216.000         160.000
  20349736.107     -216854.57349   -168264.77248  20349735.861    20349741.498
       241.000         213.000
  23092673.268      939575.40949    724091.40946  23092673.735    23092680.270
       220.000         163.000
 03  6  3 21 59 30.0000000  0  8G11G23G 3G25G15G31G14G18
  24064540.966    -4000801.81749  -3093669.63545  24064541.674    24064547.507
       210.000         142.000
  21833292.915      265703.94549    163100.59847  21833292.266    21833299.670
       236.000         191.000
  23390747.998     2013199.99549   1562414.71945  23390748.352    23390758.125
       219.000         161.000
  22812275.231    -2800312.56349  -2169476.23746  22812274.581    22812284.479
       222.000         169.000
  21767354.532     2554157.37349   1839314.22446  21767354.054    21767362.629
       231.000         186.000
  23144535.423      610188.80449    473053.64245  23144535.162    23144543.716
       216.000         160.000
  20354319.953     -192766.38849   -149494.74848  20354319.508    20354325.449
       241.000         213.000
  23104482.810     1001634.45249    772449.05546  23104482.769    23104489.566
       220.000         163.000
 03  6  3 22  0  0.0000000  0  8G11G23G 3G25G15G31G14G18
  24046264.378    -4096845.30049  -3168508.63345  24046263.688    24046271.957
       208.000         143.000
  21838554.659      293354.42849    184646.42547  21838554.014    21838561.521
       235.000         191.000
  23404130.748     2083525.78949   1617213.91045  23404130.218    23404140.079
       218.000         160.000
  22794411.756    -2894185.04349  -2242623.48546  22794411.387    22794420.147
       222.000         170.000
  21783735.289     2640238.50149   1906390.37846  21783734.564    21783743.028
       231.000         186.000
  23152738.121      653293.49949    506641.66245  23152738.772    23152746.262
       216.000         161.000
  20358980.110     -168277.05749   -130412.14048  20358979.812    20358985.528
       241.000         213.000
  23116313.264     1063803.37149    820892.32446  23116313.179    23116320.506
       221.000         163.000
 03  6  3 22  0 30.0000000  0  8G11G23G 3G25G15G31G14G18
  24028018.754    -4192726.60149  -3243221.27945  24028018.859    24028025.632
       212.000         147.000
  21843836.318      321109.82549    206274.00147  21843835.757    21843843.191
       234.000         191.000
  23417551.668     2154052.71849   1672169.85345  23417551.806    23417562.343
       218.000         160.000
  22776583.768    -2987871.18249  -2315625.53946  22776583.569    22776592.395
       223.000         171.000
  21800186.031     2726687.49649   1973753.17246  21800185.825    21800194.381
       232.000         186.000
  23161018.462      696806.96649    540548.20545  23161017.661    23161026.727
       216.000         160.000
  20363716.323     -143388.01349   -111018.07048  20363716.083    20363721.878
       241.000         214.000
  23128164.718     1126082.96449    869421.82346  23128164.275    23128171.784
       219.000         163.000
 03  6  3 22  1  0.0000000  0  8G11G23G 3G25G15G31G14G18
  24009804.341    -4288443.66649  -3317805.93745  24009803.859    24009811.098
       214.000         150.000
  21849138.084      348970.66849    227983.74247  21849137.827    21849144.948
       235.000         192.000
  23431010.263     2224777.88449   1727280.23745  23431010.839    23431021.235
       217.000         160.000
  22758791.822    -3081368.06549  -2388480.11746  22758791.367    22758800.219
       223.000         171.000
  21816706.467     2813502.54149   2041401.20946  21816706.039    21816714.774
       232.000         186.000
  23169376.141      740726.85549    574771.44845  23169375.395    23169385.056
       215.000         160.000
  20368528.291     -118101.05649    -91313.93848  20368528.051    20368533.532
       241.000         214.000
  23140037.265     1188473.41049    918037.71546  23140036.566    23140043.850
       220.000         163.000
 03  6  3 22  1 30.0000000  0  8G11G23G 3G25G15G31G14G18
  23991621.665    -4383993.81949  -3392260.54845  23991621.746    23991628.988
       214.000         152.000
  21854460.053      376937.39349    249775.98247  21854459.622    21854467.188
       235.000         192.000
  23444505.990     2295698.35849   1782542.81045  23444506.476    23444516.705
       218.000         159.000
  22741036.322    -3174672.94649  -2461185.09446  22741035.169    22741044.694
       223.000         171.000
  21833296.221     2900681.79349   2109333.04946  21833295.924    21833303.897
       232.000         185.000
  23177810.746      785050.79449    609309.51845  23177810.626    23177819.131
       217.000         161.000
  20373415.631      -92418.00649    -71301.16248  20373415.208    20373420.994
       241.000         214.000
  23151930.922     1250974.92949    966740.15346  23151929.842    23151938.013
       220.000         163.000
 03  6  3 22  2  0.0000000  0  8G11G23G 3G25G15G31G14G18
  23973471.255    -4479375.10349  -3466583.56045  23973471.801    23973478.551
       216.000         155.000
  21859802.146      405010.23749    271650.92347  21859802.014    21859809.125
       235.000         191.000
  23458038.405     2366810.90749   1837955.05545  23458038.898    23458048.519
       218.000         159.000
  22723317.904    -3267783.15049  -2533738.36746  22723318.094    22723326.110
       224.000         172.000
  21849954.797     2988223.02549   2177546.94946  21849954.551    21849962.678
       232.000         185.000
  23186321.747      829775.89649    644160.19345  23186321.733    23186330.699
       217.000         162.000
  20378377.998      -66340.80349    -50981.25348  20378377.883    20378383.467
       242.000         214.000
  23163845.764     1313587.33249   1015528.99446  23163846.203    23163853.456
       220.000         163.000
 03  6  3 22  2 30.0000000  0  8G11G23G 3G25G15G31G14G18
  23955353.301    -4574585.77849  -3540773.63445  23955352.974    23955360.489
       218.000         156.000
  21865164.479      433189.43849    293608.73347  21865164.012    21865171.300
       235.000         191.000
  23471606.707     2438112.25749   1893514.43045  23471606.965    23471616.267
       218.000         159.000
  22705637.052    -3360696.31849  -2606138.10946  22705636.635    22705644.664
       223.000         172.000
  21866681.936     3076124.46949   2246041.52446  21866680.902    21866689.552
       231.000         184.000
  23194908.601      874899.63049    679321.49046  23194908.179    23194917.228
       217.000         163.000
  20383414.977      -39871.54449    -30355.84948  20383414.756    20383420.310
       241.000         214.000
  23175781.664     1376310.65849   1064404.27345  23175781.690    23175788.745
       220.000         162.000
 03  6  3 22  3  0.0000000  0  8G11G23G 3G25G15G31G14G18
  23937268.349    -4669622.96649  -3614828.52845  23937267.784    23937275.541
       217.000         157.000
  21870547.230      461475.79249    315650.04247  21870546.995    21870554.249
       236.000         191.000
  23485210.437     2509599.69749   1949218.79845  23485210.557    23485220.643
       218.000         160.000
  22687994.219    -3453409.25049  -2678381.82446  22687994.029    22688003.015
       224.000         173.000
  21883477.277     3164384.44949   2314815.48446  21883476.654    21883484.989
       230.000         184.000
  23203570.949      920419.75649    714791.65746  23203570.982    23203579.822
       219.000         163.000
  20388526.295      -13011.38149     -9425.84348  20388526.217    20388531.660
       242.000         214.000
  23187738.761     1439145.19449   1113366.19245  23187738.373    23187745.465
       219.000         162.000
 03  6  3 22  3 30.0000000  0  8G11G23G 3G25G15G31G14G18
  23919216.811    -4764484.19549  -3688746.31845  23919216.981    23919223.418
       216.000         157.000
  21875950.533      489870.10149    337775.46347  21875950.335    21875957.190
       235.000         191.000
  23498849.162     2581270.70449   2005066.20245  23498849.585    23498859.595
       218.000         160.000
  22670390.078    -3545919.32449  -2750467.46946  22670389.526    22670397.955
       224.000         173.000
  21900340.564     3253001.40649   2383867.60046  21900340.280    21900348.673
       230.000         184.000
  23212308.233      966333.94349    750568.88746  23212308.493    23212316.666
       220.000         164.000
  20393711.618       14237.51049     11807.06248  20393711.397    20393716.963
       241.000         214.000
  23199717.086     1502091.45949   1162415.16745  23199717.180    23199723.718
       218.000         161.000
 03  6  3 22  4  0.0000000  0  8G11G23G 3G25G15G31G14G18
  23901199.192    -4859167.35949  -3762525.35045  23901199.724    23901205.924
       215.000         156.000
  21881374.418      518372.68449    359985.25847  21881373.910    21881381.458
       234.000         191.000
  23512522.184     2653122.09049   2061054.17445  23512522.280    23512532.666
       216.000         160.000
  22652825.042    -3638223.76149  -2822392.86446  22652824.416    22652833.767
       224.000         174.000
  21917271.450     3341973.44049   2453196.39546  21917271.179    21917278.967
       230.000         183.000
  23221119.962     1012639.69249    786651.23246  23221119.483    23221128.977
       219.000         164.000
  20398970.571       41873.66149     33341.73248  20398970.297    20398975.949
       242.000         214.000
  23211716.660     1565149.59849   1211551.32245  23211717.063    23211723.218
       218.000         160.000
 03  6  3 22  4 30.0000000  0  8G11G23G 3G25G15G31G14G18
  23883215.883    -4953669.80549  -3836163.56445  23883216.493    23883222.519
       216.000         155.000
  21886819.022      546984.28649    382280.00147  21886818.561    21886826.045
       235.000         190.000
  23526228.911     2725151.11549   2117180.56945  23526229.360    23526239.399
       217.000         159.000
  22635299.705    -3730319.68649  -2894155.80346  22635299.898    22635308.996
       226.000         174.000
  21934269.613     3431299.12849   2522800.77946  21934268.932    21934277.406
       231.000         183.000
  23230005.803     1059334.64149    823036.84346  23230005.752    23230014.391
       219.000         164.000
  20404302.901       69895.33049     55176.80348  20404302.525    20404308.170
       242.000         214.000
  23223737.646     1628320.00949   1260774.97345  23223737.631    23223745.415
       217.000         159.000
 03  6  3 22  5  0.0000000  0  8G11G23G 3G25G15G31G14G18
  23865267.398    -5047989.72449  -3909659.54945  23865267.319    23865274.613
       217.000         155.000
  21892284.397      575704.98549    404659.76247  21892284.197    21892290.794
       235.000         190.000
  23539968.882     2797354.54949   2173442.86245  23539969.089    23539979.472
       215.000         157.000
  22617814.568    -3822204.80049  -2965754.47146  22617813.963    22617823.158
       226.000         175.000
  21951334.633     3520976.24849   2592678.99346  21951334.108    21951343.272
       230.000         182.000
  23238965.167     1106415.89849    859723.47746  23238964.540    23238974.059
       221.000         165.000
  20409708.224       98300.25749     77310.51448  20409707.873    20409713.456
       242.000         214.000
  23235779.927     1691602.36749   1310085.84645  23235780.054    23235787.387
       217.000         158.000
 03  6  3 22  5 30.0000000  0  8G11G23G 3G25G15G31G14G18
  23847354.262    -5142124.09949  -3983010.95745  23847354.390    23847362.121
       215.000         154.000
  21897770.821      604536.00449    427125.47647  21897770.099    21897777.924
       234.000         190.000
  23553741.531     2869730.00349   2229839.19145  23553741.464    23553752.239
       214.000         156.000
  22600370.142    -3913875.58749  -3037186.11946  22600370.029    22600378.657
       225.000         175.000
  21968466.349     3611003.80949   2662830.27646  21968466.287    21968474.180
       229.000         182.000
  23247997.688     1153881.43849    896709.55946  23247997.017    23248005.774
       220.000         164.000
  20415186.189      127087.27749     99741.95648  20415185.891    20415191.565
       242.000         214.000
  23247843.582     1754997.40649   1359484.52345  23247843.403    23247851.742
       217.000         158.000
 03  6  3 22  6  0.0000000  0  8G11G23G 3G25G15G31G14G18
  23829476.707    -5236070.77749  -4056216.10745  23829476.387    23829483.432
       211.000         151.000
  21903278.213      633477.48849    449677.26747  21903278.186    21903285.165
       234.000         190.000
  23567546.322     2942274.37849   2286367.15345  23567546.937    23567555.445
       215.000         155.000
  22582966.960    -4005329.50049  -3108448.78846  22582966.568    22582975.284
       226.000         175.000
  21985664.293     3701379.28149   2733252.65746  21985664.121    21985672.283
       229.000         182.000
  23257102.748     1201728.48149    933992.91146  23257102.853    23257111.464
       220.000         164.000
  20420736.558      156254.46249    122469.63148  20420736.428    20420741.920
       242.000         214.000
  23259928.741     1818505.09849   1408970.98345  23259928.337    23259935.480
       218.000         158.000
 03  6  3 22  6 30.0000000  0  8G11G23G 3G25G15G31G14G18
  23811635.283    -5329827.34749  -4129273.10945  23811636.427    23811642.483
       211.000         148.000
  21908806.842      662530.26749    472315.78347  21908806.599    21908814.045
       234.000         190.000
  23581382.777     3014984.70749   2343024.42145  23581382.868    23581393.404
       215.000         155.000
  22565605.502    -4096564.16449  -3179540.61346  22565604.777    22565613.459
       225.000         175.000
  22002928.193     3792101.39749   2803945.15246  22002927.910    22002936.675
       229.000         181.000
  23266279.898     1249954.70949    971571.72546  23266279.710    23266288.374
       220.000         163.000
  20426358.914      185799.96349    145492.09648  20426358.646    20426364.172
       242.000         214.000
  23272035.431     1882125.85849   1458545.53645  23272035.155    23272042.415
       217.000         157.000
 03  6  3 22  7  0.0000000  0  8G11G23G 3G25G15G31G14G18
  23793830.495    -5423391.78449  -4202180.41745  23793830.314    23793837.194
       210.000         146.000
  21914356.638      691694.63949    495041.25347  21914356.357    21914363.404
       234.000         190.000
  23595250.244     3087857.97549   2399808.65245  23595250.548    23595260.506
       216.000         156.000
  22548286.302    -4187576.61949  -3250459.29246  22548286.366    22548294.336
       225.000         175.000
  22020257.584     3883167.84549   2874905.95446  22020257.503    22020265.671
       229.000         181.000
  23275528.767     1298557.29849   1009443.81346  23275528.007    23275537.586
       220.000         163.000
  20432052.875      215721.68349    168807.71948  20432052.574    20432058.268
       242.000         214.000
  23284163.615     1945859.54949   1508208.09645  23284164.039    23284171.034
       215.000         155.000
 03  6  3 22  7 30.0000000  0  8G11G23G 3G25G15G31G14G18
  23776062.774    -5516761.44649  -4274935.94645  23776062.694    23776069.575
       208.000         143.000
  21919927.788      720971.29349    517854.21347  21919927.370    21919934.503
       235.000         190.000
  23609148.178     3160891.19249   2456717.53445  23609148.447    23609159.001
       214.000         155.000
  22531009.843    -4278364.29349  -3321202.81246  22531009.417    22531018.015
       226.000         175.000
  22037652.212     3974576.88849   2946133.71346  22037652.331    22037660.729
       228.000         181.000
  23284848.745     1347533.82749   1047607.26945  23284848.945    23284857.969
       221.000         162.000
  20437818.104      246018.07249    192415.29748  20437817.793    20437823.384
       242.000         214.000
  23296313.422     2009706.43249   1557958.85345  23296314.267    23296320.690
       217.000         156.000
 03  6  3 22  8  0.0000000  0  8G11G23G 3G25G15G31G14G18
  23758332.461    -5609934.29649  -4347538.10045  23758330.660    23758339.164
       209.000         141.000
  21925520.398      750360.56949    540754.93147  21925520.388    21925527.559
       234.000         190.000
  23623075.837     3234081.45649   2513748.77245  23623075.515    23623086.833
       214.000         156.000
  22513776.784    -4368924.22649  -3391768.88846  22513776.057    22513784.101
       225.000         176.000
  22055111.680     4066326.54549   3017626.89146  22055111.674    22055119.699
       228.000         181.000
  23294239.318     1396881.54449   1086059.97245  23294238.384    23294247.576
       219.000         161.000
  20443654.214      276687.02449    216313.18048  20443653.853    20443659.531
       242.000         214.000
  23308484.811     2073666.96449   1607798.16245  23308483.922    23308491.136
       215.000         155.000
 03  6  3 22  8 30.0000000  0  8G11G23G 3G25G15G31G14G18
  23740640.146    -5702907.79249  -4419984.93945  23740639.997    23740647.637
       211.000         142.000
  21931134.569      779863.02349    563743.83847  21931134.182    21931141.169
       234.000         190.000
  23637032.831     3307425.60849   2570899.92245  23637032.533    23637043.562
       213.000         156.000
  22496587.555    -4459254.17949  -3462155.74546  22496587.606    22496596.095
       226.000         177.000
  22072635.589     4158414.89549   3089383.97446  22072634.873    22072643.838
       228.000         180.000
  23303700.054     1446597.86249   1124799.88745  23303699.235    23303708.913
       220.000         161.000
  20449560.834      307726.42049    240499.72348  20449560.544    20449566.183
       242.000         214.000
  23320677.704     2137741.07249   1657725.97645  23320676.422    23320684.479
       217.000         154.000
 03  6  3 22  9  0.0000000  0  8G11G23G 3G25G15G31G14G18
  23722986.188    -5795679.97549  -4492274.91345  23722985.969    23722992.834
       215.000         144.000
  21936770.331      809479.07549    586821.26047  21936769.980    21936777.238
       233.000         189.000
  23651018.615     3380920.68149   2628168.67145  23651018.840    23651029.863
       214.000         157.000
  22479442.516    -4549351.49649  -3532361.33346  22479441.966    22479450.440
       226.000         177.000
  22090223.605     4250840.22949   3161403.64546  22090223.037    22090231.567
       229.000         180.000
  23313230.466     1496679.99349   1163824.85945  23313230.566    23313238.657
       219.000         161.000
  20455537.601      339134.60849    264973.63748  20455537.356    20455543.003
       242.000         214.000
  23332892.296     2201928.71449   1707742.26645  23332891.375    23332899.869
       215.000         153.000
 03  6  3 22  9 30.0000000  0  8G11G23G 3G25G15G31G14G18
  23705371.246    -5888247.64249  -4564405.53645  23705371.813    23705377.558
       217.000         147.000
  21942427.823      839209.75649    609988.00747  21942427.663    21942434.963
       233.000         189.000
  23665032.623     3454564.26449   2685553.14945  23665032.189    23665043.969
       216.000         157.000
  22462342.433    -4639212.53649  -3602382.81746  22462342.584    22462349.698
       227.000         177.000
  22107875.385     4343600.89749   3233684.62046  22107875.147    22107883.721
       228.000         180.000
  23322829.977     1547125.78249   1203133.19745  23322829.951    23322837.908
       218.000         160.000
  20461584.252      370910.11349    289733.76948  20461584.110    20461589.548
       242.000         214.000
  23345128.517     2266230.62849   1757847.56445  23345129.053    23345136.536
       215.000         152.000
 03  6  3 22 10  0.0000000  0  8G11G23G 3G25G15G31G14G18
  23687795.522    -5980609.05649  -4636375.43645  23687795.011    23687801.917
       217.000         151.000
  21948107.296      869055.42649    633244.35847  21948106.872    21948114.468
       234.000         189.000
  23679074.298     3528353.10249   2743050.80745  23679074.978    23679085.260
       216.000         157.000
  22445287.714    -4728835.45749  -3672218.74246  22445287.601    22445295.423
       227.000         177.000
  22125590.565     4436694.54949   3306225.05246  22125589.913    22125598.522
       227.000         180.000
  23332498.185     1597932.32249   1242722.63345  23332497.238    23332505.993
       220.000         159.000
  20467700.452      403050.83349    314778.48348  20467700.176    20467705.788
       242.000         214.000
  23357386.463     2330646.47749   1808041.68145  23357386.728    23357393.522
       216.000         151.000
 03  6  3 22 10 30.0000000  0  8G11G23G 3G25G15G31G14G18
  23670259.509    -6072761.51849  -4708182.50245  23670259.011    23670266.168
       218.000         155.000
  21953808.785      899016.84849    656590.89747  21953808.535    21953815.905
       233.000         189.000
  23693143.102     3602284.43249   2800659.49845  23693143.518    23693154.494
       216.000         156.000
  22428278.893    -4818217.26849  -3741866.79746  22428278.966    22428286.471
       228.000         178.000
  22143368.857     4530119.63449   3379023.74846  22143368.355    22143377.031
       228.000         179.000
  23342234.648     1649097.18549   1282591.29045  23342234.437    23342242.737
       219.000         158.000
  20473885.854      435555.10249    340106.48048  20473885.674    20473891.107
       242.000         214.000
  23369666.287     2395177.01549   1858325.14245  23369665.747    23369673.577
       216.000         152.000
 03  6  3 22 11  0.0000000  0  8G11G23G 3G25G15G31G14G18
  23652763.642    -6164702.98949  -4779825.18745  23652763.333    23652769.871
       220.000         157.000
  21959532.374      929094.23949    680027.80547  21959532.112    21959539.198
       233.000         189.000
  23707238.329     3676354.96249   2858376.65545  23707239.520    23707249.225
       215.000         156.000
  22411316.420    -4907355.31249  -3811324.90646  22411316.259    22411323.875
       227.000         178.000
  22161209.880     4623874.20749   3452079.20246  22161210.143    22161217.812
       228.000         179.000
  23352038.672     1700617.52849   1322736.94145  23352038.430    23352047.703
       218.000         158.000
  20480139.985      468420.69749    365716.03448  20480139.794    20480145.348
       242.000         214.000
  23381967.868     2459821.85049   1908697.67445  23381967.671    23381974.358
       216.000         151.000
 03  6  3 22 11 30.0000000  0  8G11G23G 3G25G15G31G14G18
  23635308.548    -6256430.39549  -4851301.07045  23635308.756    23635314.385
       221.000         158.000
  21965278.218      959288.56349    703555.82847  21965278.174    21965285.007
       233.000         188.000
  23721359.549     3750562.10249   2916200.24245  23721360.614    23721370.021
       214.000         156.000
  22394400.836    -4996246.90849  -3880590.97246  22394399.900    22394408.893
       228.000         179.000
  22179113.162     4717956.24149   3525389.80346  22179112.970    22179121.478
       227.000         179.000
  23361909.909     1752490.92749   1363157.68445  23361908.977    23361918.079
       218.000         157.000
  20486462.581      501646.09749    391605.95648  20486462.237    20486467.707
       242.000         213.000
  23394291.371     2524581.77049   1959159.89045  23394291.689    23394298.351
       216.000         152.000
 03  6  3 22 12  0.0000000  0  8G11G23G 3G25G15G31G14G18
  23617894.492    -6347942.17249  -4922608.91145  23617894.502    23617901.377
       221.000         161.000
  21971046.346      989600.06349    727175.16247  21971045.851    21971053.197
       234.000         188.000
  23735506.221     3824902.67049   2974127.80745  23735506.561    23735517.825
       214.000         156.000
  22377532.735    -5084888.94949  -3949662.57646  22377531.987    22377540.639
       227.000         179.000
  22197078.300     4812363.38849   3598953.73946  22197077.583    22197086.757
       226.000         179.000
  23371847.758     1804714.39749   1403851.20845  23371847.756    23371856.929
       219.000         157.000
  20492853.249      535229.28649    417774.67348  20492852.883    20492858.405
       241.000         213.000
  23406636.729     2589456.54449   2009711.58645  23406636.693    23406643.891
       215.000         152.000
 03  6  3 22 12 30.0000000  0  8G11G23G 3G25G15G31G14G18
  23600521.863    -6439235.89849  -4993746.84346  23600521.799    23600528.603
       220.000         163.000
  21976836.879     1020029.43449    750886.33747  21976836.643    21976844.206
       233.000         188.000
  23749677.685     3899373.82349   3032157.13245  23749677.660    23749688.586
       213.000         154.000
  22360712.513    -5173279.41149  -4018538.15846  22360711.921    22360720.826
       228.000         179.000
  22215105.036     4907094.07049   3672769.77446  22215104.973    22215113.715
       227.000         178.000
  23381851.786     1857285.43949   1444815.57945  23381851.771    23381861.391
       220.000         157.000
  20499311.601      569168.24949    444220.61648  20499311.252    20499316.827
       242.000         213.000
  23419004.050     2654446.66149   2060353.16745  23419004.241    23419011.718
       217.000         152.000
 03  6  3 22 13  0.0000000  0  8G11G23G 3G25G15G31G14G18
  23583191.299    -6530308.64549  -5064712.59146  23583191.067    23583198.335
       220.000         163.000
  21982649.985     1050577.59449    774690.08247  21982649.588    21982657.260
       233.000         188.000
  23763873.522     3973972.78349   3090286.04345  23763874.302    23763884.312
       214.000         154.000
  22343940.800    -5261415.22449  -4087215.29746  22343940.782    22343949.292
       228.000         180.000
  22233192.956     5002146.54649   3746836.57246  22233192.411    22233200.956
       227.000         177.000
  23391921.574     1910201.53349   1486048.83345  23391922.009    23391931.288
       220.000         158.000
  20505837.421      603461.51249    470942.63348  20505837.044    20505842.723
       242.000         213.000
  23431393.357     2719552.26549   2111084.75345  23431392.714    23431400.151
       217.000         152.000
 03  6  3 22 13 30.0000000  0  8G11G23G 3G25G15G31G14G18
  23565903.286    -6621157.79649  -5135504.10245  23565902.875    23565910.500
       218.000         162.000
  21988485.846     1081245.00649    798586.74647  21988485.558    21988492.957
       233.000         188.000
  23778093.169     4048696.73249   3148512.35945  23778093.578    23778104.331
       215.000         154.000
  22327218.094    -5349293.48649  -4155691.76846  22327218.029    22327226.005
       229.000         181.000
  22251341.821     5097518.84449   3821152.56546  22251341.727    22251350.156
       226.000         177.000
  23402056.433     1963460.01149   1527548.85745  23402056.284    23402065.211
       220.000         157.000
  20512430.286      638107.15949    497939.23748  20512429.990    20512435.566
       241.000         213.000
  23443804.662     2784773.96249   2161906.77945  23443804.992    23443811.326
       217.000         153.000
 03  6  3 22 14  0.0000000  0  8G11G23G 3G25G15G31G14G18
  23548658.251    -6711780.72749  -5206119.33645  23548657.883    23548665.441
       216.000         161.000
  21994344.668     1112032.97549    822577.35347  21994344.702    21994351.985
       233.000         188.000
  23792336.216     4123543.33049   3206834.25045  23792336.208    23792347.609
       215.000         154.000
  22310544.989    -5436911.01849  -4223965.06446  22310544.382    22310553.118
       229.000         181.000
  22269551.262     5193209.76449   3895716.83946  22269550.671    22269560.335
       226.000         177.000
  23412255.995     2017058.81549   1569314.08045  23412256.722    23412264.002
       219.000         157.000
  20519089.956      673103.81149    525209.34848  20519089.580    20519095.260
       241.000         213.000
  23456238.284     2850112.33049   2212819.72145  23456237.774    23456245.128
       215.000         153.000
 03  6  3 22 14 30.0000000  0  8G11G23G 3G25G15G31G14G18
  23531456.464    -6802176.17149  -5276557.29245  23531456.182    23531463.478
       216.000         160.000
  22000226.239     1142940.68949    846661.26247  22000225.731    22000233.103
       233.000         188.000
  23806601.837     4198508.54049   3265248.55145  23806601.563    23806612.810
       214.000         154.000
  22293921.655    -5524266.64349  -4292034.27446  22293921.369    22293929.530
       229.000         181.000
  22287820.754     5289215.88649   3970526.72246  22287820.473    22287828.577
       226.000         176.000
  23422519.580     2070993.90049   1611341.32945  23422518.828    23422527.842
       219.000         157.000
  20525815.794      708448.30649    552750.51148  20525815.604    20525821.012
       241.000         213.000
  23468693.712     2915566.10949   2263822.59545  23468693.821    23468701.428
       216.000         153.000
 03  6  3 22 15  0.0000000  0  8G11G23G 3G25G15G31G14G18
  23514298.369    -6892342.25749  -5346816.54245  23514297.950    23514305.489
       214.000         158.000
  22006130.625     1173968.30049    870838.60447  22006130.563    22006137.832
       232.000         188.000
  23820889.270     4273588.99149   3323752.65445  23820888.442    23820901.090
       212.000         152.000
  22277348.643    -5611357.92249  -4359897.50246  22277348.003    22277356.227
       228.000         181.000
  22306149.642     5385534.84249   4045580.36946  22306149.244    22306158.363
       226.000         176.000
  23432846.570     2125262.10449   1653628.15845  23432846.318    23432855.219
       218.000         157.000
  20532607.419      744138.37749    580560.95148  20532607.102    20532612.791
       241.000         213.000
  23481171.091     2981135.10449   2314915.24345  23481171.513    23481178.281
       217.000         154.000
 03  6  3 22 15 30.0000000  0  8G11G23G 3G25G15G31G14G18
  23497184.640    -6982275.35849  -5416894.25145  23497184.598    23497191.137
       217.000         158.000
  22012058.248     1205117.99849    895111.07447  22012057.700    22012065.471
       231.000         188.000
  23835198.282     4348783.07149   3382345.29145  23835198.376    23835209.740
       213.000         151.000
  22260826.716    -5698180.68549  -4427551.50746  22260825.871    22260834.780
       230.000         182.000
  22324537.988     5482165.77649   4120877.12646  22324537.614    22324545.613
       225.000         175.000
  23443236.640     2179862.10249   1696173.51545  23443236.195    23443245.358
       218.000         157.000
  20539464.662      780173.34749    608640.14148  20539464.495    20539469.969
       241.000         213.000
  23493670.802     3046820.88849   2366098.89445  23493670.400    23493677.869
       218.000         155.000
 03  6  3 22 16  0.0000000  0  8G11G23G 3G25G15G31G14G18
  23480115.598    -7071973.42249  -5486788.79945  23480116.394    23480122.366
       218.000         157.000
  22018009.138     1236390.21749    919479.02047  22018009.030    22018015.998
       231.000         188.000
  23849528.305     4424087.65549   3441024.03245  23849527.616    23849539.881
       212.000         151.000
  22244356.384    -5784732.54049  -4494994.40246  22244356.323    22244364.334
       230.000         182.000
  22342985.228     5579106.52049   4196415.27746  22342984.534    22342993.637
       225.000         175.000
  23453689.417     2234791.01349   1738975.17645  23453688.549    23453697.712
       220.000         157.000
  20546387.131      816551.21049    636986.52248  20546386.822    20546392.430
       241.000         213.000
  23506192.704     3112623.62349   2417373.66345  23506192.282    23506199.801
       215.000         155.000
 03  6  3 22 16 30.0000000  0  8G11G23G 3G25G15G31G14G18
  23463091.905    -7161433.70049  -5556498.09245  23463092.199    23463098.042
       217.000         156.000
  22023983.558     1267785.61749    943942.94547  22023982.904    22023990.495
       232.000         188.000
  23863878.941     4499499.94649   3499786.70745  23863879.490    23863890.204
       212.000         151.000
  22227938.085    -5871010.83149  -4562224.15146  22227937.739    22227945.315
       230.000         183.000
  22361491.094     5676355.16249   4272193.35646  22361490.572    22361499.958
       225.000         175.000
  23464204.232     2290046.02849   1782030.93945  23464204.010    23464213.304
       217.000         158.000
  20553374.454      853269.83549    665598.42547  20553374.085    20553379.820
       241.000         212.000
  23518736.848     3178543.28849   2468739.55445  23518736.138    23518744.398
       218.000         154.000
 03  6  3 22 17  0.0000000  0  8G11G23G 3G25G15G31G14G18
  23446113.757    -7250654.39349  -5626020.68345  23446112.914    23446120.687
       216.000         154.000
  22029981.358     1299304.06049    968502.75746  22029980.972    22029988.277
       232.000         187.000
  23878249.380     4575016.19249   3558630.37145  23878249.562    23878261.552
       212.000         151.000
  22211572.254    -5957013.84849  -4629239.39546  22211571.769    22211579.623
       229.000         183.000
  22380055.096     5773909.04649   4348209.28346  22380054.681    22380063.782
       225.000         174.000
  23474780.311     2345623.80149   1825338.19245  23474780.058    23474789.754
       216.000         158.000
  20560426.184      890326.95049    694474.08847  20560425.833    20560431.406
       240.000         212.000
  23531303.270     3244579.71049   2520196.42045  23531304.847    23531310.599
       218.000         155.000
 03  6  3 22 17 30.0000000  0  8G11G23G 3G25G15G31G14G18
  23429181.744    -7339632.25049  -5695354.04945  23429181.445    23429188.178
       218.000         154.000
  22036002.830     1330946.81149    993159.42146  22036002.693    22036009.725
       232.000         187.000
  23892639.053     4650633.85849   3617553.06245  23892638.191    23892650.494
       213.000         151.000
  22195259.308    -6042738.42149  -4696037.66246  22195258.922    22195267.581
       230.000         183.000
  22398676.896     5871766.80349   4424461.98746  22398676.799    22398685.284
       225.000         173.000
  23485417.454     2401522.14049   1868895.23345  23485416.934    23485425.894
       217.000         158.000
  20567542.157      927721.66649    723612.82047  20567541.977    20567547.473
       240.000         212.000
  23543892.153     3310733.76049   2571744.96245  23543891.903    23543899.146
       217.000         155.000
 03  6  3 22 18  0.0000000  0  8G11G23G 3G25G15G31G14G18
  23412296.488    -7428365.28649  -5764496.65445  23412297.134    23412302.808
       220.000         156.000
  22042047.966     1362714.24349   1017913.24546  22042047.708    22042055.192
       232.000         187.000
  23907047.541     4726350.27049   3676552.72545  23907047.445    23907058.358
       212.000         150.000
  22178999.976    -6128181.63449  -4762616.69746  22178999.408    22179007.912
       230.000         184.000
  22417356.046     5969925.97549   4500949.56546  22417355.698    22417364.881
       224.000         173.000
  23496115.036     2457737.90949   1912699.63245  23496114.788    23496122.806
       215.000         158.000
  20574721.886      965451.35349    753012.56647  20574721.737    20574727.227
       241.000         212.000
  23556503.282     3377005.25149   2623385.00145  23556503.572    23556510.429
       215.000         154.000
 03  6  3 22 18 30.0000000  0  8G11G23G 3G25G15G31G14G18
  23395458.209    -7516851.22449  -5833446.71945  23395457.971    23395465.426
       221.000         157.000
  22048117.020     1394607.26349   1042764.92346  22048116.557    22048123.883
       232.000         187.000
  23921474.297     4802162.39049   3735626.95245  23921474.328    23921486.084
       213.000         149.000
  22162794.702    -6213340.79449  -4828974.39246  22162794.307    22162801.751
       230.000         184.000
  22436092.237     6068384.86849   4577670.67546  22436091.917    22436100.543
       224.000         173.000
  23506872.494     2514268.63249   1956749.44445  23506872.241    23506882.625
       215.000         157.000
  20581964.995     1003513.95349    782671.72647  20581964.812    20581970.485
       241.000         212.000
  23569136.690     3443394.43949   2675116.75745  23569136.586    23569143.348
       215.000         153.000
 03  6  3 22 19  0.0000000  0  8G11G23G 3G25G15G31G14G18
  23378667.351    -7605087.85249  -5902202.51045  23378667.136    23378673.926
       221.000         157.000
  22054210.006     1426626.19849   1067714.72246  22054209.598    22054216.897
       230.000         187.000
  23935918.708     4878067.30749   3794773.48645  23935919.138    23935930.127
       211.000         147.000
  22146643.789    -6298213.81549  -4895109.12746  22146643.198    22146651.955
       231.000         184.000
  22454885.032     6167141.19949   4654623.56546  22454884.617    22454894.268
       223.000         172.000
  23517689.401     2571111.37849   2001042.38145  23517689.682    23517698.791
       213.000         157.000
  20589271.119     1041907.79549    812588.99047  20589270.994    20589276.393
       241.000         212.000
  23581792.556     3509901.29749   2726940.19945  23581792.235    23581799.311
       215.000         153.000
 03  6  3 22 19 30.0000000  0  8G11G23G 3G25G15G31G14G18
  23361924.531    -7693072.11049  -5970761.65645  23361923.637    23361931.215
       222.000         158.000
  22060327.215     1458772.20749   1092763.53346  22060327.313    22060334.378
       232.000         187.000
  23950380.121     4954062.52749   3853990.37745  23950380.856    23950391.705
       210.000         146.000
  22130547.966    -6382797.53849  -4961018.43946  22130548.330    22130555.861
       231.000         185.000
  22473734.072     6266193.27149   4731806.90546  22473733.618    22473742.384
       223.000         172.000
  23528565.173     2628263.70049   2045576.54045  23528564.774    23528574.455
       213.000         156.000
  20596639.986     1080631.27349    842763.12047  20596639.563    20596645.296
       241.000         212.000
  23594471.079     3576526.51549   2778855.88245  23594470.398    23594478.376
       215.000         153.000
 03  6  3 22 20  0.0000000  0  8G11G23G 3G25G15G31G14G18
  23345229.967    -7780802.41749  -6039122.91245  23345228.704    23345236.119
       221.000         158.000
  22066468.667     1491045.47049   1117911.50446  22066468.172    22066475.313
       231.000         187.000
  23964858.063     5030144.38049   3913274.79945  23964857.654    23964870.003
       210.000         146.000
  22114507.668    -6467089.52449  -5026700.41746  22114507.605    22114514.907
       230.000         185.000
  22492638.977     6365538.48649   4809218.67446  22492639.250    22492647.587
       224.000         172.000
  23539499.209     2685722.31649   2090349.37145  23539498.984    23539508.706
       211.000         156.000
  20604071.080     1119681.85149    873192.12947  20604070.879    20604076.387
       241.000         212.000
  23607171.925     3643269.85449   2830863.57445  23607171.765    23607178.459
       214.000         152.000
 03  6  3 22 20 30.0000000  0  8G11G23G 3G25G15G31G14G18
  23328584.260    -7868275.82149  -6107283.98545  23328582.848    23328589.930
       221.000         158.000
  22072634.546     1523447.03849   1143159.45246  22072634.093    22072641.115
       231.000         187.000
  23979352.153     5106310.66549   3972624.97945  23979351.960    23979364.318
       209.000         147.000
  22098523.376    -6551087.08349  -5092152.97846  22098522.971    22098530.454
       231.000         185.000
  22511599.317     6465175.21249   4886857.57646  22511599.834    22511607.441
       223.000         172.000
  23550491.160     2743484.83149   2135359.02045  23550491.324    23550500.330
       212.000         156.000
  20611564.147     1159058.17649    903874.96747  20611563.861    20611569.380
       240.000         212.000
  23619895.379     3710131.91549   2882963.79345  23619895.617    23619902.614
       214.000         151.000
 03  6  3 22 21  0.0000000  0  8G11G23G 3G25G15G31G14G18
  23311988.023    -7955489.81949  -6175242.92545  23311988.466    23311994.877
       224.000         160.000
  22078824.858     1555977.39049   1168507.75346  22078824.868    22078832.284
       231.000         186.000
  23993861.829     5182558.56449   4032038.74345  23993862.035    23993874.226
       211.000         148.000
  22082595.617    -6634787.77249  -5157374.20746  22082595.687    22082602.769
       231.000         185.000
  22530614.669     6565101.34949   4964722.01446  22530614.260    22530623.157
       224.000         172.000
  23561540.339     2801548.38649   2180603.23645  23561539.815    23561549.185
       211.000         156.000
  20619118.841     1198758.29249    934810.11047  20619118.511    20619124.045
       241.000         212.000
  23632641.445     3777112.70849   2935156.55245  23632640.813    23632650.266
       214.000         151.000
 03  6  3 22 21 30.0000000  0  8G11G23G 3G25G15G31G14G18
  23295441.468    -8042442.76049  -6242998.43945  23295441.691    23295447.457
       222.000         161.000
  22085039.728     1588636.46849   1193956.36046  22085039.535    22085047.388
       232.000         186.000
  24008386.166     5258884.12649   4091513.02445  24008386.260    24008398.411
       209.000         148.000
  22066724.707    -6718189.63849  -5222362.60146  22066724.495    22066731.539
       232.000         186.000
  22549684.618     6665313.99349   5042809.67746  22549683.909    22549693.646
       223.000         172.000
  23572646.176     2859909.46449   2226079.28245  23572646.496    23572655.955
       211.000         156.000
  20626734.568     1238779.01649    965995.07747  20626734.229    20626740.017
       241.000         212.000
  23645410.059     3844211.48249   2987441.23345  23645409.843    23645417.846
       213.000         150.000
 03  6  3 22 22  0.0000000  0  8G11G23G 3G25G15G31G14G18
  23278945.020    -8129132.07949  -6310548.53645  23278944.322    23278951.118
       223.000         162.000
  22091279.305     1621425.52149   1219506.24646  22091279.206    22091286.582
       231.000         186.000
  24022924.934     5335285.20749   4151046.14645  24022924.785    24022936.775
       209.000         147.000
  22050911.332    -6801289.37049  -5287115.56146  22050911.072    22050918.786
       232.000         186.000
  22568808.810     6765811.66049   5121119.44246  22568807.969    22568817.147
       225.000         171.000
  23583808.238     2918565.89149   2271785.46845  23583808.219    23583817.601
       211.000         155.000
  20634411.153     1279119.75549    997429.40847  20634410.925    20634416.539
       241.000         212.000
  23658201.384     3911429.54149   3039818.86545  23658201.958    23658209.302
       214.000         150.000
 03  6  3 22 22 30.0000000  0  8G11G23G 3G25G15G31G14G18
  23262499.298    -8215554.47249  -6377890.62945  23262498.787    23262505.211
       220.000         161.000
  22097543.761     1654345.36749   1245158.04246  22097543.699    22097550.722
       232.000         186.000
  24037477.676     5411759.12149   4210636.02745  24037478.300    24037489.508
       210.000         144.000
  22035155.923    -6884084.47749  -5351631.15746  22035155.539    22035163.543
       232.000         187.000
  22587986.789     6866592.28849   5199649.69746  22587986.263    22587995.862
       223.000         171.000
  23595025.918     2977514.74349   2317719.52445  23595025.194    23595035.168
       211.000         155.000
  20642148.296     1319778.57449   1029111.59347  20642148.148    20642153.693
       241.000         211.000
  23671015.338     3978767.25949   3092289.73645  23671014.967    23671023.869
       213.000         149.000
 03  6  3 22 23  0.0000000  0  8G11G23G 3G25G15G31G14G18
  23246104.754    -8301707.84549  -6445023.09345  23246104.427    23246112.260
       220.000         161.000
  22103833.304     1687396.89549   1270912.45146  22103832.715    22103840.345
       231.000         186.000
  24052043.703     5488303.05649   4270280.47745  24052043.747    24052055.145
       209.000         144.000
  22019458.949    -6966572.23849  -5415907.26046  22019458.706    22019466.771
       232.000         187.000
  22607218.283     6967653.87649   5278398.88046  22607217.979    22607227.285
       222.000         171.000
  23606298.742     3036753.34549   2363879.36045  23606298.650    23606308.138
       213.000         156.000
  20649945.592     1360753.36849   1061039.99147  20649945.450    20649950.973
       241.000         211.000
  23683852.086     4046224.62649   3144853.81545  23683852.860    23683859.470
       210.000         148.000
 03  6  3 22 23 30.0000000  0  8G11G23G 3G25G15G31G14G18
  23229761.865    -8387590.32149  -6511944.47145  23229762.590    23229768.230
       220.000         161.000
  22110147.843     1720580.01549   1296769.39246  22110147.304    22110154.790
       231.000         186.000
  24066622.366     5564913.68749   4329976.89345  24066622.504    24066634.096
       210.000         144.000
  22003820.850    -7048750.74149  -5479942.38947  22003820.992    22003828.498
       232.000         188.000
  22626502.645     7068993.70549   5357364.87546  22626502.608    22626510.851
       222.000         171.000
  23617626.025     3096278.28349   2410262.30845  23617625.198    23617634.995
       212.000         156.000
  20657802.526     1402041.63849   1093212.65747  20657802.171    20657807.778
       241.000         211.000
  23696711.511     4113800.84749   3197510.50245  23696711.348    23696718.282
       212.000         148.000
 03  6  3 22 24  0.0000000  0  8G11G23G 3G25G15G31G14G18
  23213471.020    -8473199.25649  -6578652.69945  23213470.609    23213478.181
       219.000         162.000
  22116487.708     1753896.11449   1322729.95346  22116487.494    22116494.822
       230.000         185.000
  24081213.130     5641588.52449   4389723.35845  24081212.773    24081225.295
       209.000         145.000
  21988242.197    -7130616.83149  -5543734.08047  21988241.557    21988249.858
       233.000         188.000
  22645839.736     7170610.34549   5436546.56146  22645838.832    22645847.945
       223.000         170.000
  23629007.359     3156087.27149   2456866.59545  23629007.538    23629017.357
       214.000         156.000
  20665718.803     1443641.99949   1125628.50947  20665718.551    20665724.172
       241.000         211.000
  23709593.768     4181497.00149   3250260.65945  23709592.651    23709600.574
       213.000         148.000
 03  6  3 22 24 30.0000000  0  8G11G23G 3G25G15G31G14G18
  23197232.688    -8558532.35449  -6645145.99646  23197232.590    23197239.386
       220.000         163.000
  22122852.914     1787345.37849   1348794.28346  22122852.538    22122859.983
       231.000         185.000
  24095815.651     5718324.35149   4449517.33845  24095816.084    24095827.620
       212.000         145.000
  21972723.414    -7212168.49249  -5607280.75747  21972723.370    21972730.917
       233.000         188.000
  22665229.017     7272501.04549   5515941.80446  22665228.988    22665237.515
       222.000         170.000
  23640442.201     3216177.11749   2503689.72845  23640442.043    23640451.563
       215.000         157.000
  20673694.075     1485552.24149   1158285.82347  20673693.900    20673699.394
       241.000         211.000
  23722498.736     4249312.86249   3303104.10245  23722498.296    23722507.120
       212.000         149.000
 03  6  3 22 25  0.0000000  0  8G11G23G 3G25G15G31G14G18
  23181047.305    -8643586.87349  -6711422.21346  23181046.376    23181053.571
       221.000         164.000
  22129243.668     1820928.93149   1374963.25746  22129243.394    22129250.892
       231.000         185.000
  24110429.221     5795118.62449   4509356.86445  24110430.216    24110442.289
       213.000         147.000
  21957265.070    -7293402.51949  -5670579.93447  21957265.052    21957272.613
       234.000         189.000
  22684670.055     7374664.02649   5595549.21846  22684669.570    22684678.257
       222.000         169.000
  23651930.063     3276545.30549   2550729.75845  23651930.209    23651939.128
       216.000         158.000
  20681728.038     1527770.74949   1191183.34847  20681727.738    20681733.495
       241.000         211.000
  23735426.525     4317248.98549   3356041.25345  23735426.006    23735432.599
       211.000         148.000
 03  6  3 22 25 30.0000000  0  8G11G23G 3G25G15G31G14G18
  23164915.346    -8728360.48849  -6777479.54946  23164915.922    23164921.350
       220.000         164.000
  22135660.086     1854647.06949   1401237.10546  22135659.792    22135667.725
       230.000         185.000
  24125053.340     5871968.13649   4569239.42345  24125053.823    24125065.190
       211.000         148.000
  21941867.525    -7374316.91849  -5733630.05447  21941867.052    21941875.009
       234.000         189.000
  22704162.458     7477096.82949   5675366.86846  22704162.345    22704171.199
       222.000         169.000
  23663470.254     3337188.66249   2597984.19745  23663471.290    23663479.536
       217.000         158.000
  20689820.174     1570295.31049   1224319.35947  20689819.826    20689825.503
       241.000         211.000
  23748377.275     4385305.58249   3409072.29545  23748378.240    23748384.733
       211.000         147.000
 03  6  3 22 26  0.0000000  0  8G11G23G 3G25G15G31G14G18
  23148837.247    -8812850.99949  -6843316.27946  23148836.824    23148843.558
       219.000         164.000
  22142102.144     1888500.21449   1427616.14646  22142101.822    22142109.081
       230.000         185.000
  24139687.347     5948870.00149   4629162.75645  24139687.742    24139699.376
       212.000         148.000
  21926531.268    -7454909.19649  -5796429.16447  21926531.168    21926539.011
       234.000         189.000
  22723705.911     7579797.38149   5755393.15646  22723705.396    22723714.332
       222.000         168.000
  23675062.265     3398104.14049   2645450.68645  23675061.596    23675072.233
       215.000         157.000
  20697970.138     1613123.59449   1257692.03547  20697969.864    20697975.538
       241.000         211.000
  23761350.939     4453482.42649   3462197.00445  23761350.709    23761359.178
       210.000         147.000
 03  6  3 22 26 30.0000000  0  8G11G23G 3G25G15G31G14G18
  23132813.595    -8897056.16549  -6908930.65546  23132813.846    23132820.168
       221.000         165.000
  22148570.046     1922489.25249   1454101.08146  22148569.664    22148576.915
       231.000         185.000
  24154331.005     6025821.34249   4689124.64845  24154331.344    24154343.422
       210.000         147.000
  21911256.788    -7535176.92249  -5858975.38147  21911256.443    21911263.988
       234.000         189.000
  22743299.913     7682763.65849   5835626.50546  22743300.011    22743308.255
       221.000         167.000
  23686705.411     3459289.02749   2693127.07945  23686705.535    23686714.726
       215.000         157.000
  20706177.578     1656253.99449   1291300.12447  20706177.282    20706182.993
       241.000         211.000
  23774347.458     4521779.64049   3515415.51845  23774347.252    23774354.978
       210.000         146.000
 03  6  3 22 27  0.0000000  0  8G11G23G 3G25G15G31G14G18
  23116844.654    -8980973.57149  -6974320.82046  23116845.101    23116850.791
       221.000         165.000
  22155063.964     1956614.80949   1480692.39146  22155063.769    22155071.232
       231.000         184.000
  24168983.391     6102819.24149   4749122.80745  24168983.401    24168994.375
       208.000         146.000
  21896044.561    -7615117.28449  -5921266.51047  21896044.374    21896051.658
       234.000         190.000
  22762943.843     7785993.12049   5916064.93746  22762942.623    22762952.387
       220.000         166.000
  23698399.256     3520740.21049   2741010.98745  23698399.030    23698408.637
       216.000         157.000
  20714442.175     1699684.52549   1325142.08647  20714441.960    20714447.386
       241.000         211.000
  23787367.198     4590197.45549   3568728.00545  23787366.789    23787374.972
       213.000         148.000
 03  6  3 22 27 30.0000000  0  8G11G23G 3G25G15G31G14G18
  23100931.027    -9064600.51149  -7039484.65246  23100931.398    23100937.084
       222.000         165.000
  22161584.106     1990877.93149   1507390.89446  22161584.344    22161591.290
       231.000         184.000
  24183644.063     6179861.32549   4809155.38645  24183644.301    24183656.355
       208.000         146.000
  21880895.208    -7694727.41149  -5983300.31647  21880894.902    21880902.301
       235.000         190.000
  22782637.531     7889484.08249   5996707.11246  22782637.099    22782645.998
       221.000         165.000
  23710143.386     3582455.31549   2789100.55345  23710143.759    23710152.875
       218.000         157.000
  20722763.645     1743413.89849   1359216.91247  20722763.329    20722768.852
       241.000         211.000
  23800409.849     4658736.26449   3622134.78645  23800410.159    23800416.669
       212.000         147.000
 03  6  3 22 28  0.0000000  0  8G11G23G 3G25G15G31G14G18
  23085073.060    -9147934.84749  -7104420.47646  23085073.366    23085079.302
       223.000         165.000
  22168130.510     2025279.04449   1534196.93346  22168130.313    22168137.628
       230.000         184.000
  24198312.684     6256944.54749   4869220.03345  24198312.697    24198325.551
       210.000         147.000
  21865809.084    -7774005.27749  -6045075.22547  21865808.656    21865816.327
       235.000         191.000
  22802380.594     7993234.22749   6077551.24746  22802380.530    22802389.763
       220.000         165.000
  23721937.188     3644431.16749   2837393.29845  23721936.155    23721946.807
       217.000         157.000
  20731141.432     1787439.50049   1393522.56447  20731141.090    20731146.722
       241.000         211.000
  23813475.481     4727396.25549   3675635.98545  23813476.253    23813482.943
       213.000         147.000
 03  6  3 22 28 30.0000000  0  8G11G23G 3G25G15G31G14G18
  23069271.239    -9230973.94849  -7169126.25746  23069270.706    23069277.985
       222.000         165.000
  22174703.230     2059818.99649   1561111.14746  22174703.053    22174710.119
       230.000         184.000
  24212988.646     6334066.06049   4929314.50045  24212989.007    24213000.660
       211.000         148.000
  21850786.713    -7852948.37749  -6106589.26747  21850786.535    21850793.911
       235.000         191.000
  22822172.578     8097241.33249   6158595.62346  22822171.959    22822181.488
       219.000         165.000
  23733779.968     3706664.88149   2885886.96145  23733780.086    23733789.680
       215.000         156.000
  20739575.277     1831759.66749   1428057.74547  20739575.061    20739580.657
       241.000         210.000
  23826564.269     4796177.60849   3729231.73745  23826564.533    23826571.450
       210.000         148.000
 03  6  3 22 29  0.0000000  0  8G11G23G 3G25G15G31G14G18
  23053526.072    -9313715.13449  -7233599.89046  23053525.576    23053532.228
       224.000         165.000
  22181302.571     2094498.76149   1588134.31046  22181302.474    22181309.771
       231.000         184.000
  24227671.360     6411223.49049   4989436.96245  24227671.792    24227683.824
       211.000         149.000
  21835828.494    -7931554.17749  -6167840.48447  21835828.421    21835835.869
       236.000         191.000
  22842013.034     8201503.40949   6239838.66446  22842012.943    22842022.130
       220.000         164.000
  23745671.329     3769153.94849   2934579.59545  23745671.114    23745680.990
       216.000         156.000
  20748064.825     1876372.46949   1462820.95647  20748064.524    20748070.252
       241.000         210.000
  23839676.028     4865080.59149   3782922.28845  23839676.645    23839683.475
       211.000         146.000
 03  6  3 22 29 30.0000000  0  8G11G23G 3G25G15G31G14G18
  23037838.088    -9396156.30249  -7297839.74746  23037838.216    23037844.204
       225.000         167.000
  22187928.596     2129318.71249   1615266.70646  22187928.247    22187935.573
       229.000         183.000
  24242360.287     6488413.50749   5049584.82045  24242359.853    24242372.337
       211.000         150.000
  21820934.913    -8009820.14349  -6228826.89547  21820934.252    21820942.725
       235.000         192.000
  22861901.551     8306017.91249   6321278.41246  22861900.935    22861910.252
       219.000         163.000
  23757610.686     3831895.10749   2983468.67145  23757610.409    23757620.424
       216.000         155.000
  20756609.731     1921276.04849   1497810.74647  20756609.508    20756615.157
       241.000         210.000
  23852811.087     4934105.05949   3836707.50045  23852811.242    23852818.649
       212.000         146.000
 03  6  3 22 30  0.0000000  0  8G11G23G 3G25G15G31G14G18
  23022207.654    -9478295.32349  -7361844.17446  23022207.188    23022213.055
       225.000         167.000
  22194581.383     2164279.31449   1642508.70046  22194580.582    22194588.496
       230.000         183.000
  24257054.862     6565633.37349   5109755.93145  24257055.440    24257067.480
       210.000         148.000
  21806106.360    -8087744.28649  -6289546.94947  21806106.217    21806114.019
       235.000         192.000
  22881837.744     8410782.51349   6402913.03946  22881837.014    22881846.385
       219.000         163.000
  23769597.474     3894885.32249   3032551.81445  23769597.910    23769607.403
       216.000         154.000
  20765209.528     1966468.22749   1533025.42147  20765209.385    20765214.880
       241.000         210.000
  23865969.285     5003251.23249   3890587.53245  23865969.163    23865976.876
       211.000         146.000
 03  6  3 22 30 30.0000000  0  8G11G23G 3G25G15G31G14G18
  23006635.140    -9560129.75249  -7425611.24946  23006635.308    23006641.837
       224.000         167.000
  22201261.167     2199381.42849   1669860.96746  22201261.037    22201267.979
       230.000         183.000
  24271754.652     6642880.15349   5169948.02345  24271756.063    24271766.526
       213.000         147.000
  21791343.354    -8165323.99249  -6349998.61147  21791343.117    21791350.759
       235.000         192.000
  22901821.117     8515795.22849   6484740.98446  22901821.359    22901830.250
       221.000         164.000
  23781631.123     3958121.78449   3081826.84245  23781632.628    23781641.052
       216.000         154.000
  20773863.868     2011946.90449   1568463.34147  20773863.434    20773869.236
       241.000         210.000
  23879150.617     5072519.12249   3944562.42845  23879150.348    23879158.563
       212.000         146.000
 03  6  3 22 31  0.0000000  0  8G11G23G 3G25G15G31G14G18
  22991120.960    -9641657.32949  -7489139.20046  22991120.538    22991126.656
       223.000         166.000
  22207967.950     2234625.57249   1697323.91046  22207967.514    22207975.305
       230.000         183.000
  24286459.112     6720151.01149   5230158.85945  24286459.324    24286472.546
       210.000         146.000
  21776646.336    -8242556.99049  -6410180.11347  21776646.092    21776653.950
       235.000         192.000
  22921851.288     8621053.53649   6566760.31146  22921851.422    22921860.227
       221.000         165.000
  23793710.998     4021601.41649   3131291.35645  23793710.337    23793721.152
       214.000         153.000
  20782572.328     2057710.17549   1604123.02247  20782571.985    20782577.695
       241.000         210.000
  23892355.143     5141908.99049   3998632.36845  23892354.647    23892363.226
       211.000         145.000
 03  6  3 22 31 30.0000000  0  8G11G23G 3G25G15G31G14G18
  22975665.630    -9722875.00649  -7552425.69346  22975666.297    22975671.202
       224.000         166.000
  22214701.977     2270012.95249   1724898.45346  22214701.692    22214709.163
       229.000         183.000
  24301167.519     6797443.63949   5290386.66845  24301168.041    24301180.159
       210.000         144.000
  21762015.854    -8319440.40849  -6470089.21247  21762015.860    21762023.276
       236.000         193.000
  22941927.813     8726555.87849   6648969.78746  22941927.804    22941936.930
       221.000         165.000
  23805836.574     4085321.73749   3180943.39945  23805836.612    23805846.421
       214.000         152.000
  20791334.734     2103756.89649   1640003.57047  20791334.469    20791340.070
       241.000         210.000
  23905582.883     5211421.55049   4052797.92145  23905582.749    23905591.385
       211.000         145.000
 03  6  3 22 32  0.0000000  0  8G11G23G 3G25G15G31G14G18
  22960269.842    -9803780.60449  -7615469.00446  22960268.747    22960276.495
       224.000         167.000
  22221463.323     2305544.02449   1752584.97546  22221462.821    22221470.498
       229.000         183.000
  24315879.405     6874755.06849   5350629.11245  24315879.427    24315892.433
       204.000         143.000
  21747452.439    -8395971.82549  -6529724.02547  21747452.422    21747459.660
       236.000         193.000
  22962050.281     8832299.60749   6731367.36946  22962049.034    22962059.382
       220.000         164.000
  23818007.554     4149279.72549   3230780.65245  23818007.676    23818017.068
       213.000         152.000
  20800150.624     2150084.72249   1676103.16247  20800150.495    20800156.120
       241.000         210.000
  23918834.029     5281056.68549   4107058.97045  23918834.805    23918842.888
       212.000         145.000
 03  6  3 22 32 30.0000000  0  8G11G23G 3G25G15G31G14G18
  22944933.804    -9884372.00349  -7678267.47246  22944933.463    22944939.662
       225.000         168.000
  22228252.198     2341219.53649   1780384.04746  22228252.251    22228259.483
       230.000         183.000
  24330594.354     6952082.20949   5410883.76645  24330594.620    24330607.849
       203.000         143.000
  21732956.391    -8472148.88149  -6589082.71247  21732956.467    21732963.715
       236.000         194.000
  22982218.263     8938282.67049   6813951.43546  22982218.081    22982227.261
       221.000         164.000
  23830223.150     4213472.29849   3280800.69645  23830222.180    23830233.363
       213.000         151.000
  20809019.643     2196691.62949   1712420.21947  20809019.496    20809025.053
       241.000         210.000
  23932108.558     5350814.46549   4161415.55745  23932108.866    23932116.386
       210.000         144.000
 03  6  3 22 33  0.0000000  0  8G11G23G 3G25G15G31G14G18
  22929657.974    -9964646.95649  -7740819.36846  22929657.688    22929664.033
       225.000         168.000
  22235068.638     2377040.03149   1808296.09046  22235068.153    22235076.192
       229.000         183.000
  24345311.888     7029422.34649   5471148.55845  24345312.181    24345324.527
       208.000         145.000
  21718528.253    -8547969.33849  -6648163.54147  21718528.206    21718535.519
       237.000         194.000
  23002431.331     9044502.62649   6896720.08646  23002431.198    23002440.106
       217.000         163.000
  23842482.704     4277896.44949   3331001.18045  23842482.883    23842492.859
       211.000         151.000
  20817941.410     2243575.54149   1748953.12447  20817941.079    20817946.816
       241.000         210.000
  23945406.445     5420694.77649   4215867.65345  23945406.760    23945413.690
       212.000         144.000
 03  6  3 22 33 30.0000000  0  8G11G23G 3G25G15G31G14G18
  22914442.834   -10044602.59449  -7803122.45146  22914442.891    22914448.355
       224.000         167.000
  22241912.848     2413006.40949   1836321.80346  22241912.325    22241920.010
       229.000         183.000
  24360031.466     7106772.82849   5531421.40645  24360031.241    24360044.976
       208.000         146.000
  21704168.367    -8623430.67949  -6706964.52647  21704168.027    21704175.465
       236.000         194.000
  23022689.016     9150957.31349   6979671.64345  23022687.065    23022697.659
       216.000         162.000
  23854785.797     4342549.35749   3381379.91945  23854785.256    23854795.843
       210.000         150.000
  20826915.508     2290734.73249   1785700.53747  20826915.157    20826920.968
       241.000         209.000
  23958727.764     5490697.90649   4270415.46745  23958727.318    23958734.695
       211.000         144.000
 03  6  3 22 34  0.0000000  0  8G11G23G 3G25G15G31G14G18
  22899288.815   -10124237.10149  -7865175.29146  22899288.353    22899294.849
       225.000         168.000
  22248784.969     2449119.31649   1864461.69746  22248784.677    22248792.012
       229.000         183.000
  24374752.364     7184131.00249   5591700.25545  24374752.760    24374765.081
       210.000         148.000
  21689877.316    -8698530.78249  -6765484.02847  21689877.041    21689884.350
       237.000         194.000
  23042990.963     9257644.51449   7062804.36345  23042990.929    23043000.085
       216.000         161.000
  23867131.879     4407428.10549   3431934.63445  23867131.848    23867141.592
       211.000         150.000
  20835941.611     2338167.22949   1822660.91547  20835941.188    20835946.945
       241.000         209.000
  23972072.379     5560824.03749   4325059.13045  23972073.419    23972080.235
       210.000         143.000
 03  6  3 22 34 30.0000000  0  8G11G23G 3G25G15G31G14G18
  22884196.537   -10203547.97949  -7926975.95746  22884196.530    22884201.922
       225.000         168.000
  22255685.020     2485379.22249   1892716.14246  22255684.670    22255692.287
       229.000         183.000
  24389474.223     7261493.86949   5651982.75745  24389475.028    24389487.933
       211.000         148.000
  21675655.367    -8773267.43649  -6823720.33347  21675654.916    21675662.494
       237.000         195.000
  23063336.812     9364561.90949   7146116.46645  23063336.794    23063346.566
       217.000         161.000
  23879520.369     4472529.63049   3482662.94045  23879520.742    23879529.685
       210.000         149.000
  20845019.378     2385871.00449   1859832.67747  20845018.964    20845024.708
       241.000         209.000
  23985440.410     5631073.51949   4379798.91045  23985441.524    23985448.284
       210.000         143.000
 03  6  3 22 35  0.0000000  0  8G11G23G 3G25G15G31G14G18
  22869166.166   -10282533.04649  -7988522.75046  22869166.346    22869171.892
       224.000         169.000
  22262613.100     2521786.52149   1921085.43746  22262612.724    22262620.773
       229.000         183.000
  24404196.527     7338858.32449   5712266.50345  24404197.326    24404209.650
       213.000         149.000
  21661502.939    -8847638.60949  -6881671.83847  21661502.644    21661510.087
       237.000         195.000
  23083725.927     9471706.84149   7229605.86245  23083725.649    23083735.500
       216.000         161.000
  23891950.740     4537850.55549   3533562.20845  23891951.666    23891961.622
       210.000         148.000
  20854148.271     2433843.61349   1897213.92247  20854147.944    20854153.560
       241.000         209.000
  23998832.006     5701445.82549   4434634.39645  23998831.784    23998838.934
       209.000         143.000
 03  6  3 22 35 30.0000000  0  8G11G23G 3G25G15G31G14G18
  22854198.253   -10361189.88749  -8049813.77546  22854198.218    22854204.906
       224.000         168.000
  22269569.408     2558342.12249   1949570.28746  22269568.748    22269576.654
       229.000         183.000
  24418918.564     7416221.48649   5772549.25245  24418918.934    24418931.617
       211.000         148.000
  21647420.656    -8921641.33349  -6939336.24847  21647420.523    21647427.838
       237.000         195.000
  23104157.860     9579076.98449   7313270.75545  23104157.195    23104167.536
       215.000         160.000
  23904422.196     4603388.17049   3584630.33845  23904420.844    23904433.359
       208.000         148.000
  20863328.002     2482083.50049   1934803.43547  20863327.679    20863333.389
       241.000         209.000
  24012246.843     5771941.15949   4489565.72245  24012245.458    24012255.428
       211.000         143.000
 03  6  3 22 36  0.0000000  0  8G11G23G 3G25G15G31G14G18
  22839293.325   -10439515.51449  -8110846.70646  22839292.747    22839300.099
       223.000         168.000
  22276554.315     2595047.62549   1978171.94746  22276554.452    22276561.654
       230.000         183.000
  24433639.844     7493581.73449   5832829.71845  24433640.243    24433653.453
       210.000         146.000
  21633409.006    -8995272.97349  -6996711.49947  21633408.733    21633416.262
       237.000         195.000
  23124632.440     9686670.97249   7397110.07045  23124632.450    23124642.299
       218.000         159.000
  23916934.363     4669140.28049   3635865.57545  23916933.551    23916945.184
       210.000         149.000
  20872558.456     2530589.60349   1972600.38547  20872558.199    20872563.981
       240.000         209.000
  24025685.319     5842560.48049   4544593.64545  24025684.555    24025693.233
       209.000         143.000
 03  6  3 22 36 30.0000000  0  8G11G23G 3G25G15G31G14G18
  22824451.771   -10517508.35349  -8171620.32246  22824451.071    22824457.947
       224.000         168.000
  22283567.733     2631902.96849   2006890.36646  22283567.857    22283575.247
       230.000         184.000
  24448359.930     7570935.40449   5893105.05745  24448359.423    24448373.137
       207.000         144.000
  21619468.212    -9068532.07849  -7053796.46147  21619468.294    21619475.356
       236.000         196.000
  23145149.115     9794485.70749   7481121.40145  23145149.167    23145158.252
       217.000         159.000
  23929486.890     4735103.11449   3687265.04645  23929487.121    23929497.634
       211.000         150.000
  20881838.950     2579358.98049   2010602.48847  20881838.454    20881844.507
       241.000         208.000
  24039147.364     5913303.29649   4599717.79045  24039146.885    24039156.373
       211.000         142.000
 03  6  3 22 37  0.0000000  0  8G11G23G 3G25G15G31G14G18
  22809672.960   -10595171.59449  -8232137.11046  22809672.922    22809679.144
       224.000         169.000
  22290608.738     2668902.94149   2035721.48246  22290608.783    22290615.846
       230.000         184.000
  24463077.004     7648273.69349   5953368.43245  24463076.894    24463090.635
       206.000         139.000
  21605597.701    -9141421.99749  -7110593.74947  21605597.316    21605604.913
       236.000         196.000
  23165706.165     9902513.05249   7565298.38045  23165706.235    23165715.556
       218.000         159.000
  23942077.875     4801268.11149   3738822.02845  23942077.924    23942087.693
       212.000         151.000
  20891168.202     2628384.30749   2048804.02847  20891167.875    20891173.452
       241.000         208.000
  24052631.852     5984163.87549   4654933.73045  24052631.819    24052639.619
       211.000         143.000
 03  6  3 22 37 30.0000000  0  8G11G23G 3G25G15G31G14G18
  22794958.855   -10672494.90649  -8292389.02046  22794958.898    22794965.587
       224.000         170.000
  22297678.792     2706056.39949   2064672.19046  22297678.159    22297686.132
       229.000         183.000
  24477792.344     7725602.29249   6013624.22145  24477792.027    24477806.932
       202.000         134.000
  21591799.490    -9213931.91949  -7167094.93247  21591799.548    21591806.584
       237.000         196.000
  23186304.896    10010758.99749   7649645.70145  23186304.615    23186315.335
       219.000         160.000
  23954708.354     4867640.25949   3790540.42545  23954708.570    23954718.704
       213.000         152.000
  20900547.248     2677671.52949   2087209.64547  20900546.942    20900552.691
       241.000         208.000
  24066140.337     6055150.73549   4710248.06845  24066139.958    24066148.637
       210.000         144.000
 03  6  3 22 38  0.0000000  0  8G11G23G 3G25G15G31G14G18
  22780309.703   -10749476.35449  -8352374.54446  22780309.780    22780316.372
       224.000         170.000
  22304778.130     2743363.71349   2093742.80246  22304777.784    22304785.298
       229.000         183.000
  24492505.270     7802918.15649   6073870.06344  24492506.291    24492519.259
       198.000         129.000
  21578073.880    -9286060.20349  -7223298.73647  21578073.551    21578080.978
       237.000         197.000
  23206944.622    10119220.90949   7734161.31045  23206943.827    23206954.282
       217.000         160.000
  23967377.410     4934216.24349   3842417.65645  23967376.990    23967387.479
       213.000         151.000
  20909975.711     2727218.34349   2125817.53847  20909975.415    20909980.962
       241.000         208.000
  24079672.632     6126263.20949   4765660.30945  24079672.080    24079678.961
       209.000         143.000
 03  6  3 22 38 30.0000000  0  8G11G23G 3G25G15G31G14G18
  22765726.014   -10826114.19249  -8412092.31546  22765726.406    22765732.436
       226.000         172.000
  22311906.791     2780825.01849   2122933.40546  22311906.009    22311913.898
       229.000         183.000
  24507214.957     7880217.80749   6134103.25644  24507213.599    24507229.809
       195.000         124.000
  21564421.132    -9357805.45849  -7279204.07447  21564420.972    21564428.183
       237.000         197.000
  23227624.951    10227895.84149   7818842.91045  23227625.220    23227635.086
       218.000         159.000
  23980084.615     5000992.47849   3894450.94145  23980085.103    23980094.782
       212.000         150.000
  20919453.081     2777022.19349   2164625.72147  20919452.844    20919458.624
       241.000         208.000
  24093228.727     6197500.94349   4821170.13945  24093229.085    24093237.507
       207.000         143.000
 03  6  3 22 39  0.0000000  0  8G11G23G 3G25G15G31G14G18
  22751208.003   -10902407.12549  -8471541.33846  22751207.877    22751214.719
       226.000         173.000
  22319064.719     2818440.08349   2152243.81446  22319064.693    22319072.145
       229.000         183.000
  24521920.836     7957497.83349   6194321.18144  24521921.897    24521933.755
       200.000         127.000
  21550841.615    -9429166.24849  -7334809.83847  21550841.483    21550848.803
       236.000         197.000
  23248345.186    10336780.66149   7903688.05045  23248344.896    23248355.255
       216.000         157.000
  23992829.168     5067965.18949   3946637.31345  23992829.250    23992838.967
       213.000         148.000
  20928978.837     2827080.41749   2203632.11547  20928978.660    20928984.292
       240.000         208.000
  24106808.678     6268863.23649   4876777.03745  24106809.083    24106816.878
       207.000         142.000
 03  6  3 22 39 30.0000000  0  8G11G23G 3G25G15G31G14G18
  22736755.971   -10978353.13849  -8530720.03446  22736756.171    22736761.776
       227.000         174.000
  22326252.061     2856209.36449   2181674.39546  22326251.618    22326259.391
       229.000         182.000
  24536622.700     8034755.16049   6254521.46344  24536622.640    24536635.547
       204.000         129.000
  21537335.653    -9500140.31349  -7390114.25347  21537335.623    21537342.739
       237.000         197.000
  23269104.820    10445872.64549   7988694.60545  23269104.414    23269114.673
       216.000         157.000
  24005610.643     5135131.11849   3998974.24945  24005611.351    24005621.078
       213.000         148.000
  20938552.615     2877390.87749   2242835.05647  20938552.412    20938558.047
       241.000         208.000
  24120412.230     6340349.86549   4932480.78845  24120412.496    24120420.916
       210.000         142.000
 03  6  3 22 40  0.0000000  0  8G11G23G 3G25G15G31G14G18
  22722370.510   -11053949.20249  -8589626.04646  22722370.420    22722377.491
       227.000         175.000
  22333468.925     2894133.94449   2211225.98146  22333468.701    22333475.525
       229.000         182.000
  24551319.760     8111987.13849   6314701.95945  24551319.155    24551333.956
       208.000         132.000
  21523903.737    -9570725.42149  -7445115.59047  21523903.512    21523910.959
       238.000         198.000
  23289903.520    10555169.84949   8073861.06545  23289903.595    23289913.446
       217.000         158.000
  24018428.350     5202487.58449   4051459.64345  24018428.888    24018439.515
       213.000         148.000
  20948174.108     2927951.88549   2282233.22647  20948173.831    20948179.545
       240.000         208.000
  24134039.481     6411961.13249   4988281.65145  24134039.682    24134047.340
       208.000         141.000
 03  6  3 22 40 30.0000000  0  8G11G23G 3G25G15G31G14G18
  22708051.948   -11129193.63249  -8648258.04646  22708051.523    22708057.928
       227.000         175.000
  22340715.318     2932214.07049   2240898.77846  22340715.494    22340722.209
       228.000         181.000
  24566011.452     8189190.90149   6374860.50445  24566011.444    24566025.162
       208.000         134.000
  21510546.269    -9640919.36849  -7499812.12247  21510545.779    21510553.319
       237.000         198.000
  23310740.817    10664669.69349   8159185.44545  23310741.270    23310750.417
       217.000         158.000
  24031281.595     5270031.21349   4104090.89245  24031280.541    24031292.634
       212.000         147.000
  20957842.855     2978761.35549   2321825.00647  20957842.647    20957848.178
       240.000         207.000
  24147690.425     6483696.74149   5044179.39645  24147690.252    24147698.959
       211.000         141.000
 03  6  3 22 41  0.0000000  0  8G11G23G 3G25G15G31G14G18
  22693800.845   -11204083.88549  -8706614.07346  22693800.799    22693807.256
       228.000         175.000
  22347991.445     2970450.58149   2270693.44246  22347990.468    22347998.887
       228.000         181.000
  24580697.292     8266364.01249   6434995.12845  24580697.647    24580711.811
       210.000         134.000
  21497263.605    -9710720.13749  -7554202.27847  21497263.564    21497270.197
       238.000         198.000
  23331616.277    10774369.95449   8244665.98045  23331616.148    23331625.959
       216.000         156.000
  24044169.803     5337759.27649   4156865.83545  24044170.387    24044181.284
       212.000         146.000
  20967558.560     3029817.49849   2361609.00147  20967558.351    20967563.850
       240.000         207.000
  24161365.138     6555557.01249   5100174.31345  24161365.585    24161372.971
       207.000         142.000
 03  6  3 22 41 30.0000000  0  8G11G23G 3G25G15G31G14G18
  22679617.583   -11278617.47749  -8764692.17646  22679617.408    22679623.334
       227.000         175.000
  22355297.586     3008844.59549   2300610.82546  22355297.040    22355304.574
       228.000         180.000
  24595376.692     8343504.02949   6495103.99645  24595377.045    24595391.078
       209.000         135.000
  21484056.296    -9780124.99549  -7608283.93547  21484055.998    21484063.251
       238.000         198.000
  23352529.372    10884268.55249   8330301.05445  23352529.370    23352538.638
       216.000         155.000
  24057092.798     5405669.15149   4209782.46945  24057092.401    24057103.243
       210.000         144.000
  20977320.824     3081118.56449   2401583.84647  20977320.523    20977326.248
       240.000         207.000
  24175063.592     6627542.71549   5156266.94945  24175063.941    24175072.039
       207.000         141.000
 03  6  3 22 42  0.0000000  0  8G11G23G 3G25G15G31G14G18
  22665502.615   -11352792.16149  -8822490.61546  22665502.849    22665508.896
       228.000         175.000
  22362633.816     3047396.56549   2330651.29746  22362633.471    22362641.227
       227.000         179.000
  24610049.361     8420608.07749   6555184.81045  24610049.997    24610063.223
       212.000         137.000
  21470924.666    -9849132.10249  -7662055.65747  21470924.368    21470931.507
       238.000         199.000
  23373479.765    10994362.94749   8416088.71545  23373479.257    23373490.131
       217.000         154.000
  24070049.706     5473757.51249   4262838.16345  24070049.821    24070061.360
       209.000         144.000
  20987129.283     3132662.43049   2441747.88947  20987129.133    20987134.442
       241.000         206.000
  24188785.850     6699653.41649   5212457.04745  24188785.982    24188793.486
       206.000         141.000
 03  6  3 22 42 30.0000000  0  8G11G23G 3G25G15G31G14G18
  22651456.200   -11426606.22849  -8880008.03646  22651455.983    22651462.167
       227.000         175.000
  22370000.162     3086106.75849   2360815.05946  22370000.121    22370007.068
       227.000         179.000
  24624714.590     8497672.95449   6615235.12245  24624715.544    24624729.070
       214.000         138.000
  21457869.017    -9917739.77249  -7715516.12947  21457868.647    21457875.557
       237.000         199.000
  23394466.939    11104650.41749   8502026.80845  23394467.397    23394477.257
       216.000         155.000
  24083039.830     5542020.99549   4316030.32645  24083039.798    24083052.055
       208.000         144.000
  20996983.594     3184447.04549   2482099.52547  20996983.491    20996988.969
       240.000         206.000
  24202531.796     6771888.86649   5268744.31545  24202531.376    24202540.086
       206.000         140.000
 03  6  3 22 43  0.0000000  0  8G11G23G 3G25G15G31G14G18
  22637479.005   -11500056.89549  -8937242.30746  22637479.089    22637485.087
       228.000         175.000
  22377396.806     3124976.34449   2391103.01346  22377396.871    22377403.395
       228.000         179.000
  24639372.016     8574696.59349   6675253.28145  24639372.278    24639386.049
       212.000         140.000
  21444889.854    -9985945.38349  -7768663.30947  21444889.552    21444896.582
       238.000         199.000
  23415490.514    11215129.01249   8588113.83945  23415490.463    23415500.129
       214.000         154.000
  24096062.969     5610457.19049   4369357.05545  24096063.682    24096073.714
       208.000         143.000
  21006883.413     3236470.70949   2522637.43247  21006883.297    21006888.703
       240.000         207.000
  24216301.581     6844249.42349   5325129.06145  24216301.503    24216309.671
       208.000         141.000
 03  6  3 22 43 30.0000000  0  8G11G23G 3G25G15G31G14G18
  22623571.324   -11573142.35849  -8994192.00046  22623571.417    22623576.826
       227.000         175.000
  22384823.910     3164005.63949   2421515.43546  22384823.839    22384831.213
       227.000         178.000
  24654020.847     8651675.76649   6735236.79245  24654021.156    24654035.796
       213.000         141.000
  21431987.571   -10053747.19049  -7821495.83547  21431987.474    21431994.331
       239.000         199.000
  23436549.827    11325795.98349   8674347.63945  23436549.055    23436559.428
       215.000         154.000
  24109118.222     5679062.45949   4422815.54445  24109118.325    24109128.265
       208.000         142.000
  21016828.318     3288731.33249   2563359.98447  21016828.193    21016833.518
       241.000         207.000
  24230095.221     6916734.76349   5381611.03645  24230095.494    24230104.335
       206.000         141.000
 03  6  3 22 44  0.0000000  0  8G11G23G 3G25G15G31G14G18
  22609733.611   -11645860.00149  -9050855.06646  22609733.207    22609740.627
       227.000         174.000
  22392281.540     3203195.64949   2452053.08146  22392280.307    22392288.975
       226.000         178.000
  24668660.802     8728608.15449   6795183.84745  24668660.592    24668675.518
       213.000         143.000
  21419162.564   -10121142.95749  -7874011.96847  21419162.562    21419169.206
       238.000         200.000
  23457644.650    11436649.45549   8760726.77345  23457644.251    23457654.217
       214.000         152.000
  24122205.176     5747834.34249   4476403.85545  24122205.525    24122217.187
       207.000         143.000
  21026817.952     3341227.14349   2604265.80047  21026817.787    21026823.345
       241.000         206.000
  24243912.637     6989345.55549   5438190.74645  24243911.699    24243921.597
       205.000         142.000
 03  6  3 22 44 30.0000000  0  8G11G23G 3G25G15G31G14G18
  22595966.211   -11718208.00449  -9107230.11846  22595966.708    22595972.826
       229.000         175.000
  22399769.866     3242546.84549   2482716.31346  22399769.422    22399776.933
       226.000         178.000
  24683291.318     8805490.78649   6855092.10845  24683291.483    24683305.678
       214.000         145.000
  21406415.169   -10188130.78849  -7926210.22747  21406414.997    21406421.814
       239.000         200.000
  23478774.562    11547686.73149   8847249.13245  23478774.133    23478785.509
       213.000         152.000
  24135323.245     5816769.53049   4530119.39845  24135323.723    24135333.840
       206.000         144.000
  21036851.977     3393956.16549   2645353.34147  21036851.631    21036857.105
       240.000         206.000
  24257753.895     7062081.45349   5494867.92945  24257753.597    24257761.954
       207.000         142.000
 03  6  3 22 45  0.0000000  0  8G11G23G 3G25G15G31G14G18
  22582269.707   -11790183.65449  -9163315.02346  22582269.610    22582276.088
       228.000         175.000
  22407288.968     3282060.01049   2513505.77746  22407288.277    22407295.840
       227.000         177.000
  24697911.827     8882321.08849   6914959.60145  24697912.511    24697925.696
       214.000         146.000
  21393745.879   -10254708.29849  -7978088.75547  21393745.708    21393752.793
       239.000         200.000
  23499938.980    11658905.65549   8933913.03045  23499939.181    23499949.008
       213.000         152.000
  24148471.875     5885865.26349   4583960.05945  24148472.350    24148483.452
       209.000         145.000
  21046930.054     3446916.73249   2686621.30547  21046929.754    21046935.332
       240.000         206.000
  24271619.110     7134942.76949   5551642.87745  24271619.178    24271627.396
       206.000         140.000
 03  6  3 22 45 30.0000000  0  8G11G23G 3G25G15G31G14G18
  22568644.389   -11861785.16449  -9219108.38546  22568644.193    22568650.596
       228.000         175.000
  22414838.972     3321735.42549   2544421.65546  22414838.610    22414846.103
       227.000         177.000
  24712521.865     8959096.03249   6974783.94845  24712522.327    24712536.485
       213.000         147.000
  21381154.953   -10320873.89249  -8029646.31347  21381154.695    21381161.654
       239.000         201.000
  23521137.408    11770303.29649   9020716.16945  23521137.535    23521148.269
       213.000         153.000
  24161650.357     5955118.06349   4637923.11345  24161649.698    24161661.584
       209.000         146.000
  21057051.739     3500106.49249   2728067.85847  21057051.377    21057056.955
       240.000         206.000
  24285507.957     7207929.27249   5608515.36645  24285508.652    24285516.128
       205.000         138.000
 03  6  3 22 46  0.0000000  0  8G11G23G 3G25G15G31G14G18
  22555090.809   -11933009.80949  -9274608.08846  22555091.595    22555096.898
       228.000         175.000
  22422420.081     3361574.39949   2575464.97946  22422419.582    22422426.724
       226.000         177.000
  24727120.943     9035813.81149   7034563.74945  24727121.080    24727134.995
       212.000         148.000
  21368642.951   -10386624.63849  -8080880.60947  21368642.826    21368649.698
       239.000         201.000
  23542369.505    11881877.97049   9107657.24845  23542368.747    23542379.879
       213.000         153.000
  24174858.263     6024525.59049   4692006.72945  24174858.194    24174869.462
       209.000         146.000
  21067216.786     3553524.10949   2769691.96047  21067216.589    21067222.103
       241.000         206.000
  24299420.777     7281041.05449   5665485.50145  24299422.020    24299430.053
       207.000         139.000
 03  6  3 22 46 30.0000000  0  8G11G23G 3G25G15G31G14G18
  22541609.295   -12003855.28749  -9329812.33446  22541608.819    22541615.422
       229.000         175.000
  22430032.462     3401577.79749   2606636.42146  22430032.332    22430039.416
       228.000         177.000
  24741708.682     9112471.76449   7094296.94045  24741709.431    24741723.914
       212.000         148.000
  21356210.296   -10451958.68049  -8131790.20847  21356209.983    21356217.009
       239.000         201.000
  23563634.778    11993627.44149   9194734.52945  23563634.046    23563645.605
       211.000         152.000
  24188095.093     6094085.03149   4746208.71745  24188096.040    24188106.206
       211.000         148.000
  21077424.912     3607167.99649   2811492.37947  21077424.463    21077430.345
       240.000         205.000
  24313357.531     7354278.66449   5722553.67345  24313357.183    24313366.292
       206.000         139.000
 03  6  3 22 47  0.0000000  0  8G11G23G 3G25G15G31G14G18
  22528200.417   -12074319.36649  -9384719.39346  22528200.421    22528205.986
       229.000         176.000
  22437676.369     3441746.23149   2637936.47346  22437675.870    22437684.152
       227.000         177.000
  24756284.614     9189067.48049   7153981.63745  24756284.891    24756299.376
       211.000         148.000
  21343857.223   -10516874.21449  -8182373.69347  21343856.855    21343863.845
       240.000         201.000
  23584932.947    12105549.23649   9281946.10545  23584933.041    23584943.840
       211.000         152.000
  24201360.405     6163793.35549   4800526.72145  24201360.926    24201371.761
       209.000         148.000
  21087675.703     3661036.22349   2853467.60747  21087675.386    21087681.172
       240.000         205.000
  24327318.285     7427642.18549   5779719.92745  24327318.638    24327326.313
       205.000         138.000
 03  6  3 22 47 30.0000000  0  8G11G23G 3G25G15G31G14G18
  22514864.438   -12144400.37049  -9439327.94446  22514864.664    22514870.623
       229.000         177.000
  22445351.563     3482079.58349   2669365.02146  22445350.737    22445358.482
       226.000         177.000
  24770847.973     9265597.08649   7213614.81445  24770847.549    24770862.776
       209.000         148.000
  21331584.125   -10581369.77949  -8232629.92847  21331583.832    21331590.824
       240.000         202.000
  23606263.341    12217640.37749   9369289.61845  23606263.454    23606274.204
       211.000         152.000
  24214653.236     6233646.70049   4854957.71145  24214654.204    24214663.773
       210.000         150.000
  21097968.616     3715126.09349   2895615.54447  21097968.011    21097973.827
       240.000         205.000
  24341302.831     7501130.86249   5836983.69045  24341302.217    24341311.470
       203.000         137.000
 03  6  3 22 48  0.0000000  0  8G11G23G 3G25G15G31G14G18
  22501601.841   -12214095.76149  -9493636.03246  22501601.635    22501607.852
       228.000         177.000
  22453058.374     3522579.08249   2700923.04146  22453058.011    22453065.851
       227.000         177.000
  24785398.431     9342058.87449   7273195.12245  24785398.875    24785412.691
       207.000         146.000
  21319391.420   -10645442.62549  -8282556.77347  21319390.943    21319397.999
       240.000         202.000
  23627625.593    12329898.88749   9456763.56245  23627625.076    23627636.020
       211.000         151.000
  24227973.296     6303642.69549   4909499.88345  24227973.173    24227984.859
       211.000         151.000
  21108303.535     3769436.52749   2937935.34247  21108303.326    21108308.817
       240.000         204.000
  24355311.251     7574745.13749   5894345.34345  24355311.669    24355320.584
       207.000         136.000
 03  6  3 22 48 30.0000000  0  8G11G23G 3G25G15G31G14G18
  22488413.061   -12283403.21449  -9547641.81746  22488413.255    22488419.338
       229.000         177.000
  22460797.017     3563245.64349   2732611.23746  22460796.284    22460804.928
       227.000         177.000
  24799935.380     9418450.29249   7332720.61845  24799935.302    24799950.866
       199.000         141.000
  21307279.560   -10709090.81449  -8332152.71947  21307279.477    21307285.902
       240.000         202.000
  23649019.239    12442322.53849   9544366.17345  23649019.315    23649030.145
       211.000         151.000
  24241319.808     6373778.60949   4964151.06545  24241319.334    24241331.140
       211.000         152.000
  21118680.091     3823965.54549   2980425.47047  21118680.042    21118685.331
       240.000         204.000
  24369343.706     7648485.56649   5951805.33545  24369344.894    24369351.506
       207.000         137.000
 03  6  3 22 49  0.0000000  0  8G11G23G 3G25G15G31G14G18
  22475298.524   -12352320.53549  -9601343.59746  22475298.565    22475304.801
       228.000         178.000
  22468567.605     3604080.13449   2764430.29046  22468567.354    22468575.084
       226.000         177.000
  24814458.315     9494768.83949   7392189.31845  24814458.508    24814472.752
       199.000         139.000
  21295248.915   -10772312.19849  -8381416.09347  21295248.626    21295255.657
       240.000         202.000
  23670443.957    12554909.12049   9632095.74045  23670443.683    23670455.775
       213.000         152.000
  24254692.418     6444051.50549   5018908.99745  24254693.045    24254703.549
       213.000         154.000
  21129098.007     3878711.65349   3023084.75647  21129097.950    21129103.265
       240.000         204.000
  24383400.103     7722351.82749   6009363.37045  24383400.003    24383407.672
       202.000         136.000
 03  6  3 22 49 30.0000000  0  7G11G23G25G15G31G14G18
  22462259.586   -12420840.25549  -9654735.56946  22462259.511    22462265.778
       228.000         178.000
  22476371.167     3645088.16449   2796384.56046  22476370.592    22476378.438
       227.000         176.000
  21283300.741   -10835099.90849  -8430341.53947  21283300.488    21283307.360
       240.000         203.000
  23691900.100    12667661.29849   9719954.33445  23691899.919    23691911.525
       212.000         153.000
  24268091.501     6514463.51849   5073775.31445  24268092.059    24268103.338
       214.000         155.000
  21139557.776     3933677.97949   3065915.64647  21139557.439    21139562.974
       240.000         204.000
  24397481.318     7796349.11149   6067023.48845  24397482.215    24397488.823
       203.000         137.000
 03  6  3 22 50  0.0000000  0  7G11G23G25G15G31G14G18
  22449295.367   -12488967.73749  -9707821.90046  22449295.106    22449301.783
       229.000         178.000
  22484206.516     3686263.27149   2828469.02846  22484206.328    22484213.915
       226.000         176.000
  21271434.132   -10897459.19149  -8478933.14447  21271433.743    21271440.812
       240.000         203.000
  23713386.052    12780569.60049   9807934.58745  23713386.344    23713396.991
       214.000         154.000
  24281515.217     6585004.21349   5128741.89945  24281515.027    24281526.942
       214.000         156.000
  21150057.672     3988855.28949   3108910.93747  21150057.220    21150062.729
       239.000         204.000
  24411586.261     7870470.31749   6124780.13745  24411586.251    24411594.740
       205.000         137.000
 03  6  3 22 50 30.0000000  0  7G11G23G25G15G31G14G18
  22436406.303   -12556699.95049  -9760600.22646  22436406.159    22436412.819
       229.000         178.000
  22492073.919     3727606.48549   2860684.48146  22492074.021    22492081.146
       226.000         176.000
  21259649.526   -10959387.56049  -8527188.97147  21259649.291    21259656.206
       240.000         203.000
  23734901.281    12893631.80449   9896034.75945  23734901.280    23734912.610
       212.000         152.000
  24294962.797     6655671.17349   5183806.88045  24294962.967    24294974.235
       213.000         157.000
  21160597.442     4044242.32249   3152069.65047  21160597.024    21160602.759
       239.000         204.000
  24425714.776     7944715.84149   6182633.68345  24425715.199    24425723.627
       207.000         138.000
 03  6  3 22 51  0.0000000  0  7G11G23G25G15G31G14G18
  22423593.003   -12624034.47749  -9813068.67046  22423592.850    22423599.163
       230.000         179.000
  22499973.520     3769119.18849   2893032.00346  22499973.433    22499980.717
       226.000         176.000
  21247947.385   -11020882.48149  -8575107.04647  21247947.162    21247954.091
       240.000         203.000
  23756445.482    13006846.16949   9984253.50745  23756445.235    23756455.889
       212.000         151.000
  24308434.006     6726462.00649   5238968.39345  24308434.141    24308445.669
       214.000         157.000
  21171176.909     4099837.81149   3195390.79347  21171176.939    21171182.451
       239.000         203.000
  24439867.180     8019086.44549   6240584.66445  24439867.832    24439875.454
       205.000         138.000
 03  6  3 22 51 30.0000000  0  7G11G23G25G15G31G14G18
  22410855.860   -12690968.32549  -9865224.88946  22410855.657    22410862.062
       230.000         179.000
  22507905.721     3810802.82949   2925512.72646  22507905.341    22507912.321
       227.000         176.000
  21236328.252   -11081941.40549  -8622685.38747  21236328.196    21236334.838
       240.000         203.000
  23778018.345    13120211.22349  10072589.66845  23778018.480    23778030.013
       210.000         149.000
  24321928.385     6797374.62149   5294224.79445  24321928.849    24321940.173
       213.000         157.000
  21181795.899     4155640.92749   3238873.72347  21181795.678    21181801.398
       239.000         203.000
  24454043.474     8093582.81449   6298633.67945  24454042.049    24454051.865
       203.000         136.000
 03  6  3 22 52  0.0000000  0  7G11G23G25G15G31G14G18
  22398195.342   -12757499.59749  -9917067.42746  22398195.482    22398201.530
       231.000         180.000
  22515870.540     3852657.94549   2958127.05846  22515869.988    22515877.859
       226.000         175.000
  21224792.347   -11142562.76049  -8669922.76447  21224792.302    21224799.113
       240.000         204.000
  23799619.362    13233724.39449  10161041.24545  23799619.067    23799630.036
       213.000         148.000
  24335445.255     6868405.75249   5349573.53545  24335445.442    24335456.892
       213.000         155.000
  21192454.066     4211649.64349   3282516.85947  21192453.959    21192459.634
       239.000         203.000
  24468243.709     8168205.01349   6356780.76945  24468243.248    24468252.235
       201.000         135.000
 03  6  3 22 52 30.0000000  0  7G11G23G25G15G31G14G18
  22385611.992   -12823625.76849  -9968594.29446  22385611.933    22385617.777
       230.000         180.000
  22523868.098     3894685.31949   2990875.63946  22523867.341    22523875.323
       226.000         175.000
  21213340.150   -11202744.39449  -8716817.50147  21213339.870    21213346.699
       240.000         204.000
  23821248.299    13347383.43549  10249606.49745  23821248.193    23821259.284
       212.000         147.000
  24348984.210     6939552.64249   5405012.49145  24348984.729    24348995.674
       213.000         155.000
  21203151.015     4267862.28549   3326318.89847  21203150.764    21203156.559
       239.000         203.000
  24482467.905     8242953.03749   6415025.88245  24482469.389    24482477.340
       207.000         135.000
 03  6  3 22 53  0.0000000  0  7G11G23G25G15G31G14G18
  22373106.069   -12889344.85149 -10019803.95546  22373105.941    22373111.921
       231.000         180.000
  22531898.563     3936885.58149   3023758.92946  22531898.211    22531905.673
       226.000         175.000
  21201971.924   -11262484.48949  -8763368.18347  21201971.710    21201978.389
       240.000         204.000
  23842904.321    13461185.92049  10338283.50645  23842904.151    23842915.427
       208.000         145.000
  24362544.694     7010812.32749   5460539.33845  24362545.451    24362556.820
       211.000         154.000
  21213886.325     4324276.79349   3370278.24147  21213885.822    21213891.654
       239.000         203.000
  24496716.081     8317826.83949   6473369.01245  24496716.066    24496725.196
       208.000         137.000
 03  6  3 22 53 30.0000000  0  7G11G23G25G15G31G14G18
  22360678.029   -12954654.52249 -10070694.58846  22360678.015    22360683.920
       231.000         180.000
  22539962.051     3979259.62349   3056777.62546  22539961.999    22539969.169
       226.000         175.000
  21190688.165   -11321780.92049  -8809573.15947  21190688.032    21190694.812
       241.000         204.000
  23864587.124    13575129.84749  10427070.72345  23864586.700    23864598.082
       207.000         145.000
  24376126.028     7082182.06749   5516151.95645  24376126.289    24376137.856
       211.000         151.000
  21224659.803     4380891.88449   3414393.87847  21224659.524    21224665.424
       239.000         203.000
  24510988.034     8392826.47849   6531810.17745  24510987.177    24510996.985
       202.000         135.000
 03  6  3 22 54  0.0000000  0  7G11G23G25G15G31G14G18
  22348328.435   -13019552.20649 -10121264.19546  22348328.814    22348334.168
       232.000         181.000
  22548058.929     4021808.48449   3089932.54046  22548058.104    22548066.217
       226.000         175.000
  21179489.312   -11380631.23649  -8855430.50447  21179489.315    21179496.098
       241.000         204.000
  23886296.691    13689212.97849  10515966.37345  23886295.692    23886307.863
       208.000         143.000
  24389727.836     7153659.24049   5571848.26445  24389727.873    24389741.065
       206.000         149.000
  21235471.237     4437706.21249   3458664.76747  21235471.059    21235476.895
       239.000         203.000
  24525284.164     8467952.67949   6590349.87345  24525284.429    24525292.709
       205.000         134.000
 03  6  3 22 54 30.0000000  0  7G11G23G25G15G31G14G18
  22336057.485   -13084036.60049 -10171511.75946  22336057.199    22336063.106
       232.000         181.000
  22556189.030     4064532.17349   3123223.69046  22556188.745    22556196.430
       226.000         175.000
  21168375.501   -11439034.69749  -8900939.65247  21168375.589    21168381.939
       241.000         205.000
  23908032.093    13803432.33049  10604968.17745  23908031.844    23908044.095
       205.000         141.000
  24403349.230     7225240.30649   5627625.50845  24403348.733    24403360.712
       203.000         145.000
  21246320.106     4494717.16649   3503088.87047  21246319.979    21246325.468
       240.000         203.000
  24539604.309     8543204.55749   6648987.58045  24539603.566    24539612.930
       205.000         133.000
 03  6  3 22 55  0.0000000  0  7G11G23G25G15G31G14G18
  22323865.715   -13148104.72549 -10221434.95146  22323865.959    22323871.947
       232.000         182.000
  22564352.724     4107432.33449   3156652.35046  22564352.724    22564359.889
       226.000         175.000
  21157347.197   -11496988.74449  -8946098.60947  21157346.973    21157353.596
       241.000         205.000
  23929793.121    13917786.20849  10694074.80645  23929792.729    23929804.912
       205.000         138.000
  24416990.030     7296923.08649   5683482.05145  24416990.099    24417002.957
       198.000         140.000
  21257206.245     4551923.92449   3547665.54547  21257206.102    21257211.502
       240.000         203.000
  24553948.278     8618582.98449   6707723.91944  24553948.635    24553956.589
       202.000         131.000
 03  6  3 22 55 30.0000000  0  7G11G23G25G15G31G14G18
  22311753.411   -13211755.19449 -10271032.69746  22311752.905    22311759.450
       231.000         182.000
  22572549.977     4150508.75049   3190218.35046  22572549.619    22572556.951
       227.000         175.000
  21146404.616   -11554492.17349  -8990906.43147  21146404.369    21146411.064
       241.000         205.000
  23951579.134    14032271.57449  10783283.89445  23951579.007    23951590.560
       207.000         138.000
  24430649.617     7368703.81048   5739414.87145  24430649.273    24430660.303
       191.000         133.000
  21268129.094     4609323.76549   3592392.67447  21268128.801    21268134.274
       239.000         202.000
  24568316.272     8694087.21149   6766558.25144  24568316.189    24568325.872
       206.000         131.000
 03  6  3 22 56  0.0000000  0  7G11G23G25G15G31G14G18
  22299720.994   -13274986.06049 -10320303.47546  22299720.585    22299726.369
       232.000         182.000
  22580780.878     4193762.27649   3223922.35646  22580780.301    22580788.263
       226.000         175.000
  21135548.132   -11611543.13849  -9035361.68747  21135547.745    21135554.835
       241.000         205.000
  23973389.796    14146886.27249  10872593.76745  23973390.557    23973402.034
       209.000         139.000
  24444327.045     7440579.83848   5795421.94944  24444329.133    24444339.259
       191.000         126.000
  21279088.444     4666915.28749   3637269.16147  21279088.044    21279093.917
       240.000         202.000
  24582708.225     8769717.17649   6825490.57044  24582707.965    24582719.680
       205.000         130.000
 03  6  3 22 56 30.0000000  0  6G11G23G25G15G31G14
  22287768.894   -13337794.73149 -10369245.26946  22287768.219    22287775.462
       231.000         182.000
  22589045.673     4237193.87349   3257765.13346  22589045.669    22589052.933
       227.000         175.000
  21124778.203   -11668139.31449  -9079462.55747  21124778.120    21124784.749
       242.000         206.000
  23995224.631    14261628.06049  10962002.66645  23995224.502    23995237.674
       209.000         141.000
  24458022.022     7512548.37148   5851501.06244  24458019.485    24458031.957
       192.000         122.000
  21290083.930     4724696.79849   3682293.69547  21290083.562    21290089.064
       239.000         202.000
 03  6  3 22 57  0.0000000  0  6G11G23G25G15G31G14
  22275897.796   -13400177.27449 -10417855.02546  22275897.967    22275903.739
       230.000         182.000
  22597344.880     4280806.25849   3291748.77046  22597344.554    22597352.176
       227.000         175.000
  21114095.490   -11724277.39449  -9123206.47247  21114095.106    21114101.912
       241.000         206.000
  24017083.676    14376496.58949  11051510.30745  24017084.918    24017094.845
       209.000         143.000
  24471734.774     7584608.38448   5907651.52944  24471736.609    24471747.341
       194.000         120.000
  21301115.596     4782668.56649   3727466.47647  21301115.235    21301121.069
       239.000         201.000
 03  6  3 22 57 30.0000000  0  6G11G23G25G15G31G14
  22264107.659   -13462134.98049 -10466133.73046  22264107.159    22264113.853
       231.000         182.000
  22605677.959     4324596.78049   3325871.22046  22605677.645    22605684.077
       227.000         175.000
  21103499.651   -11779958.89049  -9166594.60847  21103499.511    21103506.136
       242.000         206.000
  24038965.756    14491486.02949  11141112.15045  24038965.151    24038977.514
       207.000         143.000
  24485463.985     7656753.63049   5963868.40044  24485466.055    24485475.124
       197.000         120.000
  21312182.527     4840825.71549   3772783.71347  21312182.163    21312187.822
       239.000         201.000
 03  6  3 22 58  0.0000000  0  6G11G23G25G15G31G14
  22252398.755   -13523665.64049 -10514079.66546  22252398.405    22252404.931
       231.000         183.000
  22614045.147     4368566.29849   3360133.14646  22614044.793    22614053.213
       226.000         175.000
  21092990.971   -11835182.14749  -9209625.67447  21092990.527    21092997.395
       242.000         206.000
  24060870.381    14606594.22349  11230806.52945  24060870.026    24060882.349
       207.000         143.000
  24499208.676     7728981.44449   6020149.64844  24499208.601    24499220.481
       200.000         119.000
  21323284.496     4899166.73049   3818244.21747  21323284.078    21323289.647
       239.000         201.000
 03  6  3 22 58 30.0000000  0  6G11G23G25G15G31G14
  22240771.615   -13584766.88249 -10561691.00446  22240771.974    22240777.334
       232.000         184.000
  22622446.590     4412715.73149   3394535.26446  22622446.626    22622453.925
       227.000         175.000
  21082569.943   -11889944.81349  -9252297.83347  21082570.070    21082576.234
       242.000         207.000
  24082797.182    14721819.05749  11320591.78645  24082797.266    24082809.458
       207.000         143.000
  24512968.677     7801289.30349   6076493.29544  24512966.586    24512979.970
       202.000         122.000
  21334421.175     4957690.15349   3863846.85847  21334420.798    21334426.491
       238.000         201.000
 03  6  3 22 59  0.0000000  0  6G11G23G25G15G31G14
  22229226.685   -13645435.74249 -10608965.41746  22229226.457    22229233.068
       231.000         184.000
  22630882.541     4457046.56749   3429078.72946  22630882.066    22630889.749
       226.000         175.000
  21072237.034   -11944244.51549  -9294609.25047  21072236.914    21072243.530
       242.000         207.000
  24104745.836    14837158.97549  11410466.71645  24104746.122    24104757.425
       209.000         144.000
  24526743.403     7873675.02049   6132897.58744  24526744.628    24526755.387
       207.000         125.000
  21345592.398     5016395.28649   3909591.09147  21345592.174    21345597.778
       238.000         200.000
 03  6  3 22 59 30.0000000  0  6G11G23G25G15G31G14
  22217764.325   -13705670.67849 -10655901.70446  22217764.312    22217770.542
       232.000         184.000
  22639352.985     4501558.99749   3463763.70046  22639352.043    22639360.019
       226.000         175.000
  21061992.457   -11998079.98049  -9336558.91647  21061992.346    21061998.824
       242.000         207.000
  24126715.911    14952611.16649  11500429.12445  24126716.322    24126728.830
       212.000         149.000
  24540532.327     7946135.26949   6189359.94344  24540533.342    24540545.188
       209.000         129.000
  21356797.764     5075279.70749   3955475.03147  21356797.247    21356803.151
       238.000         200.000
 03  6  3 23  0  0.0000000  0  6G11G23G25G15G31G14
  22206385.055   -13765469.13749 -10702497.87846  22206384.700    22206391.004
       231.000         184.000
  22647858.206     4546254.35249   3498591.20946  22647857.724    22647865.518
       225.000         174.000
  21051836.667   -12051449.06149  -9378145.16747  21051836.757    21051843.275
       242.000         207.000
  24148707.131    15068174.01249  11590477.76745  24148706.638    24148719.564
       214.000         151.000
  24554334.994     8018667.62149   6245878.45745  24554334.888    24554347.032
       210.000         134.000
  21368037.014     5134342.30549   4001497.80347  21368036.706    21368042.287
       238.000         200.000
 03  6  3 23  0 30.0000000  0  6G11G23G25G15G31G14
  22195089.018   -13824829.83049 -10748752.94346  22195088.790    22195094.931
       231.000         184.000
  22656398.267     4591132.74649   3533561.34546  22656398.242    22656405.721
       225.000         174.000
  21041769.789   -12104350.68849  -9419367.17347  21041769.696    21041776.194
       242.000         207.000
  24170718.722    15183844.64649  11680610.41545  24170719.139    24170732.241
       211.000         150.000
  24568150.846     8091268.93549   6302450.72445  24568150.943    24568161.993
       213.000         139.000
  21379309.796     5193581.08249   4047657.85747  21379309.142    21379315.290
       238.000         200.000
 03  6  3 23  1  0.0000000  0  6G11G23G25G15G31G14
  22183876.674   -13883750.72349 -10794665.30246  22183876.402    22183882.938
       231.000         184.000
  22664973.263     4636194.52749   3568674.38446  22664972.426    22664980.501
       224.000         174.000
  21031792.154   -12156783.42249  -9460223.80047  21031792.093    21031798.423
       243.000         208.000
  24192750.315    15299620.21149  11770824.79045  24192750.797    24192762.206
       210.000         148.000
  24581979.103     8163935.88849   6359074.14745  24581979.170    24581992.428
       214.000         142.000
  21390615.703     5252994.01849   4093953.62247  21390615.635    21390621.213
       238.000         200.000
 03  6  3 23  1 30.0000000  0  6G11G23G25G15G31G14
  22172748.490   -13942229.38049 -10840233.06046  22172748.286    22172755.140
       232.000         184.000
  22673583.376     4681441.01749   3603931.33846  22673582.735    22673591.375
       223.000         173.000
  21021904.161   -12208745.08449  -9500713.36547  21021903.979    21021910.420
       243.000         208.000
  24214801.438    15415498.86849  11861119.51245  24214801.732    24214814.572
       207.000         145.000
  24595819.396     8236666.14749   6415746.89245  24595819.059    24595831.804
       215.000         146.000
  21401954.598     5312579.99749   4140384.22647  21401954.595    21401960.053
       238.000         200.000
 03  6  3 23  2  0.0000000  0  6G11G23G25G15G31G14
  22161704.943   -14000264.06349 -10885454.87046  22161705.251    22161710.550
       233.000         185.000
  22682228.708     4726872.67649   3639332.59046  22682228.870    22682235.826
       223.000         173.000
  21012106.032   -12260234.37149  -9540834.84647  21012105.982    21012112.392
       242.000         208.000
  24236871.835    15531478.15749  11951492.62845  24236872.692    24236884.156
       206.000         144.000
  24609671.133     8309456.74949   6472466.65245  24609671.539    24609683.513
       216.000         147.000
  21413326.032     5372337.16849   4186948.22847  21413325.633    21413331.749
       238.000         200.000
 03  6  3 23  2 30.0000000  0  6G11G23G25G15G31G14
  22150746.060   -14057853.24749 -10930329.54646  22150745.528    22150752.130
       232.000         185.000
  22690909.485     4772490.07149   3674878.55446  22690909.420    22690917.245
       223.000         173.000
  21002398.086   -12311249.82549  -9580587.10547  21002397.952    21002404.255
       243.000         208.000
  24258961.050    15647555.61449  12041942.22545  24258962.300    24258974.410
       205.000         141.000
  24623533.788     8382304.53249   6529230.98345  24623533.612    24623545.693
       217.000         149.000
  21424729.652     5432263.84849   4233644.31047  21424729.468    21424735.438
       237.000         199.000
 03  6  3 23  3  0.0000000  0  6G11G23G25G15G31G14
  22139872.339   -14114994.85849 -10974855.45946  22139871.696    22139878.071
       231.000         184.000
  22699625.671     4818293.68849   3710569.62746  22699625.436    22699633.017
       222.000         172.000
  20992780.491   -12361790.28449  -9619969.23347  20992780.460    20992786.822
       243.000         208.000
  24281068.275    15763728.57949  12132466.23145  24281068.576    24281082.560
       202.000         139.000
  24637406.706     8455206.43649   6586037.47045  24637407.018    24637419.246
       218.000         150.000
  21436165.254     5492358.20949   4280471.05847  21436164.962    21436170.688
       238.000         199.000
 03  6  3 23  3 30.0000000  0  6G11G23G25G15G31G14
  22129084.206   -14171686.42749 -11019030.68046  22129083.424    22129090.430
       232.000         184.000
  22708377.469     4864284.61449   3746406.65946  22708377.367    22708385.229
       221.000         171.000
  20983253.785   -12411853.39249  -9658979.41047  20983253.686    20983260.027
       243.000         208.000
  24303193.330    15879995.18949  12223063.21245  24303191.730    24303206.967
       199.000         134.000
  24651289.499     8528160.18449   6642884.35845  24651290.017    24651302.583
       217.000         152.000
  21447632.594     5552619.10449   4327427.57447  21447632.233    21447638.034
       237.000         199.000
 03  6  3 23  4  0.0000000  0  6G11G23G25G15G31G14
  22118381.983   -14227926.71449 -11062854.26046  22118381.733    22118388.021
       231.000         185.000
  22717164.932     4910462.88949   3782389.67546  22717164.554    22717172.622
       220.000         170.000
  20973818.027   -12461438.42049  -9697617.05247  20973817.898    20973824.149
       243.000         209.000
  24325335.484    15996352.69349  12313731.01144  24325335.840    24325350.499
       198.000         130.000
  24665181.560     8601162.43549   6699769.04745  24665181.470    24665193.794
       216.000         151.000
  21459131.131     5613044.36449   4374512.16947  21459131.073    21459136.511
       237.000         198.000
 03  6  3 23  4 30.0000000  0  6G11G23G25G15G31G14
  22107766.093   -14283713.41649 -11106324.39446  22107765.632    22107772.277
       232.000         185.000
  22725988.245     4956829.74549   3818519.64146  22725987.506    22725995.917
       221.000         170.000
  20964473.608   -12510543.50049  -9735880.70747  20964473.187    20964479.928
       243.000         209.000
  24347494.607    16112798.77149  12404467.81344  24347495.959    24347508.411
       202.000         128.000
  24679082.322     8674210.53949   6756689.44445  24679082.007    24679094.427
       213.000         150.000
  21470660.750     5673632.69849   4421723.83447  21470660.341    21470666.134
       237.000         198.000
 03  6  3 23  5  0.0000000  0  6G11G23G25G15G31G14
  22097236.787   -14339045.46549 -11149440.26046  22097237.041    22097243.001
       233.000         186.000
  22734847.459     5003384.97649   3854796.39146  22734847.543    22734854.908
       220.000         170.000
  20955220.697   -12559167.66749  -9773769.62847  20955220.483    20955227.133
       243.000         209.000
  24369670.288    16229330.58349  12495271.49444  24369673.286    24369684.046
       206.000         130.000
  24692991.104     8747300.90449   6813642.79245  24692991.358    24693004.564
       213.000         149.000
  21482220.977     5734381.87149   4469060.83247  21482220.908    21482226.240
       237.000         197.000
 03  6  3 23  5 30.0000000  0  6G11G23G25G15G31G14
  22086794.480   -14393920.41749 -11192199.94146  22086794.071    22086800.635
       233.000         186.000
  22743742.687     5050129.64049   3891220.75046  22743741.515    22743750.101
       222.000         170.000
  20946059.634   -12607309.33249  -9811282.56547  20946059.455    20946066.008
       243.000         209.000
  24391861.877    16345946.07949  12586140.34744  24391862.155    24391874.862
       203.000         131.000
  24706907.388     8820431.11549   6870627.15545  24706906.584    24706920.655
       211.000         147.000
  21493811.532     5795290.66749   4516522.21047  21493811.394    21493817.148
       238.000         197.000
 03  6  3 23  6  0.0000000  0  6G11G23G25G15G31G14
  22076439.498   -14448336.12649 -11234601.77146  22076439.059    22076445.312
       233.000         187.000
  22752674.138     5097064.58149   3927793.38746  22752673.562    22752682.122
       221.000         169.000
  20936990.676   -12654966.71049  -9848418.14447  20936990.493    20936996.870
       243.000         209.000
  24414068.736    16462643.17049  12677072.76345  24414070.601    24414082.473
       205.000         132.000
  24720830.748     8893598.71249   6927640.66845  24720831.674    24720843.162
       207.000         146.000
  21505432.171     5856357.58949   4564106.80647  21505431.619    21505437.665
       238.000         197.000
 03  6  3 23  6 30.0000000  0  6G11G23G25G15G31G14
  22066172.248   -14502290.92349 -11276644.45046  22066172.457    22066177.782
       234.000         187.000
  22761642.006     5144190.58449   3964514.89946  22761642.243    22761649.752
       221.000         170.000
  20928014.173   -12702138.35049  -9885175.22947  20928014.077    20928020.519
       243.000         209.000
  24436290.833    16579419.31349  12768066.73245  24436291.128    24436304.623
       205.000         133.000
  24734760.720     8966800.69249   6984680.95745  24734760.662    24734772.394
       207.000         144.000
  21517082.687     5917581.04349   4611813.36747  21517082.274    21517088.274
       238.000         197.000
 03  6  3 23  7  0.0000000  0  6G11G23G25G15G31G14
  22055993.045   -14555783.21549 -11318326.73646  22055992.824    22055999.168
       233.000         187.000
  22770646.166     5191507.73649   4001385.35846  22770645.850    22770654.402
       221.000         169.000
  20919130.317   -12748823.25149  -9921553.03347  20919130.058    20919136.590
       243.000         209.000
  24458527.438    16696271.98049  12859120.35545  24458528.203    24458540.284
       209.000         137.000
  24748696.780     9040033.96749   7041745.63945  24748696.484    24748710.595
       206.000         146.000
  21528762.590     5978959.36949   4659640.61247  21528762.308    21528768.087
       237.000         197.000
 03  6  3 23  7 30.0000000  0  6G11G23G25G15G31G14
  22045901.964   -14608812.11049 -11359647.92647  22045901.870    22045907.953
       234.000         188.000
  22779686.723     5239016.07149   4038404.79646  22779686.541    22779694.276
       221.000         169.000
  20910339.195   -12795020.69249  -9957550.99847  20910339.243    20910345.463
       243.000         209.000
  24480778.107    16813197.98649  12950231.12945  24480779.699    24480792.344
       213.000         141.000
  24762638.146     9113294.93449   7098831.89445  24762638.362    24762650.692
       206.000         145.000
  21540471.530     6040490.41449   4707586.85747  21540471.392    21540476.922
       238.000         196.000
 03  6  3 23  8  0.0000000  0  6G11G23G25G15G31G14
  22035899.661   -14661374.33249 -11400605.48146  22035899.294    22035905.130
       233.000         187.000
  22788764.030     5286717.35449   4075574.58046  22788763.957    22788771.286
       222.000         169.000
  20901641.324   -12840728.33649  -9993167.30647  20901641.245    20901647.446
       243.000         210.000
  24503042.498    16930196.22049  13041398.18545  24503043.906    24503056.803
       213.000         143.000
  24776584.390     9186581.89549   7155938.41545  24776584.228    24776596.883
       205.000         143.000
  21552209.404     6102173.21549   4755651.35447  21552209.496    21552215.270
       237.000         196.000
 03  6  3 23  8 30.0000000  0  6G11G23G25G15G31G14
  22025986.401   -14713468.70949 -11441198.47447  22025985.937    22025992.690
       233.000         188.000
  22797878.062     5334611.58249   4112894.71746  22797877.798    22797885.903
       223.000         169.000
  20893036.761   -12885945.24249 -10028401.21847  20893036.452    20893043.189
       243.000         210.000
  24525319.966    17047263.77249  13132619.23445  24525320.464    24525334.791
       211.000         142.000
  24790534.772     9259891.50149   7213062.56545  24790534.560    24790548.687
       198.000         141.000
  21563975.795     6164005.89249   4803832.63647  21563975.510    21563981.303
       237.000         196.000
 03  6  3 23  9  0.0000000  0  6G11G23G25G15G31G14
  22016162.601   -14765093.24349 -11481425.36847  22016162.428    22016168.375
       234.000         188.000
  22807029.005     5382699.76749   4150365.98846  22807028.932    22807036.609
       222.000         169.000
  20884525.896   -12930669.98549 -10063251.63147  20884525.914    20884532.062
       243.000         210.000
  24547610.260    17164398.38449  13223892.53045  24547611.142    24547625.205
       208.000         140.000
  24804488.974     9333221.28749   7270202.41445  24804488.760    24804503.679
       199.000         140.000
  21575770.475     6225987.22749   4852129.76447  21575769.945    21575776.257
       237.000         196.000
 03  6  3 23  9 30.0000000  0  6G11G23G25G15G31G14
  22006428.406   -14816246.88849 -11521285.32847  22006428.527    22006434.063
       234.000         188.000
  22816216.843     5430981.97749   4187988.45146  22816216.042    22816223.984
       222.000         169.000
  20876108.851   -12974901.77349 -10097717.91947  20876108.611    20876115.017
       243.000         210.000
  24569912.860    17281597.43849  13315216.03145  24569912.883    24569926.304
       207.000         138.000
  24818446.569     9406567.81249   7327355.33645  24818445.298    24818460.801
       200.000         140.000
  21587593.067     6288115.21949   4900541.17047  21587592.920    21587598.707
       237.000         196.000
 03  6  3 23 10  0.0000000  0  6G11G23G25G15G31G14
  21996784.263   -14866927.26549 -11560776.50347  21996784.083    21996790.406
       234.000         188.000
  22825441.786     5479458.94649   4225762.67746  22825442.485    22825449.441
       223.000         169.000
  20867785.865   -13018639.17949 -10131798.97647  20867785.653    20867792.299
       244.000         210.000
  24592227.292    17398858.59649  13406587.91945  24592226.856    24592242.747
       207.000         138.000
  24832406.732     9479928.39549   7384519.20745  24832406.932    24832420.071
       198.000         138.000
  21599443.285     6350388.31349   4949065.63747  21599443.087    21599448.690
       238.000         196.000
 03  6  3 23 10 30.0000000  0  6G11G23G25G15G31G14
  21987230.373   -14917133.01749 -11599897.84047  21987230.087    21987236.228
       234.000         189.000
  22834703.826     5528131.17349   4263689.04846  22834704.303    22834711.393
       222.000         168.000
  20859557.226   -13061880.96149 -10165493.83047  20859557.249    20859563.509
       243.000         210.000
  24614553.021    17516179.45649  13498006.31245  24614552.700    24614567.762
       206.000         138.000
  24846369.022     9553300.19649   7441691.81745  24846368.987    24846383.506
       198.000         134.000
  21611320.772     6412804.98549   4997701.98947  21611320.324    21611326.258
       237.000         195.000
 03  6  3 23 11  0.0000000  0  6G11G23G25G15G31G14
  21977767.256   -14966862.24949 -11638647.86747  21977767.168    21977772.943
       235.000         189.000
  22844003.228     5576999.71149   4301768.37346  22844002.936    22844011.618
       224.000         168.000
  20851423.187   -13104625.80349 -10198801.46747  20851423.070    20851429.316
       244.000         211.000
  24636889.735    17633557.77149  13589469.50045  24636891.195    24636905.695
       204.000         137.000
  24860333.091     9626680.73949   7498871.21845  24860333.799    24860347.029
       195.000         132.000
  21623225.396     6475364.14249   5046449.36047  21623225.502    21623231.249
       237.000         195.000
 03  6  3 23 11 30.0000000  0  6G11G23G25G15G31G14
  21968395.001   -15016113.63549 -11677025.54447  21968394.787    21968400.926
       233.000         189.000
  22853340.014     5626064.31549   4340000.48146  22853339.642    22853347.728
       224.000         169.000
  20843383.767   -13146872.99349 -10231721.31747  20843383.626    20843389.945
       244.000         211.000
  24659236.752    17750990.35949  13680974.94145  24659236.646    24659251.129
       203.000         137.000
  24874298.051     9700066.50449   7556054.71144  24874299.211    24874309.909
       196.000         130.000
  21635156.713     6538063.43349   5095305.93747  21635156.463    21635162.584
       237.000         195.000
 03  6  3 23 12  0.0000000  0  5G11G23G25G15G14
  21959115.736   -15064876.11849 -11715022.26347  21959115.491    21959121.927
       234.000         189.000
  22862716.047     5675335.37749   4378393.47246  22862715.771    22862723.566
       223.000         169.000
  20835441.208   -13188611.36449 -10264244.69047  20835441.104    20835447.387
       244.000         211.000
  24681595.435    17868484.89949  13772528.64245  24681596.097    24681611.283
       202.000         136.000
  21647116.270     6600911.30049   5144278.27847  21647115.784    21647121.824
       237.000         195.000
 03  6  3 23 12 30.0000000  0  4G11G23G25G14
  21949930.043   -15113147.24649 -11752636.10447  21949929.880    21949936.144
       235.000         189.000
  22872131.563     5724814.08849   4416948.26746  22872131.233    22872138.667
       222.000         169.000
  20827595.775   -13229839.30149 -10296370.31847  20827595.626    20827601.835
       243.000         211.000
  21659103.892     6663906.55149   5193365.46847  21659103.645    21659109.389
       236.000         194.000
 03  6  3 23 13  0.0000000  0  4G11G23G25G14
  21940835.994   -15160936.69849 -11789874.61947  21940835.526    21940841.838
       235.000         190.000
  22881584.635     5774490.02349   4455656.74146  22881584.169    22881592.247
       223.000         168.000
  20819845.484   -13270567.08749 -10328106.22347  20819845.391    20819851.729
       243.000         211.000
  21671117.203     6727036.76349   5242557.82347  21671117.018    21671122.772
       236.000         194.000
 03  6  3 23 13 30.0000000  0  4G11G23G25G14
  21931832.719   -15208249.34549 -11826741.59547  21931832.338    21931838.799
       235.000         191.000
  22891073.979     5824356.71149   4494513.84646  22891073.799    22891081.767
       222.000         168.000
  20812189.391   -13310799.98049 -10359456.49447  20812189.201    20812195.506
       244.000         211.000
  21683154.625     6790293.66949   5291848.89947  21683154.345    21683160.047
       236.000         194.000
 03  6  3 23 14  0.0000000  0  4G11G23G25G14
  21922921.077   -15255080.14449 -11863233.11247  21922920.978    21922926.741
       235.000         191.000
  22900600.392     5874418.07749   4533522.65346  22900599.405    22900608.150
       221.000         167.000
  20804628.347   -13350533.45149 -10390417.60547  20804628.226    20804634.556
       244.000         211.000
  21695216.479     6853679.14849   5341240.16247  21695216.134    21695222.040
       236.000         193.000
 03  6  3 23 14 30.0000000  0  4G11G23G25G14
  21914101.927   -15301424.91149 -11899345.89447  21914101.833    21914107.889
       235.000         191.000
  22910164.359     5924677.42749   4572685.72146  22910163.504    22910172.263
       221.000         167.000
  20797162.996   -13389764.02849 -10420986.85247  20797162.944    20797169.160
       244.000         212.000
  21707303.068     6917194.49849   5390732.62647  21707302.777    21707308.251
       236.000         193.000
 03  6  3 23 15  0.0000000  0  4G11G23G25G14
  21905375.856   -15347280.63549 -11935077.60547  21905375.564    21905382.312
       235.000         191.000
  22919766.447     5975136.73749   4612004.61046  22919765.826    22919774.370
       222.000         166.000
  20789793.825   -13428489.13149 -10451162.22147  20789793.775    20789799.878
       244.000         212.000
  21719414.361     6980839.55149   5440326.16247  21719414.212    21719419.875
       236.000         193.000
 03  6  3 23 15 30.0000000  0  4G11G23G25G14
  21896743.002   -15392646.64749 -11970427.72247  21896742.710    21896748.633
       235.000         191.000
  22929406.587     6025795.63549   4651479.04046  22929406.013    22929414.022
       220.000         166.000
  20782520.847   -13466708.79449 -10480943.74547  20782520.690    20782527.088
       244.000         212.000
  21731549.818     7044611.78949   5490018.80247  21731549.511    21731555.168
       236.000         192.000
 03  6  3 23 16  0.0000000  0  4G11G23G25G14
  21888203.646   -15437521.23849 -12005394.91447  21888203.302    21888209.548
       236.000         191.000
  22939084.843     6076655.00849   4691109.66946  22939083.463    22939093.059
       220.000         166.000
  20775344.356   -13504421.37549 -10510330.13647  20775344.228    20775350.236
       244.000         212.000
  21743709.271     7108510.14749   5539809.71747  21743708.974    21743714.637
       235.000         192.000
 03  6  3 23 16 30.0000000  0  4G11G23G25G14
  21879758.287   -15481902.02749 -12039977.32547  21879758.299    21879764.001
       235.000         192.000
  22948801.519     6127716.22349   4730897.56746  22948801.595    22948809.836
       221.000         167.000
  20768264.664   -13541625.32449 -10539320.19147  20768264.540    20768270.571
       244.000         212.000
  21755892.634     7172534.04149   5589698.45547  21755892.419    21755898.404
       235.000         192.000
 03  6  3 23 17  0.0000000  0  4G11G23G25G14
  21871407.163   -15525787.54149 -12074173.81147  21871407.100    21871412.982
       236.000         192.000
  22958556.727     6178979.51349   4770842.92446  22958556.362    22958564.600
       221.000         166.000
  20761281.853   -13578320.14149 -10567913.52447  20761281.624    20761287.735
       244.000         212.000
  21768099.569     7236681.91849   5639683.80247  21768099.488    21768105.192
       234.000         192.000
 03  6  3 23 17 30.0000000  0  4G11G23G25G14
  21863150.438   -15569176.79149 -12107983.59447  21863150.036    21863156.341
       236.000         192.000
  22968350.391     6230445.17149   4810945.97446  22968349.772    22968357.874
       221.000         165.000
  20754396.138   -13614504.71549 -10596109.26447  20754396.021    20754402.124
       244.000         212.000
  21780329.749     7300951.95449   5689764.33247  21780329.282    21780335.299
       234.000         192.000
 03  6  3 23 18  0.0000000  0  4G11G23G25G14
  21854988.602   -15612067.25449 -12141404.71347  21854988.127    21854994.268
       235.000         192.000
  22978182.812     6282114.63449   4851207.84446  22978183.325    22978190.328
       220.000         165.000
  20747607.863   -13650177.24549 -10623906.00547  20747607.580    20747613.911
       244.000         212.000
  21792583.190     7365343.87849   5739939.84047  21792583.119    21792588.861
       234.000         191.000
 03  6  3 23 18 30.0000000  0  4G11G23G25G14
  21846922.032   -15654457.34349 -12174435.93047  21846921.431    21846928.028
       236.000         192.000
  22988054.129     6333988.69349   4891629.13546  22988052.702    22988061.389
       220.000         165.000
  20740917.252   -13685336.49549 -10651302.79147  20740917.112    20740923.314
       244.000         212.000
  21804859.515     7429856.43249   5790209.34947  21804859.320    21804864.976
       234.000         191.000
 03  6  3 23 19  0.0000000  0  4G11G23G25G14
  21838950.908   -15696345.90649 -12207076.34647  21838950.639    21838956.949
       237.000         192.000
  22997964.385     6386067.15049   4932209.68546  22997964.291    22997972.176
       219.000         165.000
  20734324.353   -13719982.36149 -10678299.53547  20734324.166    20734330.472
       244.000         212.000
  21817158.432     7494487.51449   5840571.21547  21817157.646    21817163.856
       234.000         191.000
 03  6  3 23 19 30.0000000  0  4G11G23G25G14
  21831075.399   -15737732.00649 -12239325.23347  21831075.331    21831081.113
       236.000         192.000
  23007913.603     6438350.43149   4972949.84146  23007913.473    23007920.475
       218.000         164.000
  20727829.240   -13754114.10949 -10704895.66947  20727828.863    20727835.314
       244.000         212.000
  21829479.603     7559235.55949   5891024.22447  21829479.506    21829485.080
       234.000         191.000
 03  6  3 23 20  0.0000000  0  4G11G23G25G14
  21823295.873   -15778613.60249 -12271181.00847  21823295.717    21823301.329
       236.000         192.000
  23017901.882     6490839.40149   5013850.28846  23017901.418    23017909.655
       219.000         163.000
  20721432.216   -13787730.55649 -10731090.27047  20721432.101    20721438.320
       244.000         212.000
  21841822.838     7624099.58649   5941567.60747  21841822.441    21841828.270
       235.000         191.000
 03  6  3 23 20 30.0000000  0  4G11G23G25G14
  21815612.555   -15818989.49349 -12302642.72147  21815612.186    21815618.313
       236.000         192.000
  23027929.438     6543534.45549   5054911.32846  23027928.427    23027936.501
       219.000         163.000
  20715133.380   -13820831.00349 -10756882.79947  20715133.222    20715139.479
       244.000         212.000
  21854187.869     7689078.08449   5992200.18847  21854187.321    21854193.464
       234.000         191.000
 03  6  3 23 21  0.0000000  0  4G11G23G25G14
  21808025.626   -15858858.79849 -12333709.69047  21808025.458    21808031.475
       236.000         193.000
  23037996.193     6596435.66549   5096132.98246  23037995.847    23038004.458
       219.000         163.000
  20708932.893   -13853414.78049 -10782272.72147  20708932.824    20708938.872
       244.000         212.000
  21866574.425     7754169.55949   6042920.80647  21866574.206    21866580.065
       234.000         190.000
 03  6  3 23 21 30.0000000  0  5G11G23G25G14G20
  21800533.526   -15898229.90349 -12364388.45647  21800533.255    21800539.394
       236.000         192.000
  23048100.462     6649533.62249   5137507.96346  23048100.352    23048108.395
       221.000         164.000
  20702828.955   -13885490.99749 -10807267.14548  20702828.870    20702834.906
       244.000         213.000
  21878980.195     7819362.43249   6093720.43547  21878979.648    21878985.721
       234.000         190.000
  24715084.585    -5149902.91549  -3469734.87745  24715083.454    24715092.188
       202.000         132.000
 03  6  3 23 22  0.0000000  0  5G11G23G25G14G20
  21793137.704   -15937095.01949 -12394672.94147  21793137.285    21793143.732
       236.000         192.000
  23058243.573     6702835.43949   5179041.81046  23058243.770    23058251.677
       220.000         165.000
  20696823.036   -13917052.35749 -10831860.38247  20696822.738    20696829.134
       244.000         212.000
  21891406.216     7884661.94449   6144603.15647  21891406.345    21891411.892
       233.000         189.000
  24698314.784    -5238028.65249  -3538404.19945  24698313.783    24698323.121
       207.000         133.000
 03  6  3 23 22 30.0000000  0  5G11G23G25G14G20
  21785840.272   -15975443.17449 -12424554.59947  21785840.247    21785846.620
       236.000         193.000
  23068427.308     6756350.99049   5220742.17946  23068427.450    23068435.717
       220.000         164.000
  20690916.931   -13948088.84249 -10856044.62248  20690916.736    20690923.022
       244.000         213.000
  21903854.227     7950076.42249   6195575.46047  21903853.877    21903859.308
       234.000         189.000
  24681536.575    -5326198.07449  -3607107.60045  24681535.928    24681544.336
       211.000         136.000
 03  6  3 23 23  0.0000000  0  5G11G23G25G14G20
  21778640.888   -16013276.31149 -12454034.94647  21778640.431    21778646.874
       237.000         193.000
  23078651.289     6810077.90449   5262607.25246  23078650.493    23078659.156
       221.000         164.000
  20685110.338   -13978602.75649 -10879821.66448  20685110.176    20685116.519
       244.000         213.000
  21916323.314     8015601.70949   6246634.11547  21916323.175    21916328.970
       234.000         189.000
  24664749.812    -5414413.26649  -3675846.64445  24664750.219    24664757.794
       212.000         139.000
 03  6  3 23 23 30.0000000  0  5G11G23G25G14G20
  21771539.472   -16050594.50349 -12483114.04147  21771539.247    21771545.237
       237.000         193.000
  23088915.259     6864015.13949   5304636.20646  23088915.267    23088923.725
       222.000         163.000
  20679403.009   -14008594.80249 -10903192.05948  20679402.937    20679409.000
       244.000         213.000
  21928812.864     8081234.58849   6297776.59947  21928812.499    21928818.414
       234.000         189.000
  24647954.182    -5502675.34449  -3744622.23645  24647953.357    24647962.322
       212.000         142.000
 03  6  3 23 24  0.0000000  0  5G11G23G25G14G20
  21764536.191   -16087397.08949 -12511791.36447  21764535.705    21764541.865
       237.000         194.000
  23099219.212     6918162.32649   5346828.75445  23099219.073    23099226.954
       219.000         162.000
  20673795.010   -14038065.00749 -10926155.82848  20673794.750    20673800.938
       244.000         213.000
  21941322.491     8146973.19849   6349001.47447  21941322.568    21941328.545
       233.000         189.000
  24631149.651    -5590983.83849  -3813433.96445  24631148.761    24631157.540
       211.000         141.000
 03  6  3 23 24 30.0000000  0  5G11G23G25G14G20
  21757631.144   -16123683.31849 -12540066.32347  21757630.946    21757637.024
       237.000         193.000
  23109563.056     6972519.47349   5389184.91845  23109562.303    23109570.956
       219.000         162.000
  20668286.334   -14067013.10549 -10948712.75448  20668286.063    20668292.243
       245.000         213.000
  21953851.894     8212815.76949   6400307.35447  21953851.945    21953857.354
       233.000         189.000
  24614336.197    -5679338.53549  -3882281.70145  24614334.481    24614344.689
       213.000         140.000
 03  6  3 23 25  0.0000000  0  5G11G23G25G14G20
  21750824.617   -16159451.68749 -12567937.76647  21750824.188    21750830.254
       236.000         193.000
  23119946.929     7027087.24349   5431705.19045  23119947.054    23119955.052
       219.000         161.000
  20662877.201   -14095438.24049 -10970862.18048  20662877.118    20662883.039
       244.000         213.000
  21966400.950     8278761.37449   6451693.52047  21966400.567    21966406.592
       233.000         188.000
  24597514.198    -5767738.31949  -3951164.58445  24597514.295    24597522.612
       212.000         139.000
 03  6  3 23 25 30.0000000  0  5G11G23G25G14G20
  21744116.682   -16194702.04249 -12595405.55447  21744116.421    21744122.453
       237.000         193.000
  23130370.815     7081865.01349   5474389.10545  23130370.897    23130378.485
       219.000         161.000
  20657567.551   -14123340.55349 -10992604.21148  20657567.374    20657573.445
       244.000         213.000
  21978969.186     8344807.62249   6503158.11547  21978968.557    21978974.795
       234.000         188.000
  24580683.587    -5856183.42849  -4020082.79645  24580682.478    24580691.289
       212.000         138.000
 03  6  3 23 26  0.0000000  0  5G11G23G25G14G20
  21737507.619   -16229432.70849 -12622468.39147  21737507.557    21737513.389
       237.000         193.000
  23140834.910     7136853.84849   5517237.48745  23140834.703    23140843.044
       220.000         162.000
  20652357.546   -14150719.11449 -11013938.12248  20652357.281    20652363.506
       245.000         213.000
  21991556.376     8410953.79849   6554700.57447  21991555.763    21991561.822
       233.000         188.000
  24563844.581    -5944672.43749  -4089035.22245  24563843.135    24563850.440
       212.000         135.000
 03  6  3 23 26 30.0000000  0  5G11G23G25G14G20
  21730997.608   -16263643.02349 -12649125.76847  21730997.653    21731003.467
       237.000         193.000
  23151339.104     7192053.49549   5560250.14445  23151339.281    23151346.735
       219.000         161.000
  20647247.200   -14177574.08649 -11034864.04848  20647247.018    20647253.255
       245.000         213.000
  22004162.224     8477198.04049   6606319.44247  22004161.436    22004167.802
       232.000         188.000
  24546997.262    -6033205.17149  -4158021.74145  24546997.078    24547004.114
       208.000         133.000
 03  6  3 23 27  0.0000000  0  5G11G23G25G14G20
  21724586.929   -16297331.27449 -12675376.33147  21724586.831    21724592.661
       237.000         193.000
  23161883.578     7247464.90049   5603427.82145  23161883.312    23161891.239
       219.000         161.000
  20642236.769   -14203904.06349 -11055380.88748  20642236.617    20642242.658
       245.000         213.000
  22016786.547     8543539.48249   6658014.05346  22016786.446    22016792.401
       232.000         187.000
  24530141.848    -6121780.31849  -4227041.29245  24530141.097    24530149.721
       210.000         134.000
 03  6  3 23 27 30.0000000  0  5G11G23G25G14G20
  21718275.709   -16330496.76849 -12701219.55947  21718275.691    21718281.774
       237.000         194.000
  23172468.313     7303088.30749   5646770.66945  23172467.784    23172476.214
       219.000         160.000
  20637326.243   -14229708.99749 -11075488.59548  20637326.136    20637332.236
       244.000         213.000
  22029429.179     8609976.87549   6709783.42146  22029429.204    22029434.920
       232.000         187.000
  24513278.504    -6210397.11149  -4296093.28345  24513277.981    24513285.254
       208.000         136.000
 03  6  3 23 28  0.0000000  0  5G11G23G25G14G20
  21712064.366   -16363137.96849 -12726654.24147  21712064.141    21712069.941
       238.000         194.000
  23183093.566     7358924.20649   5690279.10245  23183092.369    23183101.038
       217.000         161.000
  20632515.800   -14254987.89149 -11095186.40548  20632515.697    20632521.697
       244.000         213.000
  22042089.893     8676509.14549   6761626.73146  22042089.709    22042095.794
       233.000         187.000
  24496407.516    -6299054.61049  -4365176.97545  24496407.250    24496415.819
       210.000         138.000
 03  6  3 23 28 30.0000000  0  5G11G23G25G14G20
  21705952.722   -16395254.88649 -12751680.39847  21705952.542    21705958.534
       237.000         194.000
  23193759.246     7414972.16649   5733952.76745  23193759.494    23193767.173
       217.000         160.000
  20627805.342   -14279741.40249 -11114474.82748  20627805.118    20627811.301
       244.000         213.000
  22054768.260     8743134.07649   6813542.22946  22054768.022    22054773.811
       233.000         187.000
  24479528.867    -6387752.74149  -4434292.35845  24479528.635    24479536.100
       206.000         138.000
 03  6  3 23 29  0.0000000  0  5G11G23G25G14G20
  21699941.110   -16426846.02249 -12776296.85547  21699941.073    21699946.622
       237.000         194.000
  23204465.416     7471233.00349   5777792.31445  23204465.323    23204473.373
       217.000         160.000
  20623194.987   -14303968.85149 -11133353.32648  20623194.849    20623200.855
       244.000         214.000
  22067464.086     8809850.87449   6865529.32446  22067463.603    22067469.425
       232.000         187.000
  24462642.580    -6476490.40049  -4503438.48645  24462640.217    24462649.305
       202.000         136.000
 03  6  3 23 29 30.0000000  0  5G11G23G25G14G20
  21694029.802   -16457910.34649 -12800502.81247  21694029.586    21694035.245
       237.000         194.000
  23215212.142     7527706.96749   5821797.94245  23215211.953    23215220.726
       217.000         159.000
  20618684.861   -14327669.78249 -11151821.55548  20618684.861    20618690.531
       245.000         213.000
  22080177.087     8876657.98749   6917586.78546  22080176.932    22080182.631
       232.000         186.000
  24445749.070    -6565266.62449  -4572614.70645  24445748.920    24445756.723
       207.000         138.000
 03  6  3 23 30  0.0000000  0  5G11G23G25G14G20
  21688218.891   -16488446.73949 -12824297.39247  21688218.559    21688224.089
       237.000         194.000
  23225999.468     7584394.41049   5865969.90345  23225999.205    23226007.761
       216.000         158.000
  20614274.947   -14350843.85249 -11169879.23948  20614274.765    20614280.845
       244.000         214.000
  22092907.084     8943554.46049   6969713.88146  22092906.869    22092912.577
       231.000         186.000
  24428848.284    -6654080.56849  -4641820.30445  24428847.251    24428856.460
       205.000         138.000
 03  6  3 23 30 30.0000000  0  5G11G23G25G14G20
  21682508.699   -16518453.88049 -12847679.56847  21682508.532    21682514.220
       238.000         194.000
  23236827.581     7641296.12849   5910308.85745  23236827.379    23236835.627
       217.000         158.000
  20609965.489   -14373490.10849 -11187525.64248  20609965.488    20609971.354
       245.000         214.000
  22105653.910     9010539.52149   7021909.99646  22105653.535    22105659.618
       232.000         185.000
  24411940.536    -6742930.93049  -4711054.28945  24411939.196    24411949.143
       208.000         142.000
 03  6  3 23 31  0.0000000  0  5G11G23G25G14G20
  21676899.388   -16547931.07149 -12870648.80247  21676899.205    21676905.205
       237.000         194.000
  23247696.428     7698412.35249   5954814.94245  23247696.055    23247704.426
       217.000         159.000
  20605756.491   -14395608.32249 -11204760.58448  20605756.372    20605762.364
       244.000         214.000
  22118417.320     9077611.69249   7074173.99546  22118416.989    22118423.005
       231.000         185.000
  24395026.191    -6831816.88549  -4780316.02345  24395026.075    24395034.447
       209.000         144.000
 03  6  3 23 31 30.0000000  0  5G11G23G25G14G20
  21671391.037   -16576877.61849 -12893204.54547  21671390.608    21671396.716
       238.000         195.000
  23258606.104     7755743.00149   5999488.12245  23258605.682    23258614.423
       217.000         159.000
  20601647.963   -14417198.52049 -11221584.08148  20601647.656    20601653.835
       245.000         214.000
  22131197.026     9144769.38949   7126504.63846  22131196.811    22131202.770
       231.000         184.000
  24378105.107    -6920737.83549  -4849605.02545  24378103.960    24378113.014
       208.000         143.000
 03  6  3 23 32  0.0000000  0  5G11G23G25G14G20
  21665983.922   -16605292.24949 -12915345.80847  21665983.642    21665989.609
       238.000         195.000
  23269556.753     7813288.66849   6044328.84245  23269556.411    23269565.725
       216.000         159.000
  20597640.048   -14438260.14449 -11237995.70648  20597639.971    20597645.918
       245.000         214.000
  22143992.854     9212011.75349   7178901.25346  22143993.003    22143998.063
       231.000         184.000
  24361177.423    -7009692.59049  -4918920.36645  24361176.209    24361184.507
       205.000         142.000
 03  6  3 23 32 30.0000000  0  5G11G23G25G14G20
  21660678.239   -16633173.71549 -12937071.62547  21660677.915    21660683.656
       237.000         195.000
  23280548.294     7871050.09149   6089337.66845  23280547.972    23280556.164
       214.000         158.000
  20593732.907   -14458792.18249 -11253994.67148  20593732.716    20593738.651
       244.000         214.000
  22156804.673     9279338.21249   7231363.39546  22156804.393    22156810.272
       231.000         184.000
  24344243.472    -7098679.83749  -4988261.01245  24344243.181    24344252.590
       206.000         141.000
 03  6  3 23 33  0.0000000  0  5G11G23G25G14G20
  21655474.120   -16660521.37149 -12958381.47847  21655473.518    21655479.610
       237.000         195.000
  23291581.034     7929027.34049   6134514.67645  23291580.574    23291589.517
       215.000         158.000
  20589926.494   -14478794.89649 -11269581.16448  20589926.461    20589932.431
       245.000         214.000
  22169632.151     9346747.10949   7283889.78146  22169632.153    22169637.843
       232.000         184.000
  24327303.587    -7187698.99249  -5057626.51745  24327302.479    24327311.316
       208.000         144.000
 03  6  3 23 33 30.0000000  0  5G11G23G25G14G20
  21650371.800   -16687334.23349 -12979274.61247  21650371.320    21650377.686
       238.000         195.000
  23302654.897     7987220.66449   6179860.03445  23302655.118    23302664.253
       213.000         158.000
  20586220.800   -14498268.30849 -11284755.22348  20586220.786    20586226.677
       244.000         214.000
  22182475.194     9414237.42149   7336479.60046  22182475.412    22182480.854
       232.000         184.000
  24310357.929    -7276749.12949  -5127016.17645  24310358.449    24310366.102
       210.000         145.000
 03  6  3 23 34  0.0000000  0  6G11G23G25G14G20G30
  21645370.704   -16713615.02749 -12999753.14647  21645370.602    21645376.471
       238.000         195.000
  23313769.294     8045626.94949   6225371.35545  23313768.784    23313778.042
       215.000         158.000
  20582615.294   -14517215.37049 -11299519.13448  20582615.062    20582621.029
       244.000         214.000
  22195332.817     9481804.47449   7389129.22446  22195332.461    22195338.601
       232.000         184.000
  24293405.830    -7365832.67349  -5196431.84745  24293405.425    24293413.507
       209.000         144.000
  24507444.202    -4666413.97049  -3629685.85445  24507445.788    24507453.288
       208.000         135.000
 03  6  3 23 34 30.0000000  0  6G11G23G25G14G20G30
  21640471.942   -16739358.23849 -13019812.78547  21640471.663    21640477.848
       239.000         195.000
  23324925.079     8104251.12749   6271052.43945  23324924.661    23324933.348
       214.000         157.000
  20579110.904   -14535630.98949 -11313868.93948  20579110.638    20579116.599
       244.000         214.000
  22208205.681     9549451.72749   7441841.34546  22208205.279    22208210.868
       231.000         184.000
  24276448.522    -7454943.87249  -5265869.07545  24276447.395    24276455.864
       211.000         144.000
  24504107.300    -4683950.16949  -3643350.39945  24504107.929    24504115.717
       209.000         135.000
 03  6  3 23 35  0.0000000  0  6G11G23G25G14G20G30
  21635675.380   -16764564.21149 -13039453.79747  21635675.104    21635681.131
       239.000         195.000
  23336122.378     8163092.50849   6316902.79745  23336122.868    23336131.257
       215.000         158.000
  20575707.438   -14553516.17249 -11327805.42048  20575707.244    20575713.183
       244.000         214.000
  22221093.412     9617177.07649   7494614.31446  22221093.117    22221099.440
       231.000         184.000
  24259485.950    -7544082.75649  -5335327.88745  24259485.558    24259493.108
       211.000         143.000
  24500857.463    -4701028.32649  -3656658.05145  24500857.789    24500867.346
       207.000         135.000
 03  6  3 23 35 30.0000000  0  6G11G23G25G14G20G30
  21630981.287   -16789231.96249 -13058675.42047  21630981.313    21630986.817
       238.000         195.000
  23347361.015     8222151.30449   6362922.58245  23347360.858    23347370.024
       216.000         159.000
  20572404.818   -14570871.29549 -11341328.86348  20572404.671    20572410.671
       244.000         214.000
  22233995.718     9684979.11849   7547447.03946  22233995.885    22234001.142
       231.000         183.000
  24242518.222    -7633248.74849  -5404807.81645  24242517.664    24242526.424
       212.000         144.000
  24497694.816    -4717646.76249  -3669607.44445  24497695.998    24497704.652
       208.000         134.000
 03  6  3 23 36  0.0000000  0  6G11G23G25G14G20G30
  21626389.742   -16813360.64349 -13077476.98647  21626389.722    21626395.417
       239.000         195.000
  23358641.017     8281427.89749   6409112.05945  23358640.879    23358649.575
       217.000         159.000
  20569203.295   -14587695.34049 -11354438.48148  20569203.187    20569209.076
       244.000         214.000
  22246912.567     9752857.23349   7600339.05046  22246912.353    22246918.509
       231.000         183.000
  24225545.592    -7722440.15949  -5474307.55845  24225544.944    24225553.970
       213.000         144.000
  24494620.150    -4733803.68649  -3682197.20445  24494620.487    24494629.622
       210.000         135.000
 03  6  3 23 36 30.0000000  0  6G11G23G25G14G20G30
  21621900.778   -16836950.39149 -13095858.59447  21621900.420    21621906.150
       239.000         195.000
  23369962.437     8340921.71649   6455470.80845  23369961.702    23369970.391
       216.000         159.000
  20566102.653   -14603989.27649 -11367135.02748  20566102.464    20566108.376
       244.000         214.000
  22259843.570     9820809.63149   7653288.93846  22259842.941    22259849.108
       230.000         183.000
  24208568.194    -7811656.95749  -5543827.07345  24208567.847    24208576.069
       212.000         144.000
  24491633.477    -4749498.49449  -3694426.89545  24491633.985    24491642.475
       209.000         137.000
 03  6  3 23 37  0.0000000  0  6G11G23G25G14G20G30
  21617514.578   -16860000.06049 -13113819.36847  21617514.276    21617519.916
       239.000         195.000
  23381325.345     8400633.54049   6501999.43345  23381325.275    23381333.682
       216.000         158.000
  20563102.958   -14619752.45849 -11379418.00048  20563102.560    20563108.717
       244.000         214.000
  22272788.389     9888835.36849   7706295.97646  22272788.160    22272794.401
       229.000         182.000
  24191586.151    -7900897.84549  -5613365.36845  24191584.934    24191594.326
       210.000         144.000
  24488735.168    -4764729.22949  -3706294.94445  24488737.390    24488743.775
       211.000         138.000
 03  6  3 23 37 30.0000000  0  6G11G23G25G14G20G30
  21613231.233   -16882509.10849 -13131358.88247  21613230.812    21613237.119
       238.000         195.000
  23392729.750     8460563.56649   6548698.06445  23392730.130    23392738.194
       216.000         158.000
  20560204.218   -14634985.23949 -11391287.67348  20560204.107    20560209.959
       244.000         214.000
  22285746.889     9956933.06349   7759359.06846  22285746.749    22285752.790
       229.000         182.000
  24174599.702    -7990161.89749  -5682921.70345  24174599.773    24174606.941
       208.000         143.000
  24485925.523    -4779494.48149  -3717800.29345  24485924.317    24485935.173
       210.000         139.000
 03  6  3 23 38  0.0000000  0  6G11G23G25G14G20G30
  21609050.921   -16904476.80649 -13148476.56347  21609050.745    21609056.465
       239.000         195.000
  23404175.588     8520711.82049   6595566.75345  23404175.456    23404183.992
       217.000         158.000
  20557406.465   -14649687.58249 -11402744.02048  20557406.294    20557412.396
       244.000         214.000
  22298718.956    10025101.69549   7812477.43946  22298718.648    22298725.094
       230.000         182.000
  24157608.979    -8079448.43749  -5752495.58645  24157608.016    24157616.229
       207.000         140.000
  24483204.711    -4793792.95449  -3728941.93745  24483207.748    24483213.635
       213.000         140.000
 03  6  3 23 38 30.0000000  0  6G11G23G25G14G20G30
  21604973.765   -16925902.35949 -13165171.79347  21604973.778    21604979.371
       239.000         195.000
  23415663.192     8581078.85049   6642605.90745  23415663.294    23415671.232
       217.000         158.000
  20554709.727   -14663858.92349 -11413786.59348  20554709.631    20554715.352
       244.000         214.000
  22311704.483    10093340.55849   7865650.54146  22311704.069    22311709.960
       230.000         182.000
  24140614.262    -8168755.81649  -5822085.66945  24140613.231    24140621.232
       208.000         138.000
  24480573.053    -4807622.63549  -3739718.29245  24480572.123    24480583.656
       211.000         138.000
 03  6  3 23 39  0.0000000  0  6G11G23G25G14G20G30
  21600999.853   -16946785.54349 -13181444.39647  21600999.699    21601005.572
       239.000         195.000
  23427192.286     8641664.55949   6689815.47345  23427192.112    23427200.660
       216.000         158.000
  20552114.026   -14677499.60249 -11424415.66848  20552113.908    20552119.903
       244.000         214.000
  22324703.137    10161648.35549   7918877.36246  22324703.010    22324709.121
       231.000         182.000
  24123615.834    -8258083.05749  -5891691.23245  24123614.399    24123623.332
       207.000         139.000
  24478030.683    -4820982.41649  -3750128.45645  24478031.561    24478040.737
       210.000         139.000
 03  6  3 23 39 30.0000000  0  6G11G23G25G14G20G30
  21597129.381   -16967125.13549 -13197293.42447  21597129.259    21597134.695
       239.000         195.000
  23438763.133     8702469.53949   6737195.90345  23438762.662    23438772.143
       217.000         158.000
  20549619.221   -14690609.65549 -11434631.26848  20549619.095    20549624.948
       244.000         214.000
  22337714.685    10230024.34949   7972157.33746  22337714.242    22337720.546
       230.000         181.000
  24106613.840    -8347428.92249  -5961311.31545  24106613.619    24106621.291
       210.000         140.000
  24475578.224    -4833870.41249  -3760171.00245  24475577.880    24475586.774
       211.000         140.000
 03  6  3 23 40  0.0000000  0  6G11G23G25G14G20G30
  21593362.336   -16986921.01449 -13212718.77447  21593362.126    21593367.915
       239.000         195.000
  23450375.714     8763493.41149   6784746.89445  23450375.183    23450384.689
       215.000         158.000
  20547225.324   -14703189.57849 -11444433.78048  20547225.252    20547231.234
       244.000         214.000
  22350738.804    10298466.74849   8025489.04346  22350738.096    22350745.036
       230.000         181.000
  24089608.412    -8436792.78249  -6030945.42445  24089608.011    24089616.484
       208.000         142.000
  24473215.653    -4846286.06249  -3769845.49345  24473214.136    24473224.447
       210.000         139.000
 03  6  3 23 40 30.0000000  0  6G11G23G25G14G20G30
  21589698.816   -17006172.81149 -13227720.17047  21589698.573    21589704.470
       239.000         195.000
  23462029.897     8824736.44349   6832468.66145  23462029.585    23462038.667
       215.000         158.000
  20544932.316   -14715239.23749 -11453823.10348  20544932.259    20544938.238
       244.000         214.000
  22363775.437    10366974.73649   8078871.87046  22363775.291    22363781.160
       230.000         180.000
  24072599.758    -8526173.76849  -6100592.86445  24072599.526    24072606.825
       209.000         143.000
  24470943.198    -4858227.65549  -3779150.59945  24470941.710    24470952.149
       211.000         140.000
 03  6  3 23 41  0.0000000  0  6G11G23G25G14G20G30
  21586139.037   -17024879.46949 -13242296.78147  21586138.717    21586144.622
       238.000         195.000
  23473725.987     8886199.43249   6880361.83045  23473725.868    23473734.662
       216.000         157.000
  20542740.299   -14726758.08549 -11462798.80248  20542740.297    20542746.002
       244.000         214.000
  22376824.521    10435547.93749   8132305.50746  22376824.327    22376830.255
       229.000         180.000
  24055588.298    -8615569.96549  -6170252.15345  24055588.493    24055595.034
       210.000         145.000
  24468761.193    -4869693.31349  -3788084.84445  24468759.670    24468774.498
       210.000         141.000
 03  6  3 23 41 30.0000000  0  6G11G23G25G14G20G30
  21582682.951   -17043041.06349 -13256448.67047  21582682.740    21582688.635
       239.000         195.000
  23485463.830     8947881.83049   6928425.95145  23485462.832    23485472.751
       214.000         156.000
  20540649.162   -14737747.04349 -11471361.60748  20540649.154    20540655.064
       244.000         214.000
  22389885.647    10504184.61449   8185788.60846  22389885.175    22389891.556
       229.000         179.000
  24038573.895    -8704981.09649  -6239923.09145  24038572.513    24038581.864
       211.000         147.000
  24466669.988    -4880682.47549  -3796647.78345  24466670.357    24466681.679
       209.000         144.000
 03  6  3 23 42  0.0000000  0  6G11G23G25G14G20G30
  21579330.882   -17060656.37449 -13270174.87947  21579330.760    21579336.521
       239.000         196.000
  23497243.498     9009784.51249   6976661.70845  23497243.507    23497252.602
       215.000         155.000
  20538658.972   -14748205.48749 -11479511.02248  20538658.802    20538664.699
       244.000         214.000
  22402958.772    10572884.29949   8239320.79346  22402958.135    22402964.659
       228.000         179.000
  24021556.970    -8794405.27249  -6309604.17945  24021556.293    24021563.945
       213.000         149.000
  24464669.888    -4891193.06949  -3804837.85745  24464669.302    24464678.048
       211.000         141.000
 03  6  3 23 42 30.0000000  0  6G11G23G25G14G20G30
  21576082.687   -17077725.79149 -13283475.72447  21576082.389    21576088.313
       239.000         196.000
  23509065.086     9071906.81849   7025068.60945  23509064.263    23509074.399
       214.000         155.000
  20536769.601   -14758134.10849 -11487247.59048  20536769.360    20536775.288
       244.000         214.000
  22416043.564    10641645.36849   8292900.82746  22416043.476    22416049.697
       227.000         178.000
  24004537.697    -8883842.05149  -6379295.11245  24004536.475    24004544.718
       214.000         151.000
  24462760.899    -4901224.60349  -3812654.60245  24462759.474    24462770.454
       209.000         140.000
 03  6  3 23 43  0.0000000  0  6G11G23G25G14G20G30
  21572938.617   -17094248.11649 -13296350.26447  21572938.585    21572944.199
       239.000         196.000
  23520928.528     9134249.38149   7073647.14245  23520928.760    23520936.888
       213.000         155.000
  20534981.076   -14767532.71549 -11494571.16548  20534980.829    20534986.786
       244.000         214.000
  22429139.839    10710467.08149   8346528.10546  22429139.999    22429146.361
       227.000         178.000
  23987516.213    -8973290.24749  -6448994.92845  23987515.369    23987523.358
       213.000         152.000
  24460943.395    -4910775.43449  -3820096.78545  24460941.742    24460952.608
       210.000         139.000
 03  6  3 23 43 30.0000000  0  6G11G23G25G14G20G30
  21569898.659   -17110223.21749 -13308798.39247  21569898.300    21569904.163
       239.000         196.000
  23532833.896     9196812.32049   7122397.37745  23532834.238    23532842.807
       212.000         153.000
  20533293.372   -14776401.62649 -11501481.98948  20533293.297    20533299.130
       244.000         214.000
  22442247.623    10779348.66549   8400202.04046  22442247.525    22442254.032
       228.000         177.000
  23970492.808    -9062748.31249  -6518702.44545  23970492.463    23970500.572
       215.000         154.000
  24459217.734    -4919844.08549  -3827163.24145  24459218.865    24459225.994
       211.000         138.000
 03  6  3 23 44  0.0000000  0  6G11G23G25G14G20G30
  21566962.998   -17125650.15249 -13320819.38347  21566962.762    21566968.715
       239.000         196.000
  23544781.382     9259596.21349   7171319.81045  23544781.417    23544790.286
       213.000         153.000
  20531706.496   -14784740.61249 -11507979.88448  20531706.465    20531712.278
       244.000         214.000
  22455366.625    10848289.33649   8453922.01846  22455366.473    22455372.635
       228.000         177.000
  23953467.756    -9152215.06149  -6588416.72945  23953467.130    23953475.209
       214.000         155.000
  24457584.138    -4928429.06149  -3833852.82045  24457584.666    24457592.569
       212.000         138.000
 03  6  3 23 44 30.0000000  0  6G11G23G25G14G20G30
  21564131.574   -17140529.14049 -13332413.39947  21564131.313    21564137.230
       238.000         196.000
  23556770.626     9322600.45049   7220413.93945  23556770.777    23556779.114
       211.000         151.000
  20530220.300   -14792550.57049 -11514065.55248  20530220.274    20530226.054
       244.000         214.000
  22468496.647    10917287.54949   8507686.82646  22468496.544    22468502.259
       227.000         178.000
  23936441.275    -9241689.70449  -6658137.16845  23936440.597    23936448.653
       217.000         155.000
  24456042.576    -4936529.74149  -3840165.03245  24456037.947    24456054.435
       212.000         137.000
 03  6  3 23 45  0.0000000  0  6G11G23G25G14G20G30
  21561404.572   -17154859.60049 -13343579.98947  21561404.400    21561410.192
       239.000         196.000
  23568802.132     9385825.89849   7269680.42645  23568801.928    23568810.083
       213.000         152.000
  20528834.818   -14799831.36349 -11519738.87948  20528834.723    20528840.492
       244.000         214.000
  22481637.494    10986343.01849   8561496.25646  22481637.556    22481643.122
       227.000         178.000
  23919413.571    -9331170.61549  -6727862.49245  23919412.925    23919421.132
       215.000         154.000
  24454593.570    -4944144.19549  -3846098.37645  24454593.877    24454601.604
       215.000         137.000
 03  6  3 23 45 30.0000000  0  6G11G23G25G14G20G30
  21558781.992   -17168641.57549 -13354319.19347  21558781.936    21558787.903
       239.000         196.000
  23580875.601     9449271.61849   7319118.55845  23580875.829    23580884.127
       214.000         152.000
  20527549.841   -14806583.94949 -11525000.61848  20527549.663    20527555.483
       244.000         214.000
  22494788.826    11055453.76749   8615348.75046  22494788.492    22494794.966
       228.000         178.000
  23902384.750    -9420657.33549  -6797592.34645  23902384.354    23902392.715
       214.000         153.000
  24453237.139    -4951272.25749  -3851652.69845  24453237.736    24453246.286
       213.000         138.000
 03  6  3 23 46  0.0000000  0  6G11G23G25G14G20G30
  21556263.771   -17181874.78149 -13364630.78447  21556263.679    21556269.441
       239.000         196.000
  23592990.995     9512938.04049   7368728.66145  23592991.522    23593000.494
       214.000         151.000
  20526365.357   -14812808.36349 -11529850.79548  20526365.183    20526371.117
       244.000         214.000
  22507950.581    11124619.23049   8669243.89646  22507950.190    22507956.642
       227.000         178.000
  23885355.132    -9510148.45449  -6867325.60445  23885354.913    23885362.882
       215.000         152.000
  24451973.565    -4957912.49149  -3856826.90945  24451973.421    24451984.198
       212.000         140.000
 03  6  3 23 46 30.0000000  0  6G11G23G25G14G20G30
  21553850.040   -17194559.01549 -13374514.60147  21553850.050    21553855.861
       239.000         196.000
  23605148.533     9576825.32949   7418510.86845  23605147.686    23605157.003
       211.000         151.000
  20525281.378   -14818504.57649 -11534289.38748  20525281.283    20525287.111
       244.000         214.000
  22521122.698    11193838.47949   8723180.93746  22521122.291    22521128.742
       228.000         178.000
  23868324.933    -9599642.63949  -6937061.25845  23868324.813    23868332.164
       214.000         152.000
  24450803.045    -4964063.64349  -3861620.03945  24450805.370    24450812.278
       214.000         140.000
 03  6  3 23 47  0.0000000  0  6G11G23G25G14G20G30
  21551540.959   -17206693.46549 -13383970.01947  21551540.449    21551546.664
       238.000         196.000
  23617348.002     9640933.94249   7468465.53045  23617347.171    23617356.932
       211.000         150.000
  20524297.890   -14823672.92749 -11538316.66148  20524297.934    20524303.532
       244.000         214.000
  22534304.873    11263110.98049   8777159.47846  22534304.646    22534310.801
       227.000         178.000
  23851294.483    -9689138.48049  -7006798.20645  23851294.023    23851301.101
       214.000         152.000
  24449725.749    -4969724.47049  -3866031.08145  24449726.776    24449734.571
       215.000         139.000
 03  6  3 23 47 30.0000000  0  6G11G23G25G14G20G30
  21549336.523   -17218277.62149 -13392996.63347  21549336.165    21549342.025
       239.000         196.000
  23629589.615     9705264.32149   7518592.99145  23629590.275    23629597.903
       209.000         148.000
  20523414.807   -14828313.45849 -11541932.64748  20523414.686    20523420.477
       244.000         214.000
  22547496.985    11332436.15949   8831179.05846  22547496.413    22547502.457
       227.000         179.000
  23834263.908    -9778634.33649  -7076535.15745  23834263.143    23834270.842
       211.000         150.000
  24448742.170    -4974893.28749  -3870058.73345  24448740.039    24448752.189
       213.000         138.000
 03  6  3 23 48  0.0000000  0  6G11G23G25G14G20G30
  21547236.845   -17229311.50249 -13401594.46747  21547236.688    21547242.682
       239.000         196.000
  23641873.412     9769816.12549   7568893.00945  23641874.271    23641881.992
       211.000         147.000
  20522632.041   -14832426.87449 -11545137.89148  20522631.988    20522637.827
       244.000         214.000
  22560698.969    11401812.79849   8885238.74446  22560698.463    22560704.852
       227.000         178.000
  23817233.419    -9868129.35549  -7146271.45945  23817232.773    23817240.503
       210.000         147.000
  24447852.427    -4979569.41749  -3873702.48745  24447853.403    24447860.836
       212.000         137.000
 03  6  3 23 48 30.0000000  0  6G11G23G25G14G20G30
  21545241.879   -17239795.20649 -13409763.58647  21545241.959    21545247.211
       239.000         196.000
  23654199.385     9834589.10249   7619365.34745  23654199.189    23654208.615
       211.000         147.000
  20521949.467   -14836013.80749 -11547932.88848  20521949.300    20521955.180
       244.000         214.000
  22573910.422    11471239.61149   8939337.52346  22573910.047    22573916.545
       227.000         178.000
  23800203.355    -9957622.65249  -7216006.41645  23800202.523    23800209.425
       209.000         143.000
  24447056.543    -4983752.11549  -3876961.73445  24447057.664    24447065.150
       211.000         137.000
 03  6  3 23 49  0.0000000  0  6G11G23G25G14G20G30
  21543351.604   -17249728.69849 -13417503.96847  21543351.498    21543357.279
       239.000         196.000
  23666567.454     9899583.29949   7670010.08945  23666567.726    23666575.764
       213.000         148.000
  20521366.996   -14839074.61049 -11550317.91748  20521366.803    20521372.745
       243.000         214.000
  22587131.404    11540715.75649   8993474.73346  22587131.314    22587137.109
       226.000         177.000
  23783173.801   -10047112.89749  -7285738.97845  23783172.452    23783181.195
       207.000         143.000
  24446354.635    -4987440.40249  -3879835.72945  24446354.291    24446362.112
       210.000         137.000
 03  6  3 23 49 30.0000000  0  7G11G23G25G14G20G 1G30
  21541564.341   -17259120.86249 -13424822.54047  21541563.956    21541569.930
       239.000         196.000
  23678976.072     9964789.70749   7720820.19045  23678975.836    23678983.993
       212.000         149.000
  20520882.800   -14841618.94149 -11552300.49848  20520882.729    20520888.536
       243.000         214.000
  22600359.756    11610231.35949   9047642.68746  22600360.016    22600365.466
       226.000         176.000
  23766143.414   -10136608.10949  -7355475.42745  23766143.101    23766150.770
       209.000         142.000
  24631303.435    -4337533.81349  -3363124.48245  24631302.284    24631314.491
       213.000         137.000
  24445745.309    -4990642.38549  -3882330.79445  24445747.301    24445755.832
       209.000         138.000
 03  6  3 23 50  0.0000000  0  7G11G23G25G14G20G 1G30
  21539882.030   -17267961.40749 -13431711.27547  21539881.670    21539887.820
       239.000         196.000
  23691426.868    10030218.52849   7771803.57345  23691425.647    23691436.658
       211.000         149.000
  20520498.717   -14843637.28149 -11553873.21648  20520498.664    20520504.569
       243.000         214.000
  22613597.403    11679795.55149   9101848.51446  22613597.412    22613602.944
       226.000         175.000
  23749114.201   -10226096.62749  -7425206.65145  23749112.761    23749121.511
       213.000         145.000
  24617462.976    -4410265.51149  -3419798.41145  24617461.916    24617473.323
       211.000         137.000
  24445230.595    -4993346.84949  -3884438.19545  24445230.759    24445241.229
       209.000         137.000
 03  6  3 23 50 30.0000000  0  7G11G23G25G14G20G 1G30
  21538305.269   -17276247.43149 -13438167.91547  21538304.972    21538310.815
       239.000         196.000
  23703920.447    10095872.64049   7822962.52045  23703920.727    23703929.585
       212.000         151.000
  20520215.213   -14845127.01849 -11555034.03848  20520215.241    20520220.936
       243.000         214.000
  22626844.696    11749410.44049   9156093.83746  22626844.102    22626850.951
       225.000         175.000
  23732087.157   -10315574.38149  -7494929.51845  23732086.169    23732094.533
       215.000         147.000
  24603648.332    -4482861.21449  -3476366.36645  24603648.109    24603658.213
       212.000         136.000
  24444811.371    -4995550.09349  -3886155.03745  24444811.109    24444819.417
       211.000         136.000
 03  6  3 23 51  0.0000000  0  7G11G23G25G14G20G 1G30
  21536833.750   -17283980.25449 -13444193.48947  21536833.560    21536839.020
       239.000         196.000
  23716456.681    10161750.73649   7874296.01545  23716455.919    23716465.142
       212.000         151.000
  20520031.961   -14846090.12649 -11555784.49548  20520031.888    20520037.602
       244.000         214.000
  22640101.179    11819073.78649   9210376.92846  22640100.415    22640107.066
       225.000         174.000
  23715062.020   -10405041.71349  -7564644.23345  23715062.544    23715068.767
       216.000         149.000
  24589859.337    -4555322.26649  -3532829.33745  24589857.686    24589870.233
       211.000         138.000
  24444487.367    -4997252.48949  -3887481.58245  24444487.394    24444497.502
       210.000         135.000
 03  6  3 23 51 30.0000000  0  7G11G23G25G14G20G 1G30
  21535467.297   -17291161.01049 -13449788.88747  21535467.226    21535472.784
       239.000         197.000
  23729035.398    10227851.48749   7925802.99645  23729035.391    23729045.037
       211.000         151.000
  20519948.513   -14846528.45849 -11556126.03948  20519948.335    20519954.168
       244.000         214.000
  22653366.511    11888783.36349   9264696.03446  22653366.411    22653372.314
       225.000         174.000
  23698038.913   -10494498.42849  -7634350.69945  23698038.439    23698046.217
       216.000         151.000
  24576095.678    -4627649.94449  -3589188.40245  24576094.454    24576106.286
       209.000         139.000
  24444258.843    -4998454.38149  -3888418.13045  24444259.881    24444265.821
       211.000         135.000
 03  6  3 23 52  0.0000000  0  7G11G23G25G14G20G 1G30
  21534205.787   -17297790.18049 -13454954.47147  21534205.850    21534211.472
       240.000         196.000
  23741656.251    10294174.54349   7977483.17645  23741656.353    23741666.151
       209.000         150.000
  20519964.821   -14846442.84749 -11556059.31148  20519964.764    20519970.465
       244.000         214.000
  22666640.428    11958537.96349   9319050.23646  22666640.321    22666646.288
       226.000         174.000
  23681018.004   -10583943.43649  -7704048.04345  23681017.243    23681024.555
       217.000         153.000
  24562357.343    -4699844.66049  -3645443.86645  24562356.375    24562368.271
       208.000         139.000
  24444125.410    -4999155.22249  -3888964.28845  24444126.264    24444135.983
       211.000         134.000
 03  6  3 23 52 30.0000000  0  7G11G23G25G14G20G 1G30
  21533049.284   -17303867.83449 -13459690.30847  21533048.950    21533054.824
       239.000         197.000
  23754319.356    10360719.40849   8029336.19945  23754319.557    23754327.640
       211.000         150.000
  20520080.598   -14845834.38149 -11555585.16548  20520080.394    20520086.346
       243.000         214.000
  22679922.682    12028336.41349   9373438.61046  22679922.416    22679928.267
       225.000         173.000
  23663999.506   -10673375.90249  -7773735.59245  23663998.175    23664005.980
       219.000         156.000
  24548644.144    -4771906.89549  -3701596.09445  24548643.028    24548653.925
       206.000         135.000
  24444087.290    -4999354.61349  -3889119.66245  24444089.029    24444096.819
       208.000         134.000
 03  6  3 23 53  0.0000000  0  7G11G23G25G14G20G 1G30
  21531997.643   -17309394.14349 -13463996.51847  21531997.488    21532003.420
       239.000         197.000
  23767024.802    10427486.18849   8081362.17145  23767024.341    23767034.634
       212.000         151.000
  20520295.778   -14844703.48349 -11554703.92848  20520295.675    20520301.432
       244.000         214.000
  22693213.038    12098177.91449   9427860.53146  22693212.786    22693218.687
       226.000         172.000
  23646983.676   -10762794.39349  -7843412.26145  23646983.334    23646991.303
       221.000         158.000
  24534956.321    -4843836.50649  -3757645.00445  24534955.254    24534966.696
       207.000         136.000
  24444144.920    -4999051.58949  -3888883.57845  24444146.440    24444153.683
       212.000         135.000
 03  6  3 23 53 30.0000000  0  7G11G23G25G14G20G 1G30
  21531050.797   -17314369.80949 -13467873.66347  21531050.744    21531056.269
       239.000         197.000
  23779772.246    10494474.23749   8133560.55845  23779772.026    23779782.911
       209.000         150.000
  20520610.158   -14843051.32149 -11553416.51148  20520610.097    20520615.607
       244.000         214.000
  22706511.355    12168061.00449   9482314.83846  22706510.890    22706517.689
       224.000         172.000
  23629970.765   -10852198.14449  -7913077.45845  23629969.123    23629977.842
       219.000         161.000
  24521293.511    -4915634.19049  -3813591.11845  24521291.643    24521304.303
       206.000         137.000
  24444298.191    -4998245.88249  -3888255.75945  24444298.015    24444306.625
       210.000         135.000
 03  6  3 23 54  0.0000000  0  7G11G23G25G14G20G 1G30
  21530208.837   -17318794.49449 -13471321.47047  21530208.717    21530214.300
       240.000         197.000
  23792561.876    10561683.93649   8185931.64045  23792561.532    23792570.922
       212.000         150.000
  20521023.729   -14840877.99449 -11551722.99648  20521023.601    20521029.192
       243.000         214.000
  22719817.606    12237985.50549   9536801.43746  22719818.077    22719823.601
       225.000         172.000
  23612960.871   -10941585.44549  -7982729.80945  23612960.068    23612968.232
       219.000         161.000
  24507655.920    -4987299.65049  -3869434.17045  24507655.223    24507666.240
       206.000         136.000
  24444547.526    -4996936.32549  -3887235.33145  24444548.911    24444558.896
       209.000         135.000
 03  6  3 23 54 30.0000000  0  7G11G23G25G14G20G 1G30
  21529471.658   -17322668.58249 -13474340.24847  21529471.407    21529477.485
       240.000         197.000
  23805393.600    10629114.77749   8238475.07545  23805393.639    23805403.698
       212.000         150.000
  20521536.247   -14838184.75949 -11549624.35448  20521536.186    20521541.957
       243.000         214.000
  22733131.518    12307950.24649   9591319.38046  22733131.680    22733137.624
       225.000         171.000
  23595954.301   -11030955.49749  -8052368.72645  23595953.231    23595961.681
       217.000         162.000
  24494043.494    -5058833.44549  -3925174.58345  24494042.997    24494054.702
       205.000         138.000
  24444892.613    -4995122.57549  -3885822.07145  24444893.792    24444902.148
       210.000         135.000
 03  6  3 23 55  0.0000000  0  7G11G23G25G14G20G 1G30
  21528839.275   -17325991.74749 -13476929.72847  21528839.025    21528844.955
       240.000         197.000
  23818267.479    10696767.35949   8291191.27845  23818266.127    23818276.650
       211.000         150.000
  20522147.618   -14834971.77549 -11547120.71348  20522147.493    20522153.454
       244.000         214.000
  22746452.999    12377954.66349   9645868.23246  22746452.898    22746458.884
       225.000         171.000
  23578951.317   -11120306.11149  -8121992.49045  23578950.742    23578958.404
       216.000         161.000
  24480456.069    -5130234.98749  -3980811.95645  24480455.174    24480466.586
       203.000         137.000
  24445333.950    -4992803.17849  -3884014.76345  24445333.438    24445345.014
       209.000         134.000
 03  6  3 23 55 30.0000000  0  7G11G23G25G14G20G 1G30
  21528311.703   -17328764.14449 -13479090.04847  21528311.750    21528317.224
       240.000         197.000
  23831183.545    10764641.56849   8344080.17545  23831182.775    23831193.312
       213.000         151.000
  20522857.781   -14831239.61849 -11544212.52648  20522857.641    20522863.370
       243.000         214.000
  22759781.822    12447998.27649   9700447.63146  22759780.802    22759788.028
       225.000         170.000
  23561952.283   -11209636.15749  -8191600.23645  23561950.891    23561959.713
       215.000         160.000
  24466893.584    -5201504.34849  -4036346.34045  24466893.162    24466903.798
       201.000         137.000
  24445871.625    -4989977.54149  -3881812.98745  24445872.525    24445880.848
       204.000         133.000
 03  6  3 23 56  0.0000000  0  7G11G23G25G14G20G 1G30
  21527888.912   -17330985.85249 -13480821.25347  21527888.923    21527894.551
       240.000         197.000
  23844141.816    10832736.97149   8397141.41745  23844141.274    23844151.688
       212.000         151.000
  20523666.543   -14826989.44149 -11540900.68148  20523666.421    20523672.138
       244.000         214.000
  22773117.964    12518080.02749   9755056.75046  22773117.369    22773124.229
       225.000         171.000
  23544957.443   -11298944.25449  -8261190.87145  23544956.556    23544964.071
       215.000         159.000
  24453356.322    -5272641.98349  -4091778.08545  24453356.064    24453368.067
       201.000         137.000
  24446505.679    -4986645.14649  -3879216.34445  24446506.975    24446516.150
       210.000         134.000
 03  6  3 23 56 30.0000000  0  7G11G23G25G14G20G 1G30
  21527570.803   -17332657.69349 -13482123.98547  21527570.573    21527576.458
       240.000         197.000
  23857141.998    10901053.07049   8450374.61845  23857141.714    23857151.635
       209.000         150.000
  20524573.676   -14822222.22949 -11537185.95248  20524573.593    20524579.578
       243.000         214.000
  22786460.980    12588198.61449   9809694.57746  22786460.052    22786467.382
       224.000         171.000
  23527966.899   -11388229.71149  -8330763.86345  23527965.428    23527974.017
       212.000         158.000
  24439844.114    -5343648.40149  -4147107.57245  24439843.249    24439854.083
       204.000         139.000
  24447236.274    -4982805.79649  -3876224.64545  24447236.041    24447245.201
       211.000         134.000
 03  6  3 23 57  0.0000000  0  7G11G23G25G14G20G 1G30
  21527357.359   -17333779.38649 -13482998.04147  21527357.091    21527362.912
       239.000         197.000
  23870184.234    10969590.59649   8503780.35045  23870184.215    23870193.909
       212.000         151.000
  20525579.218   -14816938.07949 -11533068.41548  20525579.217    20525584.965
       244.000         214.000
  22799811.153    12658353.86649   9864360.96146  22799811.519    22799816.990
       225.000         171.000
  23510981.073   -11477490.43049  -8400317.57245  23510980.297    23510987.425
       212.000         155.000
  24426357.078    -5414523.00349  -4202334.37845  24426355.916    24426367.519
       203.000         140.000
  24448063.748    -4978458.24249  -3872836.96245  24448065.207    24448072.168
       209.000         135.000
 03  6  3 23 57 30.0000000  0  7G11G23G25G14G20G 1G30
  21527248.505   -17334351.42949 -13483443.79547  21527248.266    21527254.039
       239.000         197.000
  23883268.620    11038348.80049   8557358.06045  23883268.088    23883277.319
       212.000         151.000
  20526682.826   -14811138.47649 -11528549.22948  20526682.693    20526688.572
       243.000         214.000
  22813168.101    12728544.72249   9919055.09746  22813168.082    22813174.204
       225.000         171.000
  23494000.224   -11566725.29349  -8469851.12945  23494000.052    23494006.867
       213.000         155.000
  24412895.041    -5485266.37449  -4257458.90145  24412894.725    24412906.042
       204.000         141.000
  24448987.911    -4973602.09549  -3869052.97945  24448988.507    24448996.383
       208.000         135.000
 03  6  3 23 58  0.0000000  0  7G11G23G25G14G20G 1G30
  21527244.236   -17334373.94749 -13483461.35147  21527244.339    21527249.476
       239.000         197.000
  23896394.986    11107327.81249   8611107.83245  23896395.759    23896405.331
       210.000         150.000
  20527884.461   -14804823.79849 -11523628.68648  20527884.441    20527890.076
       243.000         214.000
  22826531.733    12798770.69049   9973776.58046  22826532.141    22826538.526
       225.000         171.000
  23477024.554   -11655932.92549  -8539363.47945  23477024.484    23477031.337
       214.000         155.000
  24399457.911    -5555878.47549  -4312481.13245  24399457.397    24399468.850
       205.000         143.000
  24450008.973    -4968236.76949  -3864872.22445  24450007.502    24450017.706
       207.000         134.000
 03  6  3 23 58 30.0000000  0  7G11G23G25G14G20G 1G30
  21527344.491   -17333847.23049 -13483050.92447  21527344.230    21527350.300
       239.000         197.000
  23909563.266    11176527.77349   8665029.77545  23909563.184    23909573.108
       210.000         148.000
  20529183.970   -14797994.78949 -11518307.36248  20529183.982    20529189.708
       244.000         214.000
  22839901.894    12869031.06849  10028524.90246  22839901.745    22839908.509
       224.000         171.000
  23460054.314   -11745111.43249  -8608853.15045  23460053.983    23460061.086
       215.000         155.000
  24386045.758    -5626359.03949  -4367400.89945  24386044.832    24386056.824
       208.000         146.000
  24451126.950    -4962361.34749  -3860293.99345  24451128.486    24451135.763
       209.000         134.000
 03  6  3 23 59  0.0000000  0  7G11G23G25G14G20G 1G30
  21527549.148   -17332771.46849 -13482212.67747  21527548.928    21527554.564
       238.000         197.000
  23922773.739    11245948.42949   8719123.68245  23922773.389    23922783.017
       209.000         149.000
  20530581.228   -14790652.13449 -11512585.79748  20530581.074    20530586.942
       244.000         214.000
  22853278.381    12939325.27649  10083299.56546  22853277.855    22853283.989
       224.000         171.000
  23443089.903   -11834259.54249  -8678319.12945  23443088.518    23443096.207
       217.000         155.000
  24372658.495    -5696708.45849  -4422218.45845  24372657.240    24372669.301
       211.000         146.000
  24452342.284    -4955975.31149  -3855317.88945  24452343.875    24452352.063
       210.000         136.000
